<?xml version="1.0" encoding="UTF-8" standalone="no" ?>
<gpx xmlns="http://www.topografix.com/GPX/1/1" xmlns:xsi="http://www.w3.org/2001/XMLSchema-instance" xsi:schemaLocation="http://www.topografix.com/GPX/1/1 http://www.topografix.com/GPX/1/1/gpx.xsd" version="1.1" creator="VisuGPX - https://www.visugpx.com">
  <metadata>
    <name>Auberive (La Cude)</name>
  </metadata>
  <trk>
    <name><![CDATA[Auberive 1]]></name>
    <trkseg>
      <trkpt lat="47.78831" lon="5.06148">
        <ele>325.8</ele>
        <time>2022-05-12T06:56:41Z</time>
      </trkpt>
      <trkpt lat="47.78828" lon="5.06149">
        <ele>326.04</ele>
        <time>2022-05-12T06:57:46Z</time>
      </trkpt>
      <trkpt lat="47.78826" lon="5.06152">
        <ele>326.35</ele>
        <time>2022-05-12T06:58:17Z</time>
      </trkpt>
      <trkpt lat="47.78824" lon="5.06152">
        <ele>326.46</ele>
        <time>2022-05-12T06:59:58Z</time>
      </trkpt>
      <trkpt lat="47.78821" lon="5.06153">
        <ele>326.68</ele>
        <time>2022-05-12T07:00:06Z</time>
      </trkpt>
      <trkpt lat="47.78824" lon="5.0615">
        <ele>326.34</ele>
        <time>2022-05-12T07:05:53Z</time>
      </trkpt>
      <trkpt lat="47.78826" lon="5.06148">
        <ele>326.1</ele>
        <time>2022-05-12T07:06:11Z</time>
      </trkpt>
      <trkpt lat="47.78829" lon="5.06147">
        <ele>325.85</ele>
        <time>2022-05-12T07:06:20Z</time>
      </trkpt>
      <trkpt lat="47.78831" lon="5.06145">
        <ele>325.59</ele>
        <time>2022-05-12T07:06:29Z</time>
      </trkpt>
      <trkpt lat="47.78834" lon="5.06146">
        <ele>325.57</ele>
        <time>2022-05-12T07:06:49Z</time>
      </trkpt>
      <trkpt lat="47.78836" lon="5.06149">
        <ele>325.95</ele>
        <time>2022-05-12T07:06:52Z</time>
      </trkpt>
      <trkpt lat="47.78838" lon="5.06152">
        <ele>326.36</ele>
        <time>2022-05-12T07:06:59Z</time>
      </trkpt>
      <trkpt lat="47.7884" lon="5.06155">
        <ele>326.78</ele>
        <time>2022-05-12T07:07:22Z</time>
      </trkpt>
      <trkpt lat="47.78841" lon="5.0615">
        <ele>326.46</ele>
        <time>2022-05-12T07:07:38Z</time>
      </trkpt>
      <trkpt lat="47.78841" lon="5.06154">
        <ele>326.79</ele>
        <time>2022-05-12T07:08:46Z</time>
      </trkpt>
      <trkpt lat="47.78839" lon="5.06156">
        <ele>326.77</ele>
        <time>2022-05-12T07:13:50Z</time>
      </trkpt>
      <trkpt lat="47.78836" lon="5.06156">
        <ele>326.48</ele>
        <time>2022-05-12T07:13:53Z</time>
      </trkpt>
      <trkpt lat="47.78833" lon="5.06151">
        <ele>325.89</ele>
        <time>2022-05-12T07:13:56Z</time>
      </trkpt>
      <trkpt lat="47.78832" lon="5.06146">
        <ele>325.6</ele>
        <time>2022-05-12T07:13:59Z</time>
      </trkpt>
      <trkpt lat="47.78832" lon="5.06142">
        <ele>325.31</ele>
        <time>2022-05-12T07:14:04Z</time>
      </trkpt>
      <trkpt lat="47.78832" lon="5.06138">
        <ele>325.1</ele>
        <time>2022-05-12T07:14:12Z</time>
      </trkpt>
      <trkpt lat="47.78834" lon="5.06133">
        <ele>325.04</ele>
        <time>2022-05-12T07:14:14Z</time>
      </trkpt>
      <trkpt lat="47.78835" lon="5.06129">
        <ele>325.1</ele>
        <time>2022-05-12T07:14:16Z</time>
      </trkpt>
      <trkpt lat="47.78834" lon="5.06135">
        <ele>325.04</ele>
        <time>2022-05-12T07:14:29Z</time>
      </trkpt>
      <trkpt lat="47.78833" lon="5.06138">
        <ele>325.02</ele>
        <time>2022-05-12T07:14:32Z</time>
      </trkpt>
      <trkpt lat="47.78833" lon="5.06143">
        <ele>325.32</ele>
        <time>2022-05-12T07:14:34Z</time>
      </trkpt>
      <trkpt lat="47.78833" lon="5.06147">
        <ele>325.6</ele>
        <time>2022-05-12T07:14:39Z</time>
      </trkpt>
      <trkpt lat="47.78836" lon="5.06147">
        <ele>325.8</ele>
        <time>2022-05-12T07:14:53Z</time>
      </trkpt>
      <trkpt lat="47.78838" lon="5.06147">
        <ele>325.97</ele>
        <time>2022-05-12T07:14:57Z</time>
      </trkpt>
      <trkpt lat="47.78837" lon="5.0615">
        <ele>326.12</ele>
        <time>2022-05-12T07:15:11Z</time>
      </trkpt>
      <trkpt lat="47.78838" lon="5.06154">
        <ele>326.52</ele>
        <time>2022-05-12T07:15:47Z</time>
      </trkpt>
      <trkpt lat="47.78837" lon="5.06158">
        <ele>326.73</ele>
        <time>2022-05-12T07:15:54Z</time>
      </trkpt>
      <trkpt lat="47.78834" lon="5.06161">
        <ele>326.66</ele>
        <time>2022-05-12T07:15:57Z</time>
      </trkpt>
      <trkpt lat="47.78832" lon="5.06163">
        <ele>326.79</ele>
        <time>2022-05-12T07:16:00Z</time>
      </trkpt>
      <trkpt lat="47.78829" lon="5.06164">
        <ele>326.98</ele>
        <time>2022-05-12T07:16:01Z</time>
      </trkpt>
      <trkpt lat="47.78827" lon="5.06166">
        <ele>327.19</ele>
        <time>2022-05-12T07:16:04Z</time>
      </trkpt>
      <trkpt lat="47.78824" lon="5.06169">
        <ele>327.59</ele>
        <time>2022-05-12T07:16:06Z</time>
      </trkpt>
      <trkpt lat="47.78821" lon="5.06172">
        <ele>328.02</ele>
        <time>2022-05-12T07:16:10Z</time>
      </trkpt>
      <trkpt lat="47.78818" lon="5.06175">
        <ele>328.45</ele>
        <time>2022-05-12T07:16:13Z</time>
      </trkpt>
      <trkpt lat="47.78817" lon="5.06179">
        <ele>328.92</ele>
        <time>2022-05-12T07:16:17Z</time>
      </trkpt>
      <trkpt lat="47.78814" lon="5.06182">
        <ele>329.35</ele>
        <time>2022-05-12T07:16:20Z</time>
      </trkpt>
      <trkpt lat="47.78812" lon="5.06184">
        <ele>329.64</ele>
        <time>2022-05-12T07:16:22Z</time>
      </trkpt>
      <trkpt lat="47.7881" lon="5.06188">
        <ele>330.14</ele>
        <time>2022-05-12T07:16:25Z</time>
      </trkpt>
      <trkpt lat="47.78808" lon="5.06192">
        <ele>330.65</ele>
        <time>2022-05-12T07:16:27Z</time>
      </trkpt>
      <trkpt lat="47.78806" lon="5.06195">
        <ele>331.03</ele>
        <time>2022-05-12T07:16:29Z</time>
      </trkpt>
      <trkpt lat="47.78803" lon="5.06197">
        <ele>331</ele>
        <time>2022-05-12T07:16:32Z</time>
      </trkpt>
      <trkpt lat="47.788" lon="5.06199">
        <ele>330.93</ele>
        <time>2022-05-12T07:16:35Z</time>
      </trkpt>
      <trkpt lat="47.78798" lon="5.06201">
        <ele>330.93</ele>
        <time>2022-05-12T07:16:36Z</time>
      </trkpt>
      <trkpt lat="47.78795" lon="5.06203">
        <ele>330.86</ele>
        <time>2022-05-12T07:16:39Z</time>
      </trkpt>
      <trkpt lat="47.78793" lon="5.06205">
        <ele>330.86</ele>
        <time>2022-05-12T07:16:41Z</time>
      </trkpt>
      <trkpt lat="47.7879" lon="5.06208">
        <ele>330.86</ele>
        <time>2022-05-12T07:16:45Z</time>
      </trkpt>
      <trkpt lat="47.78788" lon="5.06211">
        <ele>330.93</ele>
        <time>2022-05-12T07:16:47Z</time>
      </trkpt>
      <trkpt lat="47.78786" lon="5.06213">
        <ele>330.93</ele>
        <time>2022-05-12T07:16:50Z</time>
      </trkpt>
      <trkpt lat="47.78784" lon="5.06216">
        <ele>331</ele>
        <time>2022-05-12T07:16:53Z</time>
      </trkpt>
      <trkpt lat="47.7878" lon="5.06218">
        <ele>330.86</ele>
        <time>2022-05-12T07:16:55Z</time>
      </trkpt>
      <trkpt lat="47.78777" lon="5.0622">
        <ele>330.9</ele>
        <time>2022-05-12T07:16:59Z</time>
      </trkpt>
      <trkpt lat="47.78772" lon="5.06223">
        <ele>331.48</ele>
        <time>2022-05-12T07:17:03Z</time>
      </trkpt>
      <trkpt lat="47.78769" lon="5.06225">
        <ele>331.84</ele>
        <time>2022-05-12T07:17:07Z</time>
      </trkpt>
      <trkpt lat="47.78767" lon="5.06227">
        <ele>332.09</ele>
        <time>2022-05-12T07:17:09Z</time>
      </trkpt>
      <trkpt lat="47.78765" lon="5.0623">
        <ele>332.37</ele>
        <time>2022-05-12T07:17:10Z</time>
      </trkpt>
      <trkpt lat="47.78762" lon="5.06233">
        <ele>332.64</ele>
        <time>2022-05-12T07:17:12Z</time>
      </trkpt>
      <trkpt lat="47.7876" lon="5.06236">
        <ele>332.82</ele>
        <time>2022-05-12T07:17:15Z</time>
      </trkpt>
      <trkpt lat="47.78758" lon="5.06239">
        <ele>332.95</ele>
        <time>2022-05-12T07:17:18Z</time>
      </trkpt>
      <trkpt lat="47.78755" lon="5.0624">
        <ele>332.99</ele>
        <time>2022-05-12T07:17:21Z</time>
      </trkpt>
      <trkpt lat="47.78753" lon="5.06238">
        <ele>332.97</ele>
        <time>2022-05-12T07:17:26Z</time>
      </trkpt>
      <trkpt lat="47.78751" lon="5.06234">
        <ele>332.97</ele>
        <time>2022-05-12T07:17:29Z</time>
      </trkpt>
      <trkpt lat="47.78749" lon="5.0623">
        <ele>333.01</ele>
        <time>2022-05-12T07:17:32Z</time>
      </trkpt>
      <trkpt lat="47.78749" lon="5.06225">
        <ele>333</ele>
        <time>2022-05-12T07:17:35Z</time>
      </trkpt>
      <trkpt lat="47.7875" lon="5.06219">
        <ele>332.77</ele>
        <time>2022-05-12T07:17:38Z</time>
      </trkpt>
      <trkpt lat="47.7875" lon="5.06215">
        <ele>332.48</ele>
        <time>2022-05-12T07:17:43Z</time>
      </trkpt>
      <trkpt lat="47.7875" lon="5.0621">
        <ele>332.12</ele>
        <time>2022-05-12T07:17:44Z</time>
      </trkpt>
      <trkpt lat="47.7875" lon="5.06206">
        <ele>331.83</ele>
        <time>2022-05-12T07:17:47Z</time>
      </trkpt>
      <trkpt lat="47.7875" lon="5.06201">
        <ele>331.47</ele>
        <time>2022-05-12T07:17:50Z</time>
      </trkpt>
      <trkpt lat="47.78751" lon="5.06197">
        <ele>331.11</ele>
        <time>2022-05-12T07:17:53Z</time>
      </trkpt>
      <trkpt lat="47.78751" lon="5.06193">
        <ele>330.87</ele>
        <time>2022-05-12T07:17:56Z</time>
      </trkpt>
      <trkpt lat="47.78752" lon="5.06187">
        <ele>330.55</ele>
        <time>2022-05-12T07:17:58Z</time>
      </trkpt>
      <trkpt lat="47.78753" lon="5.06183">
        <ele>330.28</ele>
        <time>2022-05-12T07:18:01Z</time>
      </trkpt>
      <trkpt lat="47.78753" lon="5.06178">
        <ele>330.06</ele>
        <time>2022-05-12T07:18:04Z</time>
      </trkpt>
      <trkpt lat="47.78754" lon="5.06174">
        <ele>329.76</ele>
        <time>2022-05-12T07:18:07Z</time>
      </trkpt>
      <trkpt lat="47.78754" lon="5.0617">
        <ele>329.58</ele>
        <time>2022-05-12T07:18:12Z</time>
      </trkpt>
      <trkpt lat="47.78755" lon="5.06166">
        <ele>329.28</ele>
        <time>2022-05-12T07:18:14Z</time>
      </trkpt>
      <trkpt lat="47.78756" lon="5.06159">
        <ele>329.08</ele>
        <time>2022-05-12T07:18:16Z</time>
      </trkpt>
      <trkpt lat="47.78756" lon="5.06155">
        <ele>329.05</ele>
        <time>2022-05-12T07:18:19Z</time>
      </trkpt>
      <trkpt lat="47.78757" lon="5.06151">
        <ele>328.85</ele>
        <time>2022-05-12T07:18:21Z</time>
      </trkpt>
      <trkpt lat="47.78758" lon="5.06147">
        <ele>328.64</ele>
        <time>2022-05-12T07:18:23Z</time>
      </trkpt>
      <trkpt lat="47.7876" lon="5.06143">
        <ele>328.25</ele>
        <time>2022-05-12T07:18:25Z</time>
      </trkpt>
      <trkpt lat="47.78762" lon="5.06137">
        <ele>327.88</ele>
        <time>2022-05-12T07:18:27Z</time>
      </trkpt>
      <trkpt lat="47.78763" lon="5.06133">
        <ele>327.77</ele>
        <time>2022-05-12T07:18:29Z</time>
      </trkpt>
      <trkpt lat="47.78764" lon="5.06128">
        <ele>327.67</ele>
        <time>2022-05-12T07:18:32Z</time>
      </trkpt>
      <trkpt lat="47.78765" lon="5.06123">
        <ele>327.56</ele>
        <time>2022-05-12T07:18:34Z</time>
      </trkpt>
      <trkpt lat="47.78766" lon="5.06118">
        <ele>327.44</ele>
        <time>2022-05-12T07:18:37Z</time>
      </trkpt>
      <trkpt lat="47.78767" lon="5.06112">
        <ele>327.32</ele>
        <time>2022-05-12T07:18:39Z</time>
      </trkpt>
      <trkpt lat="47.78767" lon="5.06106">
        <ele>327.88</ele>
        <time>2022-05-12T07:18:42Z</time>
      </trkpt>
      <trkpt lat="47.78767" lon="5.06102">
        <ele>328.31</ele>
        <time>2022-05-12T07:18:44Z</time>
      </trkpt>
      <trkpt lat="47.78768" lon="5.06097">
        <ele>328.64</ele>
        <time>2022-05-12T07:18:47Z</time>
      </trkpt>
      <trkpt lat="47.78769" lon="5.06093">
        <ele>328.85</ele>
        <time>2022-05-12T07:18:50Z</time>
      </trkpt>
      <trkpt lat="47.78769" lon="5.06088">
        <ele>329.39</ele>
        <time>2022-05-12T07:18:51Z</time>
      </trkpt>
      <trkpt lat="47.7877" lon="5.06083">
        <ele>329.7</ele>
        <time>2022-05-12T07:18:54Z</time>
      </trkpt>
      <trkpt lat="47.78771" lon="5.06079">
        <ele>329.7</ele>
        <time>2022-05-12T07:18:56Z</time>
      </trkpt>
      <trkpt lat="47.78772" lon="5.06075">
        <ele>329.72</ele>
        <time>2022-05-12T07:18:59Z</time>
      </trkpt>
      <trkpt lat="47.78773" lon="5.06071">
        <ele>329.77</ele>
        <time>2022-05-12T07:19:03Z</time>
      </trkpt>
      <trkpt lat="47.78775" lon="5.06067">
        <ele>329.66</ele>
        <time>2022-05-12T07:19:06Z</time>
      </trkpt>
      <trkpt lat="47.78776" lon="5.06064">
        <ele>329.69</ele>
        <time>2022-05-12T07:19:09Z</time>
      </trkpt>
      <trkpt lat="47.78779" lon="5.0606">
        <ele>329.64</ele>
        <time>2022-05-12T07:19:12Z</time>
      </trkpt>
      <trkpt lat="47.78781" lon="5.06056">
        <ele>329.85</ele>
        <time>2022-05-12T07:19:15Z</time>
      </trkpt>
      <trkpt lat="47.78783" lon="5.06053">
        <ele>329.9</ele>
        <time>2022-05-12T07:19:17Z</time>
      </trkpt>
      <trkpt lat="47.78786" lon="5.0605">
        <ele>329.9</ele>
        <time>2022-05-12T07:19:20Z</time>
      </trkpt>
      <trkpt lat="47.78788" lon="5.06047">
        <ele>329.94</ele>
        <time>2022-05-12T07:19:22Z</time>
      </trkpt>
      <trkpt lat="47.78791" lon="5.06045">
        <ele>329.9</ele>
        <time>2022-05-12T07:19:25Z</time>
      </trkpt>
      <trkpt lat="47.78794" lon="5.06042">
        <ele>329.9</ele>
        <time>2022-05-12T07:19:27Z</time>
      </trkpt>
      <trkpt lat="47.78796" lon="5.06039">
        <ele>329.94</ele>
        <time>2022-05-12T07:19:30Z</time>
      </trkpt>
      <trkpt lat="47.78798" lon="5.06037">
        <ele>329.94</ele>
        <time>2022-05-12T07:19:33Z</time>
      </trkpt>
      <trkpt lat="47.78801" lon="5.06035">
        <ele>329.9</ele>
        <time>2022-05-12T07:19:36Z</time>
      </trkpt>
      <trkpt lat="47.78804" lon="5.06034">
        <ele>329.83</ele>
        <time>2022-05-12T07:19:40Z</time>
      </trkpt>
      <trkpt lat="47.78806" lon="5.06031">
        <ele>329.84</ele>
        <time>2022-05-12T07:19:42Z</time>
      </trkpt>
      <trkpt lat="47.78809" lon="5.06029">
        <ele>329.59</ele>
        <time>2022-05-12T07:19:45Z</time>
      </trkpt>
      <trkpt lat="47.78812" lon="5.06027">
        <ele>329.25</ele>
        <time>2022-05-12T07:19:47Z</time>
      </trkpt>
      <trkpt lat="47.78814" lon="5.06025">
        <ele>328.92</ele>
        <time>2022-05-12T07:19:50Z</time>
      </trkpt>
      <trkpt lat="47.78814" lon="5.06021">
        <ele>328.67</ele>
        <time>2022-05-12T07:19:53Z</time>
      </trkpt>
      <trkpt lat="47.78813" lon="5.06017">
        <ele>328.52</ele>
        <time>2022-05-12T07:19:56Z</time>
      </trkpt>
      <trkpt lat="47.78813" lon="5.06012">
        <ele>328.21</ele>
        <time>2022-05-12T07:19:59Z</time>
      </trkpt>
      <trkpt lat="47.78814" lon="5.06008">
        <ele>327.88</ele>
        <time>2022-05-12T07:20:01Z</time>
      </trkpt>
      <trkpt lat="47.78814" lon="5.06004">
        <ele>327.64</ele>
        <time>2022-05-12T07:20:03Z</time>
      </trkpt>
      <trkpt lat="47.78816" lon="5.05999">
        <ele>327.26</ele>
        <time>2022-05-12T07:20:06Z</time>
      </trkpt>
      <trkpt lat="47.78816" lon="5.05995">
        <ele>327.32</ele>
        <time>2022-05-12T07:20:09Z</time>
      </trkpt>
      <trkpt lat="47.78815" lon="5.0599">
        <ele>327.44</ele>
        <time>2022-05-12T07:20:10Z</time>
      </trkpt>
      <trkpt lat="47.78814" lon="5.05986">
        <ele>327.55</ele>
        <time>2022-05-12T07:20:14Z</time>
      </trkpt>
      <trkpt lat="47.78816" lon="5.05982">
        <ele>327.49</ele>
        <time>2022-05-12T07:20:18Z</time>
      </trkpt>
      <trkpt lat="47.78819" lon="5.05981">
        <ele>327.36</ele>
        <time>2022-05-12T07:20:21Z</time>
      </trkpt>
      <trkpt lat="47.78822" lon="5.05979">
        <ele>327.26</ele>
        <time>2022-05-12T07:20:24Z</time>
      </trkpt>
      <trkpt lat="47.78824" lon="5.05976">
        <ele>327.25</ele>
        <time>2022-05-12T07:20:27Z</time>
      </trkpt>
      <trkpt lat="47.78827" lon="5.05974">
        <ele>327.18</ele>
        <time>2022-05-12T07:20:30Z</time>
      </trkpt>
      <trkpt lat="47.78829" lon="5.05972">
        <ele>327.17</ele>
        <time>2022-05-12T07:20:32Z</time>
      </trkpt>
      <trkpt lat="47.78832" lon="5.05969">
        <ele>327.29</ele>
        <time>2022-05-12T07:20:35Z</time>
      </trkpt>
      <trkpt lat="47.78834" lon="5.05966">
        <ele>327.44</ele>
        <time>2022-05-12T07:20:37Z</time>
      </trkpt>
      <trkpt lat="47.78837" lon="5.05963">
        <ele>327.62</ele>
        <time>2022-05-12T07:20:39Z</time>
      </trkpt>
      <trkpt lat="47.78839" lon="5.05961">
        <ele>327.73</ele>
        <time>2022-05-12T07:20:41Z</time>
      </trkpt>
      <trkpt lat="47.78842" lon="5.05958">
        <ele>327.86</ele>
        <time>2022-05-12T07:20:44Z</time>
      </trkpt>
      <trkpt lat="47.78844" lon="5.05955">
        <ele>328</ele>
        <time>2022-05-12T07:20:45Z</time>
      </trkpt>
      <trkpt lat="47.78847" lon="5.05953">
        <ele>328.04</ele>
        <time>2022-05-12T07:20:48Z</time>
      </trkpt>
      <trkpt lat="47.78849" lon="5.05951">
        <ele>328.1</ele>
        <time>2022-05-12T07:20:50Z</time>
      </trkpt>
      <trkpt lat="47.78852" lon="5.05949">
        <ele>328.11</ele>
        <time>2022-05-12T07:20:52Z</time>
      </trkpt>
      <trkpt lat="47.78855" lon="5.05947">
        <ele>328.11</ele>
        <time>2022-05-12T07:20:54Z</time>
      </trkpt>
      <trkpt lat="47.78859" lon="5.05946">
        <ele>328.02</ele>
        <time>2022-05-12T07:20:58Z</time>
      </trkpt>
      <trkpt lat="47.78862" lon="5.05943">
        <ele>328.2</ele>
        <time>2022-05-12T07:21:01Z</time>
      </trkpt>
      <trkpt lat="47.78864" lon="5.0594">
        <ele>328.62</ele>
        <time>2022-05-12T07:21:03Z</time>
      </trkpt>
      <trkpt lat="47.78867" lon="5.05937">
        <ele>329.12</ele>
        <time>2022-05-12T07:21:05Z</time>
      </trkpt>
      <trkpt lat="47.7887" lon="5.05934">
        <ele>329.59</ele>
        <time>2022-05-12T07:21:07Z</time>
      </trkpt>
      <trkpt lat="47.78872" lon="5.0593">
        <ele>330.01</ele>
        <time>2022-05-12T07:21:10Z</time>
      </trkpt>
      <trkpt lat="47.78874" lon="5.05927">
        <ele>330.36</ele>
        <time>2022-05-12T07:21:12Z</time>
      </trkpt>
      <trkpt lat="47.78877" lon="5.05925">
        <ele>330.72</ele>
        <time>2022-05-12T07:21:14Z</time>
      </trkpt>
      <trkpt lat="47.78879" lon="5.05922">
        <ele>331.03</ele>
        <time>2022-05-12T07:21:16Z</time>
      </trkpt>
      <trkpt lat="47.7888" lon="5.05918">
        <ele>331.3</ele>
        <time>2022-05-12T07:21:19Z</time>
      </trkpt>
      <trkpt lat="47.78882" lon="5.05915">
        <ele>331.58</ele>
        <time>2022-05-12T07:21:21Z</time>
      </trkpt>
      <trkpt lat="47.78884" lon="5.05911">
        <ele>331.89</ele>
        <time>2022-05-12T07:21:24Z</time>
      </trkpt>
      <trkpt lat="47.78886" lon="5.05907">
        <ele>332.18</ele>
        <time>2022-05-12T07:21:26Z</time>
      </trkpt>
      <trkpt lat="47.78888" lon="5.05903">
        <ele>332.44</ele>
        <time>2022-05-12T07:21:28Z</time>
      </trkpt>
      <trkpt lat="47.7889" lon="5.059">
        <ele>332.5</ele>
        <time>2022-05-12T07:21:30Z</time>
      </trkpt>
      <trkpt lat="47.78891" lon="5.05895">
        <ele>332.61</ele>
        <time>2022-05-12T07:21:32Z</time>
      </trkpt>
      <trkpt lat="47.78893" lon="5.0589">
        <ele>332.66</ele>
        <time>2022-05-12T07:21:36Z</time>
      </trkpt>
      <trkpt lat="47.78895" lon="5.05886">
        <ele>332.64</ele>
        <time>2022-05-12T07:21:38Z</time>
      </trkpt>
      <trkpt lat="47.78897" lon="5.05882">
        <ele>332.59</ele>
        <time>2022-05-12T07:21:40Z</time>
      </trkpt>
      <trkpt lat="47.78898" lon="5.05879">
        <ele>332.58</ele>
        <time>2022-05-12T07:21:42Z</time>
      </trkpt>
      <trkpt lat="47.789" lon="5.05875">
        <ele>332.5</ele>
        <time>2022-05-12T07:21:44Z</time>
      </trkpt>
      <trkpt lat="47.78902" lon="5.05872">
        <ele>332.38</ele>
        <time>2022-05-12T07:21:46Z</time>
      </trkpt>
      <trkpt lat="47.78905" lon="5.05868">
        <ele>332.16</ele>
        <time>2022-05-12T07:21:48Z</time>
      </trkpt>
      <trkpt lat="47.78908" lon="5.05865">
        <ele>331.89</ele>
        <time>2022-05-12T07:21:51Z</time>
      </trkpt>
      <trkpt lat="47.7891" lon="5.05861">
        <ele>331.74</ele>
        <time>2022-05-12T07:21:53Z</time>
      </trkpt>
      <trkpt lat="47.78911" lon="5.05857">
        <ele>332.29</ele>
        <time>2022-05-12T07:21:55Z</time>
      </trkpt>
      <trkpt lat="47.78913" lon="5.05853">
        <ele>332.78</ele>
        <time>2022-05-12T07:21:58Z</time>
      </trkpt>
      <trkpt lat="47.78914" lon="5.05849">
        <ele>333.38</ele>
        <time>2022-05-12T07:21:59Z</time>
      </trkpt>
      <trkpt lat="47.78915" lon="5.05845">
        <ele>334.01</ele>
        <time>2022-05-12T07:22:01Z</time>
      </trkpt>
      <trkpt lat="47.78916" lon="5.05842">
        <ele>334.48</ele>
        <time>2022-05-12T07:22:03Z</time>
      </trkpt>
      <trkpt lat="47.78918" lon="5.05837">
        <ele>335.11</ele>
        <time>2022-05-12T07:22:05Z</time>
      </trkpt>
      <trkpt lat="47.78919" lon="5.05833">
        <ele>335.63</ele>
        <time>2022-05-12T07:22:07Z</time>
      </trkpt>
      <trkpt lat="47.78921" lon="5.05829">
        <ele>335.87</ele>
        <time>2022-05-12T07:22:09Z</time>
      </trkpt>
      <trkpt lat="47.78922" lon="5.05825">
        <ele>336.3</ele>
        <time>2022-05-12T07:22:12Z</time>
      </trkpt>
      <trkpt lat="47.78923" lon="5.05821">
        <ele>336.74</ele>
        <time>2022-05-12T07:22:14Z</time>
      </trkpt>
      <trkpt lat="47.78925" lon="5.05817">
        <ele>337.03</ele>
        <time>2022-05-12T07:22:16Z</time>
      </trkpt>
      <trkpt lat="47.78928" lon="5.05812">
        <ele>337.35</ele>
        <time>2022-05-12T07:22:19Z</time>
      </trkpt>
      <trkpt lat="47.7893" lon="5.05809">
        <ele>337.52</ele>
        <time>2022-05-12T07:22:21Z</time>
      </trkpt>
      <trkpt lat="47.78932" lon="5.05806">
        <ele>337.72</ele>
        <time>2022-05-12T07:22:23Z</time>
      </trkpt>
      <trkpt lat="47.78934" lon="5.05803">
        <ele>337.81</ele>
        <time>2022-05-12T07:22:25Z</time>
      </trkpt>
      <trkpt lat="47.78936" lon="5.05799">
        <ele>338</ele>
        <time>2022-05-12T07:22:27Z</time>
      </trkpt>
      <trkpt lat="47.78937" lon="5.05793">
        <ele>338.55</ele>
        <time>2022-05-12T07:22:30Z</time>
      </trkpt>
      <trkpt lat="47.78939" lon="5.0579">
        <ele>338.57</ele>
        <time>2022-05-12T07:22:32Z</time>
      </trkpt>
      <trkpt lat="47.7894" lon="5.05786">
        <ele>338.86</ele>
        <time>2022-05-12T07:22:34Z</time>
      </trkpt>
      <trkpt lat="47.78941" lon="5.05782">
        <ele>339.15</ele>
        <time>2022-05-12T07:22:36Z</time>
      </trkpt>
      <trkpt lat="47.78942" lon="5.05778">
        <ele>339.42</ele>
        <time>2022-05-12T07:22:38Z</time>
      </trkpt>
      <trkpt lat="47.78944" lon="5.05773">
        <ele>338.92</ele>
        <time>2022-05-12T07:22:41Z</time>
      </trkpt>
      <trkpt lat="47.78945" lon="5.0577">
        <ele>338.52</ele>
        <time>2022-05-12T07:22:43Z</time>
      </trkpt>
      <trkpt lat="47.78947" lon="5.05767">
        <ele>337.74</ele>
        <time>2022-05-12T07:22:46Z</time>
      </trkpt>
      <trkpt lat="47.78949" lon="5.05763">
        <ele>337.01</ele>
        <time>2022-05-12T07:22:48Z</time>
      </trkpt>
      <trkpt lat="47.78951" lon="5.0576">
        <ele>336.37</ele>
        <time>2022-05-12T07:22:50Z</time>
      </trkpt>
      <trkpt lat="47.78954" lon="5.05756">
        <ele>335.51</ele>
        <time>2022-05-12T07:22:53Z</time>
      </trkpt>
      <trkpt lat="47.78955" lon="5.05752">
        <ele>335.3</ele>
        <time>2022-05-12T07:22:56Z</time>
      </trkpt>
      <trkpt lat="47.78956" lon="5.05747">
        <ele>335.32</ele>
        <time>2022-05-12T07:22:58Z</time>
      </trkpt>
      <trkpt lat="47.78959" lon="5.05742">
        <ele>334.89</ele>
        <time>2022-05-12T07:23:02Z</time>
      </trkpt>
      <trkpt lat="47.78961" lon="5.05738">
        <ele>334.61</ele>
        <time>2022-05-12T07:23:05Z</time>
      </trkpt>
      <trkpt lat="47.78965" lon="5.05735">
        <ele>333.64</ele>
        <time>2022-05-12T07:23:07Z</time>
      </trkpt>
      <trkpt lat="47.78969" lon="5.05732">
        <ele>332.61</ele>
        <time>2022-05-12T07:23:10Z</time>
      </trkpt>
      <trkpt lat="47.78972" lon="5.05729">
        <ele>331.82</ele>
        <time>2022-05-12T07:23:14Z</time>
      </trkpt>
      <trkpt lat="47.78974" lon="5.05726">
        <ele>331.6</ele>
        <time>2022-05-12T07:23:15Z</time>
      </trkpt>
      <trkpt lat="47.78976" lon="5.05723">
        <ele>331.42</ele>
        <time>2022-05-12T07:23:17Z</time>
      </trkpt>
      <trkpt lat="47.78978" lon="5.0572">
        <ele>331.37</ele>
        <time>2022-05-12T07:23:20Z</time>
      </trkpt>
      <trkpt lat="47.78981" lon="5.05717">
        <ele>331.18</ele>
        <time>2022-05-12T07:23:22Z</time>
      </trkpt>
      <trkpt lat="47.78983" lon="5.05712">
        <ele>331.27</ele>
        <time>2022-05-12T07:23:26Z</time>
      </trkpt>
      <trkpt lat="47.78987" lon="5.05704">
        <ele>331.14</ele>
        <time>2022-05-12T07:23:32Z</time>
      </trkpt>
      <trkpt lat="47.78992" lon="5.05695">
        <ele>330.7</ele>
        <time>2022-05-12T07:23:38Z</time>
      </trkpt>
      <trkpt lat="47.78998" lon="5.05689">
        <ele>329.85</ele>
        <time>2022-05-12T07:23:41Z</time>
      </trkpt>
      <trkpt lat="47.79003" lon="5.05683">
        <ele>329.58</ele>
        <time>2022-05-12T07:23:47Z</time>
      </trkpt>
      <trkpt lat="47.79008" lon="5.05676">
        <ele>329.47</ele>
        <time>2022-05-12T07:23:52Z</time>
      </trkpt>
      <trkpt lat="47.79012" lon="5.05672">
        <ele>329.14</ele>
        <time>2022-05-12T07:23:56Z</time>
      </trkpt>
      <trkpt lat="47.79015" lon="5.0567">
        <ele>328.79</ele>
        <time>2022-05-12T07:23:59Z</time>
      </trkpt>
      <trkpt lat="47.79017" lon="5.05669">
        <ele>328.54</ele>
        <time>2022-05-12T07:24:00Z</time>
      </trkpt>
      <trkpt lat="47.7902" lon="5.05667">
        <ele>328.12</ele>
        <time>2022-05-12T07:24:03Z</time>
      </trkpt>
      <trkpt lat="47.79023" lon="5.05665">
        <ele>327.82</ele>
        <time>2022-05-12T07:24:05Z</time>
      </trkpt>
      <trkpt lat="47.79029" lon="5.05663">
        <ele>327.21</ele>
        <time>2022-05-12T07:24:09Z</time>
      </trkpt>
      <trkpt lat="47.79034" lon="5.05659">
        <ele>327.27</ele>
        <time>2022-05-12T07:24:14Z</time>
      </trkpt>
      <trkpt lat="47.79037" lon="5.05657">
        <ele>327.25</ele>
        <time>2022-05-12T07:24:16Z</time>
      </trkpt>
      <trkpt lat="47.79042" lon="5.05656">
        <ele>327.06</ele>
        <time>2022-05-12T07:24:19Z</time>
      </trkpt>
      <trkpt lat="47.79048" lon="5.05653">
        <ele>326.9</ele>
        <time>2022-05-12T07:24:24Z</time>
      </trkpt>
      <trkpt lat="47.79053" lon="5.05649">
        <ele>326.79</ele>
        <time>2022-05-12T07:24:28Z</time>
      </trkpt>
      <trkpt lat="47.79059" lon="5.05647">
        <ele>326.34</ele>
        <time>2022-05-12T07:24:33Z</time>
      </trkpt>
      <trkpt lat="47.79063" lon="5.05645">
        <ele>325.98</ele>
        <time>2022-05-12T07:24:35Z</time>
      </trkpt>
      <trkpt lat="47.79066" lon="5.05644">
        <ele>325.69</ele>
        <time>2022-05-12T07:24:38Z</time>
      </trkpt>
      <trkpt lat="47.79068" lon="5.05642">
        <ele>325.54</ele>
        <time>2022-05-12T07:24:40Z</time>
      </trkpt>
      <trkpt lat="47.79071" lon="5.05639">
        <ele>325.33</ele>
        <time>2022-05-12T07:24:43Z</time>
      </trkpt>
      <trkpt lat="47.79073" lon="5.05637">
        <ele>325.38</ele>
        <time>2022-05-12T07:24:45Z</time>
      </trkpt>
      <trkpt lat="47.79078" lon="5.05635">
        <ele>325.2</ele>
        <time>2022-05-12T07:24:48Z</time>
      </trkpt>
      <trkpt lat="47.79083" lon="5.05633">
        <ele>325.09</ele>
        <time>2022-05-12T07:24:52Z</time>
      </trkpt>
      <trkpt lat="47.79087" lon="5.05632">
        <ele>325.17</ele>
        <time>2022-05-12T07:24:55Z</time>
      </trkpt>
      <trkpt lat="47.79089" lon="5.05631">
        <ele>325.3</ele>
        <time>2022-05-12T07:24:57Z</time>
      </trkpt>
      <trkpt lat="47.79092" lon="5.05629">
        <ele>325.56</ele>
        <time>2022-05-12T07:24:59Z</time>
      </trkpt>
      <trkpt lat="47.79097" lon="5.05628">
        <ele>325.57</ele>
        <time>2022-05-12T07:25:03Z</time>
      </trkpt>
      <trkpt lat="47.79101" lon="5.05628">
        <ele>325.46</ele>
        <time>2022-05-12T07:25:06Z</time>
      </trkpt>
      <trkpt lat="47.79104" lon="5.05627">
        <ele>325.5</ele>
        <time>2022-05-12T07:25:08Z</time>
      </trkpt>
      <trkpt lat="47.79109" lon="5.05627">
        <ele>325.35</ele>
        <time>2022-05-12T07:25:12Z</time>
      </trkpt>
      <trkpt lat="47.79113" lon="5.05627">
        <ele>325.31</ele>
        <time>2022-05-12T07:25:16Z</time>
      </trkpt>
      <trkpt lat="47.79116" lon="5.05628">
        <ele>325.24</ele>
        <time>2022-05-12T07:25:18Z</time>
      </trkpt>
      <trkpt lat="47.79119" lon="5.0563">
        <ele>325.05</ele>
        <time>2022-05-12T07:25:20Z</time>
      </trkpt>
      <trkpt lat="47.79121" lon="5.05631">
        <ele>324.95</ele>
        <time>2022-05-12T07:25:22Z</time>
      </trkpt>
      <trkpt lat="47.79124" lon="5.05632">
        <ele>324.86</ele>
        <time>2022-05-12T07:25:24Z</time>
      </trkpt>
      <trkpt lat="47.79127" lon="5.05633">
        <ele>324.76</ele>
        <time>2022-05-12T07:25:26Z</time>
      </trkpt>
      <trkpt lat="47.7913" lon="5.05635">
        <ele>324.52</ele>
        <time>2022-05-12T07:25:29Z</time>
      </trkpt>
      <trkpt lat="47.79133" lon="5.05637">
        <ele>324.26</ele>
        <time>2022-05-12T07:25:32Z</time>
      </trkpt>
      <trkpt lat="47.79136" lon="5.05639">
        <ele>323.99</ele>
        <time>2022-05-12T07:25:34Z</time>
      </trkpt>
      <trkpt lat="47.79139" lon="5.05642">
        <ele>323.78</ele>
        <time>2022-05-12T07:25:37Z</time>
      </trkpt>
      <trkpt lat="47.79141" lon="5.05644">
        <ele>323.71</ele>
        <time>2022-05-12T07:25:39Z</time>
      </trkpt>
      <trkpt lat="47.79144" lon="5.05647">
        <ele>323.6</ele>
        <time>2022-05-12T07:25:43Z</time>
      </trkpt>
      <trkpt lat="47.79147" lon="5.05649">
        <ele>323.56</ele>
        <time>2022-05-12T07:25:44Z</time>
      </trkpt>
      <trkpt lat="47.7915" lon="5.05652">
        <ele>323.46</ele>
        <time>2022-05-12T07:25:48Z</time>
      </trkpt>
      <trkpt lat="47.79153" lon="5.05653">
        <ele>323.49</ele>
        <time>2022-05-12T07:25:50Z</time>
      </trkpt>
      <trkpt lat="47.79156" lon="5.05652">
        <ele>323.67</ele>
        <time>2022-05-12T07:25:54Z</time>
      </trkpt>
      <trkpt lat="47.79159" lon="5.05652">
        <ele>323.78</ele>
        <time>2022-05-12T07:26:38Z</time>
      </trkpt>
      <trkpt lat="47.79161" lon="5.05652">
        <ele>323.85</ele>
        <time>2022-05-12T07:27:44Z</time>
      </trkpt>
      <trkpt lat="47.79164" lon="5.0565">
        <ele>324.1</ele>
        <time>2022-05-12T07:27:52Z</time>
      </trkpt>
      <trkpt lat="47.79166" lon="5.05648">
        <ele>324.32</ele>
        <time>2022-05-12T07:28:06Z</time>
      </trkpt>
      <trkpt lat="47.7917" lon="5.05647">
        <ele>324.55</ele>
        <time>2022-05-12T07:28:08Z</time>
      </trkpt>
      <trkpt lat="47.79173" lon="5.05646">
        <ele>324.77</ele>
        <time>2022-05-12T07:28:10Z</time>
      </trkpt>
      <trkpt lat="47.79176" lon="5.05645">
        <ele>325.01</ele>
        <time>2022-05-12T07:28:13Z</time>
      </trkpt>
      <trkpt lat="47.79179" lon="5.05645">
        <ele>325.15</ele>
        <time>2022-05-12T07:28:15Z</time>
      </trkpt>
      <trkpt lat="47.79182" lon="5.05644">
        <ele>325.43</ele>
        <time>2022-05-12T07:28:17Z</time>
      </trkpt>
      <trkpt lat="47.79185" lon="5.05643">
        <ele>325.73</ele>
        <time>2022-05-12T07:28:21Z</time>
      </trkpt>
      <trkpt lat="47.79188" lon="5.05642">
        <ele>326.05</ele>
        <time>2022-05-12T07:28:22Z</time>
      </trkpt>
      <trkpt lat="47.79191" lon="5.05641">
        <ele>326.4</ele>
        <time>2022-05-12T07:28:25Z</time>
      </trkpt>
      <trkpt lat="47.79195" lon="5.05639">
        <ele>327.04</ele>
        <time>2022-05-12T07:28:29Z</time>
      </trkpt>
      <trkpt lat="47.79198" lon="5.05638">
        <ele>327.64</ele>
        <time>2022-05-12T07:28:32Z</time>
      </trkpt>
      <trkpt lat="47.792" lon="5.05636">
        <ele>328.41</ele>
        <time>2022-05-12T07:28:33Z</time>
      </trkpt>
      <trkpt lat="47.79203" lon="5.05636">
        <ele>328.72</ele>
        <time>2022-05-12T07:28:36Z</time>
      </trkpt>
      <trkpt lat="47.79207" lon="5.05634">
        <ele>329.68</ele>
        <time>2022-05-12T07:28:40Z</time>
      </trkpt>
      <trkpt lat="47.7921" lon="5.05633">
        <ele>330.26</ele>
        <time>2022-05-12T07:28:42Z</time>
      </trkpt>
      <trkpt lat="47.79212" lon="5.05633">
        <ele>330.46</ele>
        <time>2022-05-12T07:28:44Z</time>
      </trkpt>
      <trkpt lat="47.79215" lon="5.05632">
        <ele>331.02</ele>
        <time>2022-05-12T07:28:47Z</time>
      </trkpt>
      <trkpt lat="47.79219" lon="5.05632">
        <ele>331.42</ele>
        <time>2022-05-12T07:28:49Z</time>
      </trkpt>
      <trkpt lat="47.79222" lon="5.05632">
        <ele>331.71</ele>
        <time>2022-05-12T07:28:50Z</time>
      </trkpt>
      <trkpt lat="47.79225" lon="5.05631">
        <ele>331.93</ele>
        <time>2022-05-12T07:28:53Z</time>
      </trkpt>
      <trkpt lat="47.79227" lon="5.05631">
        <ele>331.89</ele>
        <time>2022-05-12T07:28:55Z</time>
      </trkpt>
      <trkpt lat="47.7923" lon="5.0563">
        <ele>332.06</ele>
        <time>2022-05-12T07:28:57Z</time>
      </trkpt>
      <trkpt lat="47.79233" lon="5.05629">
        <ele>332.22</ele>
        <time>2022-05-12T07:29:00Z</time>
      </trkpt>
      <trkpt lat="47.79237" lon="5.05628">
        <ele>332.33</ele>
        <time>2022-05-12T07:29:02Z</time>
      </trkpt>
      <trkpt lat="47.79239" lon="5.05627">
        <ele>332.48</ele>
        <time>2022-05-12T07:29:04Z</time>
      </trkpt>
      <trkpt lat="47.79242" lon="5.05625">
        <ele>332.79</ele>
        <time>2022-05-12T07:29:06Z</time>
      </trkpt>
      <trkpt lat="47.79244" lon="5.05624">
        <ele>332.91</ele>
        <time>2022-05-12T07:29:07Z</time>
      </trkpt>
      <trkpt lat="47.79248" lon="5.05623">
        <ele>332.94</ele>
        <time>2022-05-12T07:29:09Z</time>
      </trkpt>
      <trkpt lat="47.79251" lon="5.05622">
        <ele>333.12</ele>
        <time>2022-05-12T07:29:11Z</time>
      </trkpt>
      <trkpt lat="47.79254" lon="5.05621">
        <ele>333.53</ele>
        <time>2022-05-12T07:29:13Z</time>
      </trkpt>
      <trkpt lat="47.79258" lon="5.05621">
        <ele>333.84</ele>
        <time>2022-05-12T07:29:15Z</time>
      </trkpt>
      <trkpt lat="47.79261" lon="5.05621">
        <ele>334.07</ele>
        <time>2022-05-12T07:29:18Z</time>
      </trkpt>
      <trkpt lat="47.79264" lon="5.0562">
        <ele>334.37</ele>
        <time>2022-05-12T07:29:19Z</time>
      </trkpt>
      <trkpt lat="47.79267" lon="5.05619">
        <ele>334.62</ele>
        <time>2022-05-12T07:29:21Z</time>
      </trkpt>
      <trkpt lat="47.7927" lon="5.05618">
        <ele>334.83</ele>
        <time>2022-05-12T07:29:24Z</time>
      </trkpt>
      <trkpt lat="47.79273" lon="5.05616">
        <ele>334.99</ele>
        <time>2022-05-12T07:29:26Z</time>
      </trkpt>
      <trkpt lat="47.79276" lon="5.05614">
        <ele>335.06</ele>
        <time>2022-05-12T07:29:29Z</time>
      </trkpt>
      <trkpt lat="47.79279" lon="5.05613">
        <ele>335.05</ele>
        <time>2022-05-12T07:29:32Z</time>
      </trkpt>
      <trkpt lat="47.79281" lon="5.05611">
        <ele>335</ele>
        <time>2022-05-12T07:29:34Z</time>
      </trkpt>
      <trkpt lat="47.79284" lon="5.0561">
        <ele>334.96</ele>
        <time>2022-05-12T07:29:36Z</time>
      </trkpt>
      <trkpt lat="47.79287" lon="5.05608">
        <ele>334.89</ele>
        <time>2022-05-12T07:29:41Z</time>
      </trkpt>
      <trkpt lat="47.7929" lon="5.05606">
        <ele>334.82</ele>
        <time>2022-05-12T07:29:45Z</time>
      </trkpt>
      <trkpt lat="47.79293" lon="5.05605">
        <ele>334.78</ele>
        <time>2022-05-12T07:29:48Z</time>
      </trkpt>
      <trkpt lat="47.79296" lon="5.05603">
        <ele>334.71</ele>
        <time>2022-05-12T07:29:51Z</time>
      </trkpt>
      <trkpt lat="47.79299" lon="5.05602">
        <ele>334.67</ele>
        <time>2022-05-12T07:29:53Z</time>
      </trkpt>
      <trkpt lat="47.79302" lon="5.05601">
        <ele>334.64</ele>
        <time>2022-05-12T07:29:56Z</time>
      </trkpt>
      <trkpt lat="47.79306" lon="5.05599">
        <ele>334.55</ele>
        <time>2022-05-12T07:29:59Z</time>
      </trkpt>
      <trkpt lat="47.79309" lon="5.05598">
        <ele>334.36</ele>
        <time>2022-05-12T07:30:01Z</time>
      </trkpt>
      <trkpt lat="47.79312" lon="5.05597">
        <ele>334.13</ele>
        <time>2022-05-12T07:30:04Z</time>
      </trkpt>
      <trkpt lat="47.79315" lon="5.05597">
        <ele>333.97</ele>
        <time>2022-05-12T07:30:06Z</time>
      </trkpt>
      <trkpt lat="47.79319" lon="5.05597">
        <ele>333.75</ele>
        <time>2022-05-12T07:30:09Z</time>
      </trkpt>
      <trkpt lat="47.79322" lon="5.05597">
        <ele>333.58</ele>
        <time>2022-05-12T07:30:11Z</time>
      </trkpt>
      <trkpt lat="47.79326" lon="5.05597">
        <ele>333.36</ele>
        <time>2022-05-12T07:30:13Z</time>
      </trkpt>
      <trkpt lat="47.79329" lon="5.05596">
        <ele>333</ele>
        <time>2022-05-12T07:30:16Z</time>
      </trkpt>
      <trkpt lat="47.79332" lon="5.05596">
        <ele>332.82</ele>
        <time>2022-05-12T07:30:18Z</time>
      </trkpt>
      <trkpt lat="47.79335" lon="5.05595">
        <ele>332.96</ele>
        <time>2022-05-12T07:30:20Z</time>
      </trkpt>
      <trkpt lat="47.79338" lon="5.05594">
        <ele>333.61</ele>
        <time>2022-05-12T07:30:22Z</time>
      </trkpt>
      <trkpt lat="47.79341" lon="5.05594">
        <ele>334.45</ele>
        <time>2022-05-12T07:30:26Z</time>
      </trkpt>
      <trkpt lat="47.79344" lon="5.05593">
        <ele>335.23</ele>
        <time>2022-05-12T07:30:28Z</time>
      </trkpt>
      <trkpt lat="47.79347" lon="5.05591">
        <ele>336.07</ele>
        <time>2022-05-12T07:30:31Z</time>
      </trkpt>
      <trkpt lat="47.7935" lon="5.0559">
        <ele>337.06</ele>
        <time>2022-05-12T07:30:33Z</time>
      </trkpt>
      <trkpt lat="47.79353" lon="5.05589">
        <ele>338.13</ele>
        <time>2022-05-12T07:30:35Z</time>
      </trkpt>
      <trkpt lat="47.79356" lon="5.05588">
        <ele>339.29</ele>
        <time>2022-05-12T07:30:38Z</time>
      </trkpt>
      <trkpt lat="47.79359" lon="5.05587">
        <ele>340.54</ele>
        <time>2022-05-12T07:30:40Z</time>
      </trkpt>
      <trkpt lat="47.79362" lon="5.05587">
        <ele>341.2</ele>
        <time>2022-05-12T07:30:43Z</time>
      </trkpt>
      <trkpt lat="47.79365" lon="5.05586">
        <ele>340.87</ele>
        <time>2022-05-12T07:30:45Z</time>
      </trkpt>
      <trkpt lat="47.79368" lon="5.05586">
        <ele>340.38</ele>
        <time>2022-05-12T07:30:47Z</time>
      </trkpt>
      <trkpt lat="47.79372" lon="5.05586">
        <ele>339.71</ele>
        <time>2022-05-12T07:30:49Z</time>
      </trkpt>
      <trkpt lat="47.79375" lon="5.05587">
        <ele>339.1</ele>
        <time>2022-05-12T07:30:51Z</time>
      </trkpt>
      <trkpt lat="47.79379" lon="5.05587">
        <ele>338.46</ele>
        <time>2022-05-12T07:30:54Z</time>
      </trkpt>
      <trkpt lat="47.79385" lon="5.05586">
        <ele>337.55</ele>
        <time>2022-05-12T07:30:57Z</time>
      </trkpt>
      <trkpt lat="47.79389" lon="5.05586">
        <ele>336.92</ele>
        <time>2022-05-12T07:31:00Z</time>
      </trkpt>
      <trkpt lat="47.79396" lon="5.05587">
        <ele>338.08</ele>
        <time>2022-05-12T07:31:03Z</time>
      </trkpt>
      <trkpt lat="47.79401" lon="5.05587">
        <ele>338.93</ele>
        <time>2022-05-12T07:31:07Z</time>
      </trkpt>
      <trkpt lat="47.79406" lon="5.05587">
        <ele>339.79</ele>
        <time>2022-05-12T07:31:10Z</time>
      </trkpt>
      <trkpt lat="47.79409" lon="5.05587">
        <ele>340.3</ele>
        <time>2022-05-12T07:31:12Z</time>
      </trkpt>
      <trkpt lat="47.79412" lon="5.05588">
        <ele>340.71</ele>
        <time>2022-05-12T07:31:14Z</time>
      </trkpt>
      <trkpt lat="47.79415" lon="5.05588">
        <ele>341.22</ele>
        <time>2022-05-12T07:31:17Z</time>
      </trkpt>
      <trkpt lat="47.79419" lon="5.05589">
        <ele>341.62</ele>
        <time>2022-05-12T07:31:20Z</time>
      </trkpt>
      <trkpt lat="47.79424" lon="5.0559">
        <ele>341.96</ele>
        <time>2022-05-12T07:31:24Z</time>
      </trkpt>
      <trkpt lat="47.79429" lon="5.0559">
        <ele>342.42</ele>
        <time>2022-05-12T07:31:28Z</time>
      </trkpt>
      <trkpt lat="47.79432" lon="5.0559">
        <ele>342.69</ele>
        <time>2022-05-12T07:31:30Z</time>
      </trkpt>
      <trkpt lat="47.79436" lon="5.05591">
        <ele>342.8</ele>
        <time>2022-05-12T07:31:34Z</time>
      </trkpt>
      <trkpt lat="47.79439" lon="5.05593">
        <ele>342.49</ele>
        <time>2022-05-12T07:31:37Z</time>
      </trkpt>
      <trkpt lat="47.79442" lon="5.05594">
        <ele>342.39</ele>
        <time>2022-05-12T07:31:40Z</time>
      </trkpt>
      <trkpt lat="47.79445" lon="5.05595">
        <ele>342.27</ele>
        <time>2022-05-12T07:31:42Z</time>
      </trkpt>
      <trkpt lat="47.79448" lon="5.05595">
        <ele>342.54</ele>
        <time>2022-05-12T07:31:44Z</time>
      </trkpt>
      <trkpt lat="47.79451" lon="5.05595">
        <ele>342.81</ele>
        <time>2022-05-12T07:31:47Z</time>
      </trkpt>
      <trkpt lat="47.79454" lon="5.05594">
        <ele>343.34</ele>
        <time>2022-05-12T07:31:49Z</time>
      </trkpt>
      <trkpt lat="47.79458" lon="5.05594">
        <ele>343.67</ele>
        <time>2022-05-12T07:31:52Z</time>
      </trkpt>
      <trkpt lat="47.79461" lon="5.05595">
        <ele>343.72</ele>
        <time>2022-05-12T07:31:54Z</time>
      </trkpt>
      <trkpt lat="47.79468" lon="5.05597">
        <ele>344.08</ele>
        <time>2022-05-12T07:31:58Z</time>
      </trkpt>
      <trkpt lat="47.79478" lon="5.05599">
        <ele>345.23</ele>
        <time>2022-05-12T07:32:02Z</time>
      </trkpt>
      <trkpt lat="47.79485" lon="5.05602">
        <ele>345.97</ele>
        <time>2022-05-12T07:32:05Z</time>
      </trkpt>
      <trkpt lat="47.79491" lon="5.05603">
        <ele>346.78</ele>
        <time>2022-05-12T07:32:08Z</time>
      </trkpt>
      <trkpt lat="47.79496" lon="5.05605">
        <ele>347.27</ele>
        <time>2022-05-12T07:32:12Z</time>
      </trkpt>
      <trkpt lat="47.795" lon="5.05607">
        <ele>347.59</ele>
        <time>2022-05-12T07:32:15Z</time>
      </trkpt>
      <trkpt lat="47.79505" lon="5.05609">
        <ele>347.66</ele>
        <time>2022-05-12T07:32:18Z</time>
      </trkpt>
      <trkpt lat="47.79512" lon="5.05612">
        <ele>347.69</ele>
        <time>2022-05-12T07:32:22Z</time>
      </trkpt>
      <trkpt lat="47.79515" lon="5.05613">
        <ele>347.7</ele>
        <time>2022-05-12T07:32:23Z</time>
      </trkpt>
      <trkpt lat="47.79518" lon="5.05613">
        <ele>347.91</ele>
        <time>2022-05-12T07:32:26Z</time>
      </trkpt>
      <trkpt lat="47.79521" lon="5.05614">
        <ele>347.91</ele>
        <time>2022-05-12T07:32:28Z</time>
      </trkpt>
      <trkpt lat="47.79524" lon="5.05616">
        <ele>347.7</ele>
        <time>2022-05-12T07:32:30Z</time>
      </trkpt>
      <trkpt lat="47.79526" lon="5.05618">
        <ele>347.4</ele>
        <time>2022-05-12T07:32:32Z</time>
      </trkpt>
      <trkpt lat="47.7953" lon="5.0562">
        <ele>347.36</ele>
        <time>2022-05-12T07:32:35Z</time>
      </trkpt>
      <trkpt lat="47.79533" lon="5.05621">
        <ele>347.46</ele>
        <time>2022-05-12T07:32:37Z</time>
      </trkpt>
      <trkpt lat="47.79536" lon="5.05622">
        <ele>347.5</ele>
        <time>2022-05-12T07:32:39Z</time>
      </trkpt>
      <trkpt lat="47.79539" lon="5.05622">
        <ele>347.81</ele>
        <time>2022-05-12T07:32:42Z</time>
      </trkpt>
      <trkpt lat="47.79542" lon="5.05623">
        <ele>347.75</ele>
        <time>2022-05-12T07:32:44Z</time>
      </trkpt>
      <trkpt lat="47.79546" lon="5.05625">
        <ele>347.31</ele>
        <time>2022-05-12T07:32:46Z</time>
      </trkpt>
      <trkpt lat="47.79552" lon="5.05627">
        <ele>346.81</ele>
        <time>2022-05-12T07:32:50Z</time>
      </trkpt>
      <trkpt lat="47.79556" lon="5.05629">
        <ele>345.92</ele>
        <time>2022-05-12T07:32:53Z</time>
      </trkpt>
      <trkpt lat="47.7956" lon="5.0563">
        <ele>344.83</ele>
        <time>2022-05-12T07:32:55Z</time>
      </trkpt>
      <trkpt lat="47.79564" lon="5.05631">
        <ele>343.72</ele>
        <time>2022-05-12T07:32:58Z</time>
      </trkpt>
      <trkpt lat="47.79566" lon="5.05633">
        <ele>342.33</ele>
        <time>2022-05-12T07:32:59Z</time>
      </trkpt>
      <trkpt lat="47.79569" lon="5.05634">
        <ele>341.3</ele>
        <time>2022-05-12T07:33:01Z</time>
      </trkpt>
      <trkpt lat="47.79572" lon="5.05636">
        <ele>339.68</ele>
        <time>2022-05-12T07:33:04Z</time>
      </trkpt>
      <trkpt lat="47.79575" lon="5.05637">
        <ele>338.59</ele>
        <time>2022-05-12T07:33:05Z</time>
      </trkpt>
      <trkpt lat="47.7958" lon="5.05637">
        <ele>337.73</ele>
        <time>2022-05-12T07:33:09Z</time>
      </trkpt>
      <trkpt lat="47.79586" lon="5.05638">
        <ele>336.71</ele>
        <time>2022-05-12T07:33:12Z</time>
      </trkpt>
      <trkpt lat="47.79592" lon="5.05638">
        <ele>337.1</ele>
        <time>2022-05-12T07:33:17Z</time>
      </trkpt>
      <trkpt lat="47.79598" lon="5.0564">
        <ele>336.81</ele>
        <time>2022-05-12T07:33:20Z</time>
      </trkpt>
      <trkpt lat="47.79603" lon="5.05641">
        <ele>336.87</ele>
        <time>2022-05-12T07:33:23Z</time>
      </trkpt>
      <trkpt lat="47.79608" lon="5.05643">
        <ele>336.54</ele>
        <time>2022-05-12T07:33:27Z</time>
      </trkpt>
      <trkpt lat="47.79611" lon="5.05644">
        <ele>336.34</ele>
        <time>2022-05-12T07:33:29Z</time>
      </trkpt>
      <trkpt lat="47.79614" lon="5.05645">
        <ele>336.27</ele>
        <time>2022-05-12T07:33:31Z</time>
      </trkpt>
      <trkpt lat="47.79617" lon="5.05646">
        <ele>336.23</ele>
        <time>2022-05-12T07:33:34Z</time>
      </trkpt>
      <trkpt lat="47.7962" lon="5.05647">
        <ele>336.2</ele>
        <time>2022-05-12T07:33:36Z</time>
      </trkpt>
      <trkpt lat="47.79625" lon="5.05648">
        <ele>336.38</ele>
        <time>2022-05-12T07:33:39Z</time>
      </trkpt>
      <trkpt lat="47.79628" lon="5.05649">
        <ele>336.38</ele>
        <time>2022-05-12T07:33:41Z</time>
      </trkpt>
      <trkpt lat="47.79632" lon="5.05649">
        <ele>336.78</ele>
        <time>2022-05-12T07:33:44Z</time>
      </trkpt>
      <trkpt lat="47.79637" lon="5.0565">
        <ele>337.01</ele>
        <time>2022-05-12T07:33:47Z</time>
      </trkpt>
      <trkpt lat="47.79642" lon="5.05651">
        <ele>337.7</ele>
        <time>2022-05-12T07:33:51Z</time>
      </trkpt>
      <trkpt lat="47.79645" lon="5.05652">
        <ele>338.21</ele>
        <time>2022-05-12T07:33:53Z</time>
      </trkpt>
      <trkpt lat="47.79648" lon="5.05653">
        <ele>338.75</ele>
        <time>2022-05-12T07:33:55Z</time>
      </trkpt>
      <trkpt lat="47.79652" lon="5.05654">
        <ele>339.58</ele>
        <time>2022-05-12T07:33:58Z</time>
      </trkpt>
      <trkpt lat="47.79655" lon="5.05654">
        <ele>340.35</ele>
        <time>2022-05-12T07:34:00Z</time>
      </trkpt>
      <trkpt lat="47.79661" lon="5.05654">
        <ele>341.9</ele>
        <time>2022-05-12T07:34:03Z</time>
      </trkpt>
      <trkpt lat="47.79666" lon="5.05655">
        <ele>343.08</ele>
        <time>2022-05-12T07:34:07Z</time>
      </trkpt>
      <trkpt lat="47.79671" lon="5.05656">
        <ele>344.09</ele>
        <time>2022-05-12T07:34:11Z</time>
      </trkpt>
      <trkpt lat="47.79678" lon="5.05656">
        <ele>345.6</ele>
        <time>2022-05-12T07:34:15Z</time>
      </trkpt>
      <trkpt lat="47.79683" lon="5.05656">
        <ele>346.68</ele>
        <time>2022-05-12T07:34:18Z</time>
      </trkpt>
      <trkpt lat="47.79688" lon="5.05656">
        <ele>347.76</ele>
        <time>2022-05-12T07:34:22Z</time>
      </trkpt>
      <trkpt lat="47.79692" lon="5.05655">
        <ele>348.73</ele>
        <time>2022-05-12T07:34:26Z</time>
      </trkpt>
      <trkpt lat="47.79695" lon="5.05656">
        <ele>349.21</ele>
        <time>2022-05-12T07:34:28Z</time>
      </trkpt>
      <trkpt lat="47.79698" lon="5.05656">
        <ele>349.52</ele>
        <time>2022-05-12T07:34:30Z</time>
      </trkpt>
      <trkpt lat="47.79701" lon="5.05656">
        <ele>349.82</ele>
        <time>2022-05-12T07:34:32Z</time>
      </trkpt>
      <trkpt lat="47.79706" lon="5.05657">
        <ele>350.27</ele>
        <time>2022-05-12T07:34:35Z</time>
      </trkpt>
      <trkpt lat="47.79711" lon="5.05657">
        <ele>350.81</ele>
        <time>2022-05-12T07:34:38Z</time>
      </trkpt>
      <trkpt lat="47.79716" lon="5.05657">
        <ele>351.34</ele>
        <time>2022-05-12T07:34:42Z</time>
      </trkpt>
      <trkpt lat="47.79719" lon="5.05658">
        <ele>351.64</ele>
        <time>2022-05-12T07:34:44Z</time>
      </trkpt>
      <trkpt lat="47.79724" lon="5.05658">
        <ele>352.08</ele>
        <time>2022-05-12T07:34:47Z</time>
      </trkpt>
      <trkpt lat="47.79729" lon="5.05659">
        <ele>352.31</ele>
        <time>2022-05-12T07:34:50Z</time>
      </trkpt>
      <trkpt lat="47.79734" lon="5.05659">
        <ele>352.54</ele>
        <time>2022-05-12T07:34:54Z</time>
      </trkpt>
      <trkpt lat="47.79739" lon="5.0566">
        <ele>352.75</ele>
        <time>2022-05-12T07:34:58Z</time>
      </trkpt>
      <trkpt lat="47.79745" lon="5.05661">
        <ele>352.99</ele>
        <time>2022-05-12T07:35:01Z</time>
      </trkpt>
      <trkpt lat="47.79749" lon="5.05663">
        <ele>353.09</ele>
        <time>2022-05-12T07:35:05Z</time>
      </trkpt>
      <trkpt lat="47.79755" lon="5.05664">
        <ele>353.47</ele>
        <time>2022-05-12T07:35:09Z</time>
      </trkpt>
      <trkpt lat="47.79761" lon="5.05666">
        <ele>353.83</ele>
        <time>2022-05-12T07:35:14Z</time>
      </trkpt>
      <trkpt lat="47.79767" lon="5.05668">
        <ele>354</ele>
        <time>2022-05-12T07:35:18Z</time>
      </trkpt>
      <trkpt lat="47.79772" lon="5.0567">
        <ele>354.01</ele>
        <time>2022-05-12T07:35:22Z</time>
      </trkpt>
      <trkpt lat="47.79778" lon="5.05673">
        <ele>353.86</ele>
        <time>2022-05-12T07:35:25Z</time>
      </trkpt>
      <trkpt lat="47.79783" lon="5.05676">
        <ele>353.26</ele>
        <time>2022-05-12T07:35:30Z</time>
      </trkpt>
      <trkpt lat="47.79788" lon="5.05677">
        <ele>353.05</ele>
        <time>2022-05-12T07:35:34Z</time>
      </trkpt>
      <trkpt lat="47.79794" lon="5.05679">
        <ele>352.71</ele>
        <time>2022-05-12T07:35:37Z</time>
      </trkpt>
      <trkpt lat="47.79799" lon="5.05681">
        <ele>352.44</ele>
        <time>2022-05-12T07:35:41Z</time>
      </trkpt>
      <trkpt lat="47.79802" lon="5.05682">
        <ele>352.33</ele>
        <time>2022-05-12T07:35:43Z</time>
      </trkpt>
      <trkpt lat="47.79806" lon="5.05683">
        <ele>352.21</ele>
        <time>2022-05-12T07:35:46Z</time>
      </trkpt>
      <trkpt lat="47.79809" lon="5.05685">
        <ele>351.81</ele>
        <time>2022-05-12T07:35:49Z</time>
      </trkpt>
      <trkpt lat="47.79812" lon="5.05687">
        <ele>351.45</ele>
        <time>2022-05-12T07:35:52Z</time>
      </trkpt>
      <trkpt lat="47.79815" lon="5.05689">
        <ele>351.11</ele>
        <time>2022-05-12T07:35:53Z</time>
      </trkpt>
      <trkpt lat="47.79818" lon="5.05691">
        <ele>350.81</ele>
        <time>2022-05-12T07:35:55Z</time>
      </trkpt>
      <trkpt lat="47.79823" lon="5.05693">
        <ele>350.46</ele>
        <time>2022-05-12T07:35:58Z</time>
      </trkpt>
      <trkpt lat="47.79828" lon="5.05695">
        <ele>350.13</ele>
        <time>2022-05-12T07:36:02Z</time>
      </trkpt>
      <trkpt lat="47.79832" lon="5.05699">
        <ele>349.68</ele>
        <time>2022-05-12T07:36:05Z</time>
      </trkpt>
      <trkpt lat="47.79837" lon="5.05701">
        <ele>349.56</ele>
        <time>2022-05-12T07:36:09Z</time>
      </trkpt>
      <trkpt lat="47.79842" lon="5.05703">
        <ele>349.48</ele>
        <time>2022-05-12T07:36:13Z</time>
      </trkpt>
      <trkpt lat="47.79847" lon="5.05705">
        <ele>349.43</ele>
        <time>2022-05-12T07:36:15Z</time>
      </trkpt>
      <trkpt lat="47.79852" lon="5.05707">
        <ele>349.4</ele>
        <time>2022-05-12T07:36:18Z</time>
      </trkpt>
      <trkpt lat="47.79856" lon="5.05709">
        <ele>349.38</ele>
        <time>2022-05-12T07:36:22Z</time>
      </trkpt>
      <trkpt lat="47.79861" lon="5.05711">
        <ele>349.4</ele>
        <time>2022-05-12T07:36:26Z</time>
      </trkpt>
      <trkpt lat="47.79866" lon="5.05713">
        <ele>348.63</ele>
        <time>2022-05-12T07:36:30Z</time>
      </trkpt>
      <trkpt lat="47.7987" lon="5.05715">
        <ele>348.05</ele>
        <time>2022-05-12T07:36:32Z</time>
      </trkpt>
      <trkpt lat="47.79873" lon="5.05715">
        <ele>347.64</ele>
        <time>2022-05-12T07:36:35Z</time>
      </trkpt>
      <trkpt lat="47.79878" lon="5.05717">
        <ele>347.02</ele>
        <time>2022-05-12T07:36:39Z</time>
      </trkpt>
      <trkpt lat="47.79883" lon="5.05718">
        <ele>346.43</ele>
        <time>2022-05-12T07:36:42Z</time>
      </trkpt>
      <trkpt lat="47.79886" lon="5.05721">
        <ele>346.24</ele>
        <time>2022-05-12T07:36:47Z</time>
      </trkpt>
      <trkpt lat="47.79885" lon="5.05725">
        <ele>346.19</ele>
        <time>2022-05-12T07:36:49Z</time>
      </trkpt>
      <trkpt lat="47.79887" lon="5.05722">
        <ele>346.19</ele>
        <time>2022-05-12T07:36:56Z</time>
      </trkpt>
      <trkpt lat="47.7989" lon="5.05723">
        <ele>345.87</ele>
        <time>2022-05-12T07:36:58Z</time>
      </trkpt>
      <trkpt lat="47.79895" lon="5.05723">
        <ele>345.52</ele>
        <time>2022-05-12T07:37:02Z</time>
      </trkpt>
      <trkpt lat="47.79899" lon="5.05722">
        <ele>345.26</ele>
        <time>2022-05-12T07:37:05Z</time>
      </trkpt>
      <trkpt lat="47.79902" lon="5.05721">
        <ele>345.03</ele>
        <time>2022-05-12T07:37:07Z</time>
      </trkpt>
      <trkpt lat="47.79905" lon="5.05722">
        <ele>344.84</ele>
        <time>2022-05-12T07:37:10Z</time>
      </trkpt>
      <trkpt lat="47.79908" lon="5.05725">
        <ele>344.56</ele>
        <time>2022-05-12T07:37:12Z</time>
      </trkpt>
      <trkpt lat="47.79911" lon="5.05727">
        <ele>344.34</ele>
        <time>2022-05-12T07:37:13Z</time>
      </trkpt>
      <trkpt lat="47.79914" lon="5.05728">
        <ele>344.15</ele>
        <time>2022-05-12T07:37:16Z</time>
      </trkpt>
      <trkpt lat="47.79918" lon="5.0573">
        <ele>343.89</ele>
        <time>2022-05-12T07:37:18Z</time>
      </trkpt>
      <trkpt lat="47.79923" lon="5.05732">
        <ele>343.46</ele>
        <time>2022-05-12T07:37:22Z</time>
      </trkpt>
      <trkpt lat="47.79928" lon="5.05734">
        <ele>343.01</ele>
        <time>2022-05-12T07:37:26Z</time>
      </trkpt>
      <trkpt lat="47.79933" lon="5.05736">
        <ele>342.53</ele>
        <time>2022-05-12T07:37:30Z</time>
      </trkpt>
      <trkpt lat="47.79938" lon="5.05737">
        <ele>342.06</ele>
        <time>2022-05-12T07:37:33Z</time>
      </trkpt>
      <trkpt lat="47.79944" lon="5.05739">
        <ele>341.44</ele>
        <time>2022-05-12T07:37:36Z</time>
      </trkpt>
      <trkpt lat="47.79949" lon="5.05741">
        <ele>341.16</ele>
        <time>2022-05-12T07:37:41Z</time>
      </trkpt>
      <trkpt lat="47.79955" lon="5.05744">
        <ele>340.84</ele>
        <time>2022-05-12T07:37:45Z</time>
      </trkpt>
      <trkpt lat="47.79962" lon="5.05745">
        <ele>340.55</ele>
        <time>2022-05-12T07:37:50Z</time>
      </trkpt>
      <trkpt lat="47.79966" lon="5.05747">
        <ele>340.33</ele>
        <time>2022-05-12T07:37:53Z</time>
      </trkpt>
      <trkpt lat="47.79968" lon="5.05749">
        <ele>340.19</ele>
        <time>2022-05-12T07:37:55Z</time>
      </trkpt>
      <trkpt lat="47.79974" lon="5.05751">
        <ele>339.68</ele>
        <time>2022-05-12T07:37:59Z</time>
      </trkpt>
      <trkpt lat="47.79979" lon="5.05754">
        <ele>338.88</ele>
        <time>2022-05-12T07:38:03Z</time>
      </trkpt>
      <trkpt lat="47.79984" lon="5.05757">
        <ele>338.23</ele>
        <time>2022-05-12T07:38:07Z</time>
      </trkpt>
      <trkpt lat="47.79989" lon="5.05758">
        <ele>337.7</ele>
        <time>2022-05-12T07:38:11Z</time>
      </trkpt>
      <trkpt lat="47.79993" lon="5.0576">
        <ele>337.37</ele>
        <time>2022-05-12T07:38:14Z</time>
      </trkpt>
      <trkpt lat="47.79999" lon="5.05763">
        <ele>337.01</ele>
        <time>2022-05-12T07:38:17Z</time>
      </trkpt>
      <trkpt lat="47.80004" lon="5.05765">
        <ele>336.99</ele>
        <time>2022-05-12T07:38:22Z</time>
      </trkpt>
      <trkpt lat="47.80008" lon="5.05768">
        <ele>337.02</ele>
        <time>2022-05-12T07:38:25Z</time>
      </trkpt>
      <trkpt lat="47.80012" lon="5.05769">
        <ele>336.91</ele>
        <time>2022-05-12T07:38:28Z</time>
      </trkpt>
      <trkpt lat="47.80016" lon="5.05772">
        <ele>336.79</ele>
        <time>2022-05-12T07:38:32Z</time>
      </trkpt>
      <trkpt lat="47.80021" lon="5.05775">
        <ele>336.51</ele>
        <time>2022-05-12T07:38:35Z</time>
      </trkpt>
      <trkpt lat="47.80027" lon="5.05777">
        <ele>336.08</ele>
        <time>2022-05-12T07:38:39Z</time>
      </trkpt>
      <trkpt lat="47.80032" lon="5.05779">
        <ele>336.13</ele>
        <time>2022-05-12T07:38:43Z</time>
      </trkpt>
      <trkpt lat="47.80035" lon="5.0578">
        <ele>336.18</ele>
        <time>2022-05-12T07:38:45Z</time>
      </trkpt>
      <trkpt lat="47.80038" lon="5.05782">
        <ele>336.14</ele>
        <time>2022-05-12T07:38:47Z</time>
      </trkpt>
      <trkpt lat="47.80044" lon="5.05785">
        <ele>335.98</ele>
        <time>2022-05-12T07:38:52Z</time>
      </trkpt>
      <trkpt lat="47.80049" lon="5.05786">
        <ele>335.86</ele>
        <time>2022-05-12T07:38:56Z</time>
      </trkpt>
      <trkpt lat="47.80053" lon="5.05788">
        <ele>335.57</ele>
        <time>2022-05-12T07:38:59Z</time>
      </trkpt>
      <trkpt lat="47.80058" lon="5.05791">
        <ele>335.23</ele>
        <time>2022-05-12T07:39:02Z</time>
      </trkpt>
      <trkpt lat="47.80064" lon="5.05795">
        <ele>335.01</ele>
        <time>2022-05-12T07:39:07Z</time>
      </trkpt>
      <trkpt lat="47.80069" lon="5.05799">
        <ele>334.8</ele>
        <time>2022-05-12T07:39:11Z</time>
      </trkpt>
      <trkpt lat="47.80075" lon="5.05802">
        <ele>334.82</ele>
        <time>2022-05-12T07:39:14Z</time>
      </trkpt>
      <trkpt lat="47.80079" lon="5.05803">
        <ele>334.98</ele>
        <time>2022-05-12T07:39:18Z</time>
      </trkpt>
      <trkpt lat="47.80083" lon="5.05804">
        <ele>335.14</ele>
        <time>2022-05-12T07:39:20Z</time>
      </trkpt>
      <trkpt lat="47.80086" lon="5.05805">
        <ele>335.54</ele>
        <time>2022-05-12T07:39:22Z</time>
      </trkpt>
      <trkpt lat="47.80089" lon="5.05807">
        <ele>335.95</ele>
        <time>2022-05-12T07:39:25Z</time>
      </trkpt>
      <trkpt lat="47.80094" lon="5.05811">
        <ele>336.75</ele>
        <time>2022-05-12T07:39:29Z</time>
      </trkpt>
      <trkpt lat="47.80096" lon="5.05812">
        <ele>337.13</ele>
        <time>2022-05-12T07:39:31Z</time>
      </trkpt>
      <trkpt lat="47.801" lon="5.05813">
        <ele>337.95</ele>
        <time>2022-05-12T07:39:33Z</time>
      </trkpt>
      <trkpt lat="47.80104" lon="5.05815">
        <ele>338.8</ele>
        <time>2022-05-12T07:39:36Z</time>
      </trkpt>
      <trkpt lat="47.80107" lon="5.05817">
        <ele>339.49</ele>
        <time>2022-05-12T07:39:39Z</time>
      </trkpt>
      <trkpt lat="47.80112" lon="5.0582">
        <ele>340.53</ele>
        <time>2022-05-12T07:39:42Z</time>
      </trkpt>
      <trkpt lat="47.80115" lon="5.05821">
        <ele>340.57</ele>
        <time>2022-05-12T07:39:46Z</time>
      </trkpt>
      <trkpt lat="47.80118" lon="5.05822">
        <ele>340.56</ele>
        <time>2022-05-12T07:39:48Z</time>
      </trkpt>
      <trkpt lat="47.80121" lon="5.05824">
        <ele>340.43</ele>
        <time>2022-05-12T07:39:50Z</time>
      </trkpt>
      <trkpt lat="47.80124" lon="5.05827">
        <ele>340.12</ele>
        <time>2022-05-12T07:39:53Z</time>
      </trkpt>
      <trkpt lat="47.80128" lon="5.05829">
        <ele>339.68</ele>
        <time>2022-05-12T07:39:57Z</time>
      </trkpt>
      <trkpt lat="47.80131" lon="5.05832">
        <ele>339.04</ele>
        <time>2022-05-12T07:39:59Z</time>
      </trkpt>
      <trkpt lat="47.80133" lon="5.05835">
        <ele>338.56</ele>
        <time>2022-05-12T07:40:02Z</time>
      </trkpt>
      <trkpt lat="47.80136" lon="5.05839">
        <ele>338.09</ele>
        <time>2022-05-12T07:40:05Z</time>
      </trkpt>
      <trkpt lat="47.80138" lon="5.0584">
        <ele>337.85</ele>
        <time>2022-05-12T07:40:07Z</time>
      </trkpt>
      <trkpt lat="47.80141" lon="5.05842">
        <ele>337.79</ele>
        <time>2022-05-12T07:40:09Z</time>
      </trkpt>
      <trkpt lat="47.80147" lon="5.05841">
        <ele>338.15</ele>
        <time>2022-05-12T07:40:13Z</time>
      </trkpt>
      <trkpt lat="47.80152" lon="5.05844">
        <ele>338.2</ele>
        <time>2022-05-12T07:40:17Z</time>
      </trkpt>
      <trkpt lat="47.80156" lon="5.05845">
        <ele>338.29</ele>
        <time>2022-05-12T07:40:20Z</time>
      </trkpt>
      <trkpt lat="47.8016" lon="5.05846">
        <ele>338.37</ele>
        <time>2022-05-12T07:40:23Z</time>
      </trkpt>
      <trkpt lat="47.80163" lon="5.05849">
        <ele>338.19</ele>
        <time>2022-05-12T07:40:25Z</time>
      </trkpt>
      <trkpt lat="47.80166" lon="5.05853">
        <ele>337.86</ele>
        <time>2022-05-12T07:40:28Z</time>
      </trkpt>
      <trkpt lat="47.80169" lon="5.05856">
        <ele>337.27</ele>
        <time>2022-05-12T07:40:31Z</time>
      </trkpt>
      <trkpt lat="47.80172" lon="5.05859">
        <ele>336.62</ele>
        <time>2022-05-12T07:40:34Z</time>
      </trkpt>
      <trkpt lat="47.80175" lon="5.0586">
        <ele>336.2</ele>
        <time>2022-05-12T07:40:36Z</time>
      </trkpt>
      <trkpt lat="47.80176" lon="5.05857">
        <ele>336.34</ele>
        <time>2022-05-12T07:40:55Z</time>
      </trkpt>
      <trkpt lat="47.80178" lon="5.05859">
        <ele>335.94</ele>
        <time>2022-05-12T07:43:51Z</time>
      </trkpt>
      <trkpt lat="47.80175" lon="5.05858">
        <ele>336.37</ele>
        <time>2022-05-12T07:44:19Z</time>
      </trkpt>
      <trkpt lat="47.80175" lon="5.05854">
        <ele>336.71</ele>
        <time>2022-05-12T07:44:38Z</time>
      </trkpt>
      <trkpt lat="47.80175" lon="5.05858">
        <ele>336.37</ele>
        <time>2022-05-12T07:45:01Z</time>
      </trkpt>
      <trkpt lat="47.80178" lon="5.05857">
        <ele>336.1</ele>
        <time>2022-05-12T07:46:16Z</time>
      </trkpt>
      <trkpt lat="47.80179" lon="5.05862">
        <ele>335.62</ele>
        <time>2022-05-12T07:47:05Z</time>
      </trkpt>
      <trkpt lat="47.80179" lon="5.05866">
        <ele>335.41</ele>
        <time>2022-05-12T07:47:10Z</time>
      </trkpt>
      <trkpt lat="47.80179" lon="5.05871">
        <ele>335.15</ele>
        <time>2022-05-12T07:47:12Z</time>
      </trkpt>
      <trkpt lat="47.80177" lon="5.05876">
        <ele>335.15</ele>
        <time>2022-05-12T07:47:14Z</time>
      </trkpt>
      <trkpt lat="47.80174" lon="5.0588">
        <ele>335.35</ele>
        <time>2022-05-12T07:47:16Z</time>
      </trkpt>
      <trkpt lat="47.80174" lon="5.05888">
        <ele>334.98</ele>
        <time>2022-05-12T07:47:20Z</time>
      </trkpt>
      <trkpt lat="47.80176" lon="5.05893">
        <ele>334.46</ele>
        <time>2022-05-12T07:47:24Z</time>
      </trkpt>
      <trkpt lat="47.80178" lon="5.05895">
        <ele>334.06</ele>
        <time>2022-05-12T07:47:26Z</time>
      </trkpt>
      <trkpt lat="47.8018" lon="5.05899">
        <ele>333.54</ele>
        <time>2022-05-12T07:47:29Z</time>
      </trkpt>
      <trkpt lat="47.80182" lon="5.05902">
        <ele>333.06</ele>
        <time>2022-05-12T07:47:31Z</time>
      </trkpt>
      <trkpt lat="47.80185" lon="5.05904">
        <ele>332.46</ele>
        <time>2022-05-12T07:47:35Z</time>
      </trkpt>
      <trkpt lat="47.80189" lon="5.05906">
        <ele>331.67</ele>
        <time>2022-05-12T07:47:38Z</time>
      </trkpt>
      <trkpt lat="47.80191" lon="5.05906">
        <ele>331.34</ele>
        <time>2022-05-12T07:47:41Z</time>
      </trkpt>
      <trkpt lat="47.80194" lon="5.05907">
        <ele>330.77</ele>
        <time>2022-05-12T07:47:43Z</time>
      </trkpt>
      <trkpt lat="47.80197" lon="5.05908">
        <ele>330.69</ele>
        <time>2022-05-12T07:47:46Z</time>
      </trkpt>
      <trkpt lat="47.802" lon="5.05911">
        <ele>330.57</ele>
        <time>2022-05-12T07:47:48Z</time>
      </trkpt>
      <trkpt lat="47.80203" lon="5.05912">
        <ele>330.59</ele>
        <time>2022-05-12T07:47:51Z</time>
      </trkpt>
      <trkpt lat="47.80207" lon="5.05913">
        <ele>330.66</ele>
        <time>2022-05-12T07:47:54Z</time>
      </trkpt>
      <trkpt lat="47.80209" lon="5.05914">
        <ele>330.67</ele>
        <time>2022-05-12T07:47:56Z</time>
      </trkpt>
      <trkpt lat="47.80212" lon="5.05916">
        <ele>330.66</ele>
        <time>2022-05-12T07:47:59Z</time>
      </trkpt>
      <trkpt lat="47.80215" lon="5.05918">
        <ele>330.67</ele>
        <time>2022-05-12T07:48:01Z</time>
      </trkpt>
      <trkpt lat="47.80217" lon="5.05919">
        <ele>330.68</ele>
        <time>2022-05-12T07:48:03Z</time>
      </trkpt>
      <trkpt lat="47.8022" lon="5.0592">
        <ele>330.7</ele>
        <time>2022-05-12T07:48:06Z</time>
      </trkpt>
      <trkpt lat="47.80223" lon="5.05921">
        <ele>330.63</ele>
        <time>2022-05-12T07:48:07Z</time>
      </trkpt>
      <trkpt lat="47.80227" lon="5.05923">
        <ele>330.16</ele>
        <time>2022-05-12T07:48:11Z</time>
      </trkpt>
      <trkpt lat="47.8023" lon="5.05926">
        <ele>329.67</ele>
        <time>2022-05-12T07:48:14Z</time>
      </trkpt>
      <trkpt lat="47.80232" lon="5.05929">
        <ele>329.25</ele>
        <time>2022-05-12T07:48:16Z</time>
      </trkpt>
      <trkpt lat="47.80234" lon="5.05931">
        <ele>328.9</ele>
        <time>2022-05-12T07:48:18Z</time>
      </trkpt>
      <trkpt lat="47.80235" lon="5.05935">
        <ele>328.46</ele>
        <time>2022-05-12T07:48:20Z</time>
      </trkpt>
      <trkpt lat="47.80236" lon="5.05939">
        <ele>328</ele>
        <time>2022-05-12T07:48:22Z</time>
      </trkpt>
      <trkpt lat="47.80237" lon="5.05943">
        <ele>327.54</ele>
        <time>2022-05-12T07:48:24Z</time>
      </trkpt>
      <trkpt lat="47.80237" lon="5.05948">
        <ele>326.97</ele>
        <time>2022-05-12T07:48:26Z</time>
      </trkpt>
      <trkpt lat="47.80238" lon="5.05953">
        <ele>326.28</ele>
        <time>2022-05-12T07:48:28Z</time>
      </trkpt>
      <trkpt lat="47.80238" lon="5.05958">
        <ele>325.69</ele>
        <time>2022-05-12T07:48:31Z</time>
      </trkpt>
      <trkpt lat="47.80239" lon="5.05962">
        <ele>325.17</ele>
        <time>2022-05-12T07:48:33Z</time>
      </trkpt>
      <trkpt lat="47.80241" lon="5.05966">
        <ele>324.67</ele>
        <time>2022-05-12T07:48:36Z</time>
      </trkpt>
      <trkpt lat="47.80242" lon="5.05971">
        <ele>324.13</ele>
        <time>2022-05-12T07:48:38Z</time>
      </trkpt>
      <trkpt lat="47.80243" lon="5.05976">
        <ele>323.46</ele>
        <time>2022-05-12T07:48:40Z</time>
      </trkpt>
      <trkpt lat="47.80244" lon="5.05979">
        <ele>323.02</ele>
        <time>2022-05-12T07:48:42Z</time>
      </trkpt>
      <trkpt lat="47.80245" lon="5.05984">
        <ele>322.3</ele>
        <time>2022-05-12T07:48:45Z</time>
      </trkpt>
      <trkpt lat="47.80246" lon="5.0599">
        <ele>321.44</ele>
        <time>2022-05-12T07:48:48Z</time>
      </trkpt>
      <trkpt lat="47.80247" lon="5.05994">
        <ele>320.86</ele>
        <time>2022-05-12T07:48:50Z</time>
      </trkpt>
      <trkpt lat="47.80248" lon="5.05999">
        <ele>320.14</ele>
        <time>2022-05-12T07:48:52Z</time>
      </trkpt>
      <trkpt lat="47.80248" lon="5.06003">
        <ele>319.78</ele>
        <time>2022-05-12T07:48:55Z</time>
      </trkpt>
      <trkpt lat="47.8025" lon="5.06007">
        <ele>319.5</ele>
        <time>2022-05-12T07:48:59Z</time>
      </trkpt>
      <trkpt lat="47.80251" lon="5.06011">
        <ele>319.3</ele>
        <time>2022-05-12T07:49:02Z</time>
      </trkpt>
      <trkpt lat="47.80253" lon="5.06015">
        <ele>319.19</ele>
        <time>2022-05-12T07:49:06Z</time>
      </trkpt>
      <trkpt lat="47.80255" lon="5.06018">
        <ele>319.13</ele>
        <time>2022-05-12T07:49:09Z</time>
      </trkpt>
      <trkpt lat="47.80256" lon="5.06023">
        <ele>318.81</ele>
        <time>2022-05-12T07:49:11Z</time>
      </trkpt>
      <trkpt lat="47.80258" lon="5.06027">
        <ele>318.64</ele>
        <time>2022-05-12T07:49:14Z</time>
      </trkpt>
      <trkpt lat="47.80258" lon="5.06032">
        <ele>318.53</ele>
        <time>2022-05-12T07:49:16Z</time>
      </trkpt>
      <trkpt lat="47.80259" lon="5.06036">
        <ele>318.55</ele>
        <time>2022-05-12T07:49:19Z</time>
      </trkpt>
      <trkpt lat="47.8026" lon="5.06041">
        <ele>318.55</ele>
        <time>2022-05-12T07:49:22Z</time>
      </trkpt>
      <trkpt lat="47.8026" lon="5.06045">
        <ele>318.5</ele>
        <time>2022-05-12T07:49:24Z</time>
      </trkpt>
      <trkpt lat="47.8026" lon="5.0605">
        <ele>318.43</ele>
        <time>2022-05-12T07:49:27Z</time>
      </trkpt>
      <trkpt lat="47.8026" lon="5.06055">
        <ele>318.37</ele>
        <time>2022-05-12T07:49:29Z</time>
      </trkpt>
      <trkpt lat="47.80259" lon="5.06059">
        <ele>318.44</ele>
        <time>2022-05-12T07:49:32Z</time>
      </trkpt>
      <trkpt lat="47.80259" lon="5.06064">
        <ele>318.62</ele>
        <time>2022-05-12T07:49:35Z</time>
      </trkpt>
      <trkpt lat="47.80258" lon="5.06069">
        <ele>318.71</ele>
        <time>2022-05-12T07:49:38Z</time>
      </trkpt>
      <trkpt lat="47.80257" lon="5.06075">
        <ele>318.78</ele>
        <time>2022-05-12T07:49:41Z</time>
      </trkpt>
      <trkpt lat="47.80255" lon="5.06079">
        <ele>318.64</ele>
        <time>2022-05-12T07:49:43Z</time>
      </trkpt>
      <trkpt lat="47.80253" lon="5.06084">
        <ele>318.48</ele>
        <time>2022-05-12T07:49:46Z</time>
      </trkpt>
      <trkpt lat="47.80251" lon="5.0609">
        <ele>318.62</ele>
        <time>2022-05-12T07:49:49Z</time>
      </trkpt>
      <trkpt lat="47.8025" lon="5.06095">
        <ele>318.84</ele>
        <time>2022-05-12T07:49:52Z</time>
      </trkpt>
      <trkpt lat="47.80248" lon="5.061">
        <ele>318.9</ele>
        <time>2022-05-12T07:49:55Z</time>
      </trkpt>
      <trkpt lat="47.80247" lon="5.06105">
        <ele>319.07</ele>
        <time>2022-05-12T07:49:56Z</time>
      </trkpt>
      <trkpt lat="47.80246" lon="5.0611">
        <ele>319.21</ele>
        <time>2022-05-12T07:49:59Z</time>
      </trkpt>
      <trkpt lat="47.80246" lon="5.06114">
        <ele>319.49</ele>
        <time>2022-05-12T07:50:01Z</time>
      </trkpt>
      <trkpt lat="47.80245" lon="5.06119">
        <ele>319.67</ele>
        <time>2022-05-12T07:50:03Z</time>
      </trkpt>
      <trkpt lat="47.80243" lon="5.06123">
        <ele>319.6</ele>
        <time>2022-05-12T07:50:05Z</time>
      </trkpt>
      <trkpt lat="47.80242" lon="5.06129">
        <ele>319.85</ele>
        <time>2022-05-12T07:50:08Z</time>
      </trkpt>
      <trkpt lat="47.80241" lon="5.06134">
        <ele>320.03</ele>
        <time>2022-05-12T07:50:11Z</time>
      </trkpt>
      <trkpt lat="47.8024" lon="5.0614">
        <ele>320.27</ele>
        <time>2022-05-12T07:50:14Z</time>
      </trkpt>
      <trkpt lat="47.80241" lon="5.06144">
        <ele>320.68</ele>
        <time>2022-05-12T07:50:16Z</time>
      </trkpt>
      <trkpt lat="47.80241" lon="5.06148">
        <ele>320.92</ele>
        <time>2022-05-12T07:50:18Z</time>
      </trkpt>
      <trkpt lat="47.80241" lon="5.06153">
        <ele>321.22</ele>
        <time>2022-05-12T07:50:21Z</time>
      </trkpt>
      <trkpt lat="47.80243" lon="5.06158">
        <ele>321.77</ele>
        <time>2022-05-12T07:50:23Z</time>
      </trkpt>
      <trkpt lat="47.80245" lon="5.06161">
        <ele>322.18</ele>
        <time>2022-05-12T07:50:25Z</time>
      </trkpt>
      <trkpt lat="47.80247" lon="5.06164">
        <ele>322.56</ele>
        <time>2022-05-12T07:50:27Z</time>
      </trkpt>
      <trkpt lat="47.80251" lon="5.06168">
        <ele>323.05</ele>
        <time>2022-05-12T07:50:31Z</time>
      </trkpt>
      <trkpt lat="47.80256" lon="5.06171">
        <ele>323.16</ele>
        <time>2022-05-12T07:50:35Z</time>
      </trkpt>
      <trkpt lat="47.80261" lon="5.06175">
        <ele>323.3</ele>
        <time>2022-05-12T07:50:39Z</time>
      </trkpt>
      <trkpt lat="47.80266" lon="5.06179">
        <ele>323.44</ele>
        <time>2022-05-12T07:50:43Z</time>
      </trkpt>
      <trkpt lat="47.80269" lon="5.0618">
        <ele>323.48</ele>
        <time>2022-05-12T07:50:45Z</time>
      </trkpt>
      <trkpt lat="47.80272" lon="5.06181">
        <ele>323.52</ele>
        <time>2022-05-12T07:50:49Z</time>
      </trkpt>
      <trkpt lat="47.80275" lon="5.06183">
        <ele>323.59</ele>
        <time>2022-05-12T07:50:51Z</time>
      </trkpt>
      <trkpt lat="47.80279" lon="5.06187">
        <ele>323.56</ele>
        <time>2022-05-12T07:50:55Z</time>
      </trkpt>
      <trkpt lat="47.80282" lon="5.06189">
        <ele>323.2</ele>
        <time>2022-05-12T07:50:57Z</time>
      </trkpt>
      <trkpt lat="47.80286" lon="5.06193">
        <ele>322.76</ele>
        <time>2022-05-12T07:51:01Z</time>
      </trkpt>
      <trkpt lat="47.80291" lon="5.06197">
        <ele>322.28</ele>
        <time>2022-05-12T07:51:05Z</time>
      </trkpt>
      <trkpt lat="47.80294" lon="5.06202">
        <ele>322.25</ele>
        <time>2022-05-12T07:51:09Z</time>
      </trkpt>
      <trkpt lat="47.80297" lon="5.06204">
        <ele>322.05</ele>
        <time>2022-05-12T07:51:11Z</time>
      </trkpt>
      <trkpt lat="47.803" lon="5.06207">
        <ele>321.98</ele>
        <time>2022-05-12T07:51:14Z</time>
      </trkpt>
      <trkpt lat="47.80302" lon="5.0621">
        <ele>322.05</ele>
        <time>2022-05-12T07:51:16Z</time>
      </trkpt>
      <trkpt lat="47.80304" lon="5.06213">
        <ele>322.15</ele>
        <time>2022-05-12T07:51:19Z</time>
      </trkpt>
      <trkpt lat="47.80306" lon="5.06217">
        <ele>322.42</ele>
        <time>2022-05-12T07:51:22Z</time>
      </trkpt>
      <trkpt lat="47.80308" lon="5.06221">
        <ele>322.78</ele>
        <time>2022-05-12T07:51:25Z</time>
      </trkpt>
      <trkpt lat="47.8031" lon="5.06224">
        <ele>323.15</ele>
        <time>2022-05-12T07:51:27Z</time>
      </trkpt>
      <trkpt lat="47.80312" lon="5.06227">
        <ele>323.59</ele>
        <time>2022-05-12T07:51:30Z</time>
      </trkpt>
      <trkpt lat="47.80315" lon="5.06229">
        <ele>323.8</ele>
        <time>2022-05-12T07:51:32Z</time>
      </trkpt>
      <trkpt lat="47.80317" lon="5.06232">
        <ele>324.2</ele>
        <time>2022-05-12T07:51:36Z</time>
      </trkpt>
      <trkpt lat="47.8032" lon="5.06234">
        <ele>324.38</ele>
        <time>2022-05-12T07:51:38Z</time>
      </trkpt>
      <trkpt lat="47.80322" lon="5.06237">
        <ele>324.75</ele>
        <time>2022-05-12T07:51:40Z</time>
      </trkpt>
      <trkpt lat="47.80324" lon="5.0624">
        <ele>325.11</ele>
        <time>2022-05-12T07:51:43Z</time>
      </trkpt>
      <trkpt lat="47.80327" lon="5.06242">
        <ele>325.24</ele>
        <time>2022-05-12T07:51:47Z</time>
      </trkpt>
      <trkpt lat="47.80329" lon="5.06245">
        <ele>325.56</ele>
        <time>2022-05-12T07:51:49Z</time>
      </trkpt>
      <trkpt lat="47.80332" lon="5.06247">
        <ele>325.66</ele>
        <time>2022-05-12T07:51:52Z</time>
      </trkpt>
      <trkpt lat="47.80335" lon="5.06249">
        <ele>325.86</ele>
        <time>2022-05-12T07:51:55Z</time>
      </trkpt>
      <trkpt lat="47.80338" lon="5.06251">
        <ele>326.19</ele>
        <time>2022-05-12T07:51:58Z</time>
      </trkpt>
      <trkpt lat="47.80341" lon="5.06254">
        <ele>326.8</ele>
        <time>2022-05-12T07:52:02Z</time>
      </trkpt>
      <trkpt lat="47.80344" lon="5.06257">
        <ele>327.45</ele>
        <time>2022-05-12T07:52:04Z</time>
      </trkpt>
      <trkpt lat="47.80346" lon="5.0626">
        <ele>328.13</ele>
        <time>2022-05-12T07:52:07Z</time>
      </trkpt>
      <trkpt lat="47.80348" lon="5.06263">
        <ele>328.83</ele>
        <time>2022-05-12T07:52:09Z</time>
      </trkpt>
      <trkpt lat="47.80351" lon="5.06266">
        <ele>329.61</ele>
        <time>2022-05-12T07:52:12Z</time>
      </trkpt>
      <trkpt lat="47.80354" lon="5.06269">
        <ele>330.44</ele>
        <time>2022-05-12T07:52:15Z</time>
      </trkpt>
      <trkpt lat="47.80356" lon="5.06272">
        <ele>331.25</ele>
        <time>2022-05-12T07:52:18Z</time>
      </trkpt>
      <trkpt lat="47.80359" lon="5.06274">
        <ele>331.92</ele>
        <time>2022-05-12T07:52:22Z</time>
      </trkpt>
      <trkpt lat="47.80361" lon="5.06276">
        <ele>332.54</ele>
        <time>2022-05-12T07:52:24Z</time>
      </trkpt>
      <trkpt lat="47.80364" lon="5.06279">
        <ele>333.32</ele>
        <time>2022-05-12T07:52:27Z</time>
      </trkpt>
      <trkpt lat="47.80367" lon="5.06282">
        <ele>333.75</ele>
        <time>2022-05-12T07:52:29Z</time>
      </trkpt>
      <trkpt lat="47.8037" lon="5.06285">
        <ele>334.09</ele>
        <time>2022-05-12T07:52:33Z</time>
      </trkpt>
      <trkpt lat="47.80372" lon="5.06287">
        <ele>334.26</ele>
        <time>2022-05-12T07:52:35Z</time>
      </trkpt>
      <trkpt lat="47.80374" lon="5.06291">
        <ele>334.47</ele>
        <time>2022-05-12T07:52:39Z</time>
      </trkpt>
      <trkpt lat="47.80372" lon="5.06292">
        <ele>334.52</ele>
        <time>2022-05-12T07:52:52Z</time>
      </trkpt>
      <trkpt lat="47.8037" lon="5.06288">
        <ele>334.27</ele>
        <time>2022-05-12T07:53:21Z</time>
      </trkpt>
      <trkpt lat="47.80367" lon="5.06287">
        <ele>334.14</ele>
        <time>2022-05-12T07:53:24Z</time>
      </trkpt>
      <trkpt lat="47.80363" lon="5.06287">
        <ele>334.04</ele>
        <time>2022-05-12T07:53:27Z</time>
      </trkpt>
      <trkpt lat="47.8036" lon="5.06288">
        <ele>334.07</ele>
        <time>2022-05-12T07:53:29Z</time>
      </trkpt>
      <trkpt lat="47.80357" lon="5.06288">
        <ele>333.97</ele>
        <time>2022-05-12T07:53:32Z</time>
      </trkpt>
      <trkpt lat="47.80352" lon="5.06287">
        <ele>333.67</ele>
        <time>2022-05-12T07:53:37Z</time>
      </trkpt>
      <trkpt lat="47.80347" lon="5.06286">
        <ele>333.32</ele>
        <time>2022-05-12T07:53:42Z</time>
      </trkpt>
      <trkpt lat="47.80344" lon="5.06283">
        <ele>332.68</ele>
        <time>2022-05-12T07:53:45Z</time>
      </trkpt>
      <trkpt lat="47.8034" lon="5.06281">
        <ele>332.09</ele>
        <time>2022-05-12T07:53:48Z</time>
      </trkpt>
      <trkpt lat="47.80337" lon="5.0628">
        <ele>331.71</ele>
        <time>2022-05-12T07:53:50Z</time>
      </trkpt>
      <trkpt lat="47.80334" lon="5.06279">
        <ele>331.31</ele>
        <time>2022-05-12T07:53:53Z</time>
      </trkpt>
      <trkpt lat="47.80331" lon="5.06279">
        <ele>331.5</ele>
        <time>2022-05-12T07:54:01Z</time>
      </trkpt>
      <trkpt lat="47.80329" lon="5.06277">
        <ele>331.32</ele>
        <time>2022-05-12T07:54:06Z</time>
      </trkpt>
      <trkpt lat="47.80326" lon="5.06275">
        <ele>331.27</ele>
        <time>2022-05-12T07:54:10Z</time>
      </trkpt>
      <trkpt lat="47.80321" lon="5.06274">
        <ele>331.59</ele>
        <time>2022-05-12T07:54:13Z</time>
      </trkpt>
      <trkpt lat="47.80316" lon="5.06274">
        <ele>332.11</ele>
        <time>2022-05-12T07:54:17Z</time>
      </trkpt>
      <trkpt lat="47.80312" lon="5.06272">
        <ele>332.1</ele>
        <time>2022-05-12T07:54:21Z</time>
      </trkpt>
      <trkpt lat="47.80307" lon="5.06269">
        <ele>331.96</ele>
        <time>2022-05-12T07:54:24Z</time>
      </trkpt>
      <trkpt lat="47.80302" lon="5.06267">
        <ele>331.98</ele>
        <time>2022-05-12T07:54:28Z</time>
      </trkpt>
      <trkpt lat="47.80298" lon="5.06264">
        <ele>331.7</ele>
        <time>2022-05-12T07:54:31Z</time>
      </trkpt>
      <trkpt lat="47.80293" lon="5.06263">
        <ele>331.95</ele>
        <time>2022-05-12T07:54:35Z</time>
      </trkpt>
      <trkpt lat="47.80287" lon="5.06262">
        <ele>332.31</ele>
        <time>2022-05-12T07:54:39Z</time>
      </trkpt>
      <trkpt lat="47.80282" lon="5.0626">
        <ele>332.4</ele>
        <time>2022-05-12T07:54:43Z</time>
      </trkpt>
      <trkpt lat="47.80276" lon="5.06257">
        <ele>332.12</ele>
        <time>2022-05-12T07:54:48Z</time>
      </trkpt>
      <trkpt lat="47.80271" lon="5.06255">
        <ele>331.37</ele>
        <time>2022-05-12T07:54:52Z</time>
      </trkpt>
      <trkpt lat="47.80265" lon="5.06254">
        <ele>330.73</ele>
        <time>2022-05-12T07:54:55Z</time>
      </trkpt>
      <trkpt lat="47.8026" lon="5.06253">
        <ele>330.19</ele>
        <time>2022-05-12T07:54:59Z</time>
      </trkpt>
      <trkpt lat="47.80254" lon="5.0625">
        <ele>329.29</ele>
        <time>2022-05-12T07:55:03Z</time>
      </trkpt>
      <trkpt lat="47.80249" lon="5.06246">
        <ele>328.73</ele>
        <time>2022-05-12T07:55:06Z</time>
      </trkpt>
      <trkpt lat="47.80244" lon="5.06243">
        <ele>328.55</ele>
        <time>2022-05-12T07:55:10Z</time>
      </trkpt>
      <trkpt lat="47.80238" lon="5.0624">
        <ele>328.25</ele>
        <time>2022-05-12T07:55:15Z</time>
      </trkpt>
      <trkpt lat="47.80232" lon="5.06239">
        <ele>328.09</ele>
        <time>2022-05-12T07:55:19Z</time>
      </trkpt>
      <trkpt lat="47.80226" lon="5.06237">
        <ele>327.71</ele>
        <time>2022-05-12T07:55:25Z</time>
      </trkpt>
      <trkpt lat="47.8022" lon="5.06234">
        <ele>327.31</ele>
        <time>2022-05-12T07:55:30Z</time>
      </trkpt>
      <trkpt lat="47.80214" lon="5.06232">
        <ele>327.46</ele>
        <time>2022-05-12T07:55:34Z</time>
      </trkpt>
      <trkpt lat="47.80209" lon="5.06229">
        <ele>327.29</ele>
        <time>2022-05-12T07:55:38Z</time>
      </trkpt>
      <trkpt lat="47.80204" lon="5.06228">
        <ele>327.49</ele>
        <time>2022-05-12T07:55:43Z</time>
      </trkpt>
      <trkpt lat="47.80201" lon="5.06226">
        <ele>327.31</ele>
        <time>2022-05-12T07:55:45Z</time>
      </trkpt>
      <trkpt lat="47.80198" lon="5.06226">
        <ele>327.54</ele>
        <time>2022-05-12T07:55:48Z</time>
      </trkpt>
      <trkpt lat="47.80194" lon="5.06224">
        <ele>327.4</ele>
        <time>2022-05-12T07:55:50Z</time>
      </trkpt>
      <trkpt lat="47.80188" lon="5.06222">
        <ele>327.2</ele>
        <time>2022-05-12T07:55:54Z</time>
      </trkpt>
      <trkpt lat="47.80183" lon="5.0622">
        <ele>327.14</ele>
        <time>2022-05-12T07:55:58Z</time>
      </trkpt>
      <trkpt lat="47.80181" lon="5.06218">
        <ele>327.02</ele>
        <time>2022-05-12T07:56:00Z</time>
      </trkpt>
      <trkpt lat="47.80178" lon="5.06217">
        <ele>327.1</ele>
        <time>2022-05-12T07:56:02Z</time>
      </trkpt>
      <trkpt lat="47.80174" lon="5.06216">
        <ele>327.28</ele>
        <time>2022-05-12T07:56:05Z</time>
      </trkpt>
      <trkpt lat="47.80171" lon="5.06215">
        <ele>327.42</ele>
        <time>2022-05-12T07:56:07Z</time>
      </trkpt>
      <trkpt lat="47.80168" lon="5.06214">
        <ele>327.6</ele>
        <time>2022-05-12T07:56:10Z</time>
      </trkpt>
      <trkpt lat="47.80163" lon="5.06213">
        <ele>327.93</ele>
        <time>2022-05-12T07:56:14Z</time>
      </trkpt>
      <trkpt lat="47.80157" lon="5.06211">
        <ele>328.29</ele>
        <time>2022-05-12T07:56:18Z</time>
      </trkpt>
      <trkpt lat="47.80152" lon="5.06209">
        <ele>328.58</ele>
        <time>2022-05-12T07:56:21Z</time>
      </trkpt>
      <trkpt lat="47.80148" lon="5.06207">
        <ele>328.8</ele>
        <time>2022-05-12T07:56:25Z</time>
      </trkpt>
      <trkpt lat="47.80143" lon="5.06206">
        <ele>329.12</ele>
        <time>2022-05-12T07:56:29Z</time>
      </trkpt>
      <trkpt lat="47.80139" lon="5.06205">
        <ele>329.37</ele>
        <time>2022-05-12T07:56:32Z</time>
      </trkpt>
      <trkpt lat="47.80136" lon="5.06204">
        <ele>329.42</ele>
        <time>2022-05-12T07:56:34Z</time>
      </trkpt>
      <trkpt lat="47.80133" lon="5.06202">
        <ele>329.35</ele>
        <time>2022-05-12T07:56:36Z</time>
      </trkpt>
      <trkpt lat="47.8013" lon="5.062">
        <ele>329.2</ele>
        <time>2022-05-12T07:56:38Z</time>
      </trkpt>
      <trkpt lat="47.80128" lon="5.06199">
        <ele>329.09</ele>
        <time>2022-05-12T07:56:40Z</time>
      </trkpt>
      <trkpt lat="47.80125" lon="5.06199">
        <ele>329.07</ele>
        <time>2022-05-12T07:56:43Z</time>
      </trkpt>
      <trkpt lat="47.80121" lon="5.06199">
        <ele>329.05</ele>
        <time>2022-05-12T07:56:45Z</time>
      </trkpt>
      <trkpt lat="47.80116" lon="5.062">
        <ele>329.2</ele>
        <time>2022-05-12T07:56:49Z</time>
      </trkpt>
      <trkpt lat="47.80112" lon="5.06199">
        <ele>328.99</ele>
        <time>2022-05-12T07:56:52Z</time>
      </trkpt>
      <trkpt lat="47.80109" lon="5.06198">
        <ele>328.69</ele>
        <time>2022-05-12T07:56:54Z</time>
      </trkpt>
      <trkpt lat="47.80106" lon="5.06198">
        <ele>328.58</ele>
        <time>2022-05-12T07:56:57Z</time>
      </trkpt>
      <trkpt lat="47.80103" lon="5.06197">
        <ele>328.26</ele>
        <time>2022-05-12T07:56:58Z</time>
      </trkpt>
      <trkpt lat="47.801" lon="5.06195">
        <ele>327.72</ele>
        <time>2022-05-12T07:57:01Z</time>
      </trkpt>
      <trkpt lat="47.80098" lon="5.06193">
        <ele>327.27</ele>
        <time>2022-05-12T07:57:03Z</time>
      </trkpt>
      <trkpt lat="47.80095" lon="5.0619">
        <ele>326.57</ele>
        <time>2022-05-12T07:57:05Z</time>
      </trkpt>
      <trkpt lat="47.80092" lon="5.06188">
        <ele>325.98</ele>
        <time>2022-05-12T07:57:08Z</time>
      </trkpt>
      <trkpt lat="47.80089" lon="5.06185">
        <ele>325.1</ele>
        <time>2022-05-12T07:57:12Z</time>
      </trkpt>
      <trkpt lat="47.80086" lon="5.06184">
        <ele>324.61</ele>
        <time>2022-05-12T07:57:14Z</time>
      </trkpt>
      <trkpt lat="47.80083" lon="5.06183">
        <ele>324.13</ele>
        <time>2022-05-12T07:57:16Z</time>
      </trkpt>
      <trkpt lat="47.80077" lon="5.06183">
        <ele>324.34</ele>
        <time>2022-05-12T07:57:21Z</time>
      </trkpt>
      <trkpt lat="47.80071" lon="5.06184">
        <ele>324.81</ele>
        <time>2022-05-12T07:57:24Z</time>
      </trkpt>
      <trkpt lat="47.80065" lon="5.06184">
        <ele>325.03</ele>
        <time>2022-05-12T07:57:28Z</time>
      </trkpt>
      <trkpt lat="47.8006" lon="5.06184">
        <ele>325.21</ele>
        <time>2022-05-12T07:57:31Z</time>
      </trkpt>
      <trkpt lat="47.80056" lon="5.06184">
        <ele>325.35</ele>
        <time>2022-05-12T07:57:34Z</time>
      </trkpt>
      <trkpt lat="47.80052" lon="5.06182">
        <ele>325.57</ele>
        <time>2022-05-12T07:57:37Z</time>
      </trkpt>
      <trkpt lat="47.80048" lon="5.0618">
        <ele>325.85</ele>
        <time>2022-05-12T07:57:39Z</time>
      </trkpt>
      <trkpt lat="47.80045" lon="5.06179">
        <ele>326.18</ele>
        <time>2022-05-12T07:57:41Z</time>
      </trkpt>
      <trkpt lat="47.8004" lon="5.06178">
        <ele>326.88</ele>
        <time>2022-05-12T07:57:45Z</time>
      </trkpt>
      <trkpt lat="47.80034" lon="5.06177">
        <ele>327.77</ele>
        <time>2022-05-12T07:57:49Z</time>
      </trkpt>
      <trkpt lat="47.80029" lon="5.06176">
        <ele>328.45</ele>
        <time>2022-05-12T07:57:53Z</time>
      </trkpt>
      <trkpt lat="47.80024" lon="5.06175">
        <ele>329</ele>
        <time>2022-05-12T07:57:57Z</time>
      </trkpt>
      <trkpt lat="47.80018" lon="5.06174">
        <ele>329.69</ele>
        <time>2022-05-12T07:58:02Z</time>
      </trkpt>
      <trkpt lat="47.80012" lon="5.06171">
        <ele>329.91</ele>
        <time>2022-05-12T07:58:06Z</time>
      </trkpt>
      <trkpt lat="47.80008" lon="5.06167">
        <ele>329.64</ele>
        <time>2022-05-12T07:58:11Z</time>
      </trkpt>
      <trkpt lat="47.80006" lon="5.06166">
        <ele>329.79</ele>
        <time>2022-05-12T07:58:12Z</time>
      </trkpt>
      <trkpt lat="47.80003" lon="5.06165">
        <ele>330.15</ele>
        <time>2022-05-12T07:58:14Z</time>
      </trkpt>
      <trkpt lat="47.8" lon="5.06165">
        <ele>330.7</ele>
        <time>2022-05-12T07:58:16Z</time>
      </trkpt>
      <trkpt lat="47.79997" lon="5.06165">
        <ele>331.14</ele>
        <time>2022-05-12T07:58:18Z</time>
      </trkpt>
      <trkpt lat="47.79994" lon="5.06165">
        <ele>331.59</ele>
        <time>2022-05-12T07:58:21Z</time>
      </trkpt>
      <trkpt lat="47.79991" lon="5.06165">
        <ele>332.03</ele>
        <time>2022-05-12T07:58:23Z</time>
      </trkpt>
      <trkpt lat="47.79988" lon="5.06166">
        <ele>332.63</ele>
        <time>2022-05-12T07:58:27Z</time>
      </trkpt>
      <trkpt lat="47.79985" lon="5.06169">
        <ele>333.48</ele>
        <time>2022-05-12T07:58:29Z</time>
      </trkpt>
      <trkpt lat="47.79983" lon="5.06172">
        <ele>334.13</ele>
        <time>2022-05-12T07:58:31Z</time>
      </trkpt>
      <trkpt lat="47.79981" lon="5.06176">
        <ele>334.83</ele>
        <time>2022-05-12T07:58:35Z</time>
      </trkpt>
      <trkpt lat="47.7998" lon="5.0618">
        <ele>335.38</ele>
        <time>2022-05-12T07:58:39Z</time>
      </trkpt>
      <trkpt lat="47.79977" lon="5.06183">
        <ele>335.89</ele>
        <time>2022-05-12T07:59:16Z</time>
      </trkpt>
      <trkpt lat="47.79977" lon="5.06187">
        <ele>336.28</ele>
        <time>2022-05-12T07:59:26Z</time>
      </trkpt>
      <trkpt lat="47.79977" lon="5.06192">
        <ele>336.76</ele>
        <time>2022-05-12T07:59:29Z</time>
      </trkpt>
      <trkpt lat="47.79978" lon="5.06197">
        <ele>337.41</ele>
        <time>2022-05-12T07:59:33Z</time>
      </trkpt>
      <trkpt lat="47.79979" lon="5.06201">
        <ele>338.06</ele>
        <time>2022-05-12T07:59:35Z</time>
      </trkpt>
      <trkpt lat="47.7998" lon="5.06206">
        <ele>338.9</ele>
        <time>2022-05-12T07:59:37Z</time>
      </trkpt>
      <trkpt lat="47.7998" lon="5.06212">
        <ele>339.88</ele>
        <time>2022-05-12T07:59:41Z</time>
      </trkpt>
      <trkpt lat="47.79981" lon="5.06219">
        <ele>341.09</ele>
        <time>2022-05-12T07:59:45Z</time>
      </trkpt>
      <trkpt lat="47.7998" lon="5.06223">
        <ele>341.63</ele>
        <time>2022-05-12T07:59:48Z</time>
      </trkpt>
      <trkpt lat="47.7998" lon="5.06227">
        <ele>342</ele>
        <time>2022-05-12T07:59:50Z</time>
      </trkpt>
      <trkpt lat="47.79981" lon="5.06232">
        <ele>342.56</ele>
        <time>2022-05-12T07:59:53Z</time>
      </trkpt>
      <trkpt lat="47.79981" lon="5.06237">
        <ele>343.03</ele>
        <time>2022-05-12T07:59:58Z</time>
      </trkpt>
      <trkpt lat="47.79982" lon="5.06241">
        <ele>343.53</ele>
        <time>2022-05-12T08:00:00Z</time>
      </trkpt>
      <trkpt lat="47.79983" lon="5.06245">
        <ele>344.05</ele>
        <time>2022-05-12T08:00:04Z</time>
      </trkpt>
      <trkpt lat="47.79984" lon="5.06249">
        <ele>344.59</ele>
        <time>2022-05-12T08:00:06Z</time>
      </trkpt>
      <trkpt lat="47.79986" lon="5.06253">
        <ele>345.31</ele>
        <time>2022-05-12T08:00:09Z</time>
      </trkpt>
      <trkpt lat="47.79987" lon="5.06257">
        <ele>345.92</ele>
        <time>2022-05-12T08:00:12Z</time>
      </trkpt>
      <trkpt lat="47.79988" lon="5.06261">
        <ele>346.57</ele>
        <time>2022-05-12T08:00:15Z</time>
      </trkpt>
      <trkpt lat="47.79989" lon="5.06265">
        <ele>347.26</ele>
        <time>2022-05-12T08:00:18Z</time>
      </trkpt>
      <trkpt lat="47.7999" lon="5.06269">
        <ele>348</ele>
        <time>2022-05-12T08:00:21Z</time>
      </trkpt>
      <trkpt lat="47.79995" lon="5.06276">
        <ele>350.29</ele>
        <time>2022-05-12T08:00:26Z</time>
      </trkpt>
      <trkpt lat="47.79997" lon="5.0628">
        <ele>351.36</ele>
        <time>2022-05-12T08:00:29Z</time>
      </trkpt>
      <trkpt lat="47.79999" lon="5.06283">
        <ele>352.26</ele>
        <time>2022-05-12T08:00:32Z</time>
      </trkpt>
      <trkpt lat="47.8" lon="5.06288">
        <ele>353.1</ele>
        <time>2022-05-12T08:00:35Z</time>
      </trkpt>
      <trkpt lat="47.80001" lon="5.06292">
        <ele>353.7</ele>
        <time>2022-05-12T08:00:38Z</time>
      </trkpt>
      <trkpt lat="47.80002" lon="5.06296">
        <ele>354.28</ele>
        <time>2022-05-12T08:00:40Z</time>
      </trkpt>
      <trkpt lat="47.80004" lon="5.063">
        <ele>355</ele>
        <time>2022-05-12T08:00:43Z</time>
      </trkpt>
      <trkpt lat="47.80009" lon="5.06305">
        <ele>356.24</ele>
        <time>2022-05-12T08:00:48Z</time>
      </trkpt>
      <trkpt lat="47.80011" lon="5.06309">
        <ele>356.66</ele>
        <time>2022-05-12T08:00:51Z</time>
      </trkpt>
      <trkpt lat="47.80013" lon="5.06312">
        <ele>357</ele>
        <time>2022-05-12T08:00:54Z</time>
      </trkpt>
      <trkpt lat="47.80016" lon="5.06315">
        <ele>357.45</ele>
        <time>2022-05-12T08:00:56Z</time>
      </trkpt>
      <trkpt lat="47.80017" lon="5.06319">
        <ele>357.64</ele>
        <time>2022-05-12T08:00:59Z</time>
      </trkpt>
      <trkpt lat="47.80019" lon="5.06322">
        <ele>357.92</ele>
        <time>2022-05-12T08:01:01Z</time>
      </trkpt>
      <trkpt lat="47.8002" lon="5.06326">
        <ele>358.09</ele>
        <time>2022-05-12T08:01:05Z</time>
      </trkpt>
      <trkpt lat="47.80022" lon="5.06331">
        <ele>358.36</ele>
        <time>2022-05-12T08:01:07Z</time>
      </trkpt>
      <trkpt lat="47.80023" lon="5.06335">
        <ele>358.5</ele>
        <time>2022-05-12T08:01:10Z</time>
      </trkpt>
      <trkpt lat="47.80028" lon="5.0634">
        <ele>359.02</ele>
        <time>2022-05-12T08:01:16Z</time>
      </trkpt>
      <trkpt lat="47.8003" lon="5.06343">
        <ele>359.27</ele>
        <time>2022-05-12T08:01:18Z</time>
      </trkpt>
      <trkpt lat="47.80032" lon="5.06347">
        <ele>359.6</ele>
        <time>2022-05-12T08:01:22Z</time>
      </trkpt>
      <trkpt lat="47.80032" lon="5.06351">
        <ele>359.69</ele>
        <time>2022-05-12T08:01:26Z</time>
      </trkpt>
      <trkpt lat="47.80034" lon="5.06356">
        <ele>360.18</ele>
        <time>2022-05-12T08:01:29Z</time>
      </trkpt>
      <trkpt lat="47.80036" lon="5.06359">
        <ele>360.69</ele>
        <time>2022-05-12T08:01:32Z</time>
      </trkpt>
      <trkpt lat="47.80038" lon="5.06363">
        <ele>361.27</ele>
        <time>2022-05-12T08:01:36Z</time>
      </trkpt>
      <trkpt lat="47.8004" lon="5.06366">
        <ele>361.76</ele>
        <time>2022-05-12T08:01:37Z</time>
      </trkpt>
      <trkpt lat="47.80042" lon="5.06369">
        <ele>362.2</ele>
        <time>2022-05-12T08:01:40Z</time>
      </trkpt>
      <trkpt lat="47.80045" lon="5.06372">
        <ele>362.77</ele>
        <time>2022-05-12T08:01:43Z</time>
      </trkpt>
      <trkpt lat="47.80048" lon="5.06374">
        <ele>363.28</ele>
        <time>2022-05-12T08:01:45Z</time>
      </trkpt>
      <trkpt lat="47.8005" lon="5.06376">
        <ele>363.59</ele>
        <time>2022-05-12T08:01:47Z</time>
      </trkpt>
      <trkpt lat="47.80053" lon="5.06378">
        <ele>364.01</ele>
        <time>2022-05-12T08:01:50Z</time>
      </trkpt>
      <trkpt lat="47.80056" lon="5.0638">
        <ele>364.32</ele>
        <time>2022-05-12T08:01:53Z</time>
      </trkpt>
      <trkpt lat="47.80058" lon="5.06384">
        <ele>364.2</ele>
        <time>2022-05-12T08:01:56Z</time>
      </trkpt>
      <trkpt lat="47.8006" lon="5.06387">
        <ele>364.18</ele>
        <time>2022-05-12T08:01:58Z</time>
      </trkpt>
      <trkpt lat="47.80062" lon="5.0639">
        <ele>364.08</ele>
        <time>2022-05-12T08:02:00Z</time>
      </trkpt>
      <trkpt lat="47.80064" lon="5.06393">
        <ele>363.79</ele>
        <time>2022-05-12T08:02:02Z</time>
      </trkpt>
      <trkpt lat="47.80066" lon="5.06397">
        <ele>363.46</ele>
        <time>2022-05-12T08:02:04Z</time>
      </trkpt>
      <trkpt lat="47.80068" lon="5.06401">
        <ele>363.24</ele>
        <time>2022-05-12T08:02:06Z</time>
      </trkpt>
      <trkpt lat="47.8007" lon="5.06404">
        <ele>363.21</ele>
        <time>2022-05-12T08:02:08Z</time>
      </trkpt>
      <trkpt lat="47.80072" lon="5.06407">
        <ele>363.26</ele>
        <time>2022-05-12T08:02:11Z</time>
      </trkpt>
      <trkpt lat="47.80074" lon="5.0641">
        <ele>363.39</ele>
        <time>2022-05-12T08:02:14Z</time>
      </trkpt>
      <trkpt lat="47.80075" lon="5.06415">
        <ele>363.29</ele>
        <time>2022-05-12T08:02:16Z</time>
      </trkpt>
      <trkpt lat="47.80077" lon="5.06418">
        <ele>363.68</ele>
        <time>2022-05-12T08:02:18Z</time>
      </trkpt>
      <trkpt lat="47.80078" lon="5.06423">
        <ele>364.08</ele>
        <time>2022-05-12T08:02:22Z</time>
      </trkpt>
      <trkpt lat="47.8008" lon="5.06426">
        <ele>364.62</ele>
        <time>2022-05-12T08:02:23Z</time>
      </trkpt>
      <trkpt lat="47.80082" lon="5.0643">
        <ele>365.19</ele>
        <time>2022-05-12T08:02:26Z</time>
      </trkpt>
      <trkpt lat="47.80084" lon="5.06433">
        <ele>365.59</ele>
        <time>2022-05-12T08:02:27Z</time>
      </trkpt>
      <trkpt lat="47.80086" lon="5.06437">
        <ele>365.73</ele>
        <time>2022-05-12T08:02:31Z</time>
      </trkpt>
      <trkpt lat="47.80088" lon="5.0644">
        <ele>365.84</ele>
        <time>2022-05-12T08:02:33Z</time>
      </trkpt>
      <trkpt lat="47.80089" lon="5.06444">
        <ele>365.98</ele>
        <time>2022-05-12T08:02:36Z</time>
      </trkpt>
      <trkpt lat="47.80092" lon="5.06447">
        <ele>366.09</ele>
        <time>2022-05-12T08:02:39Z</time>
      </trkpt>
      <trkpt lat="47.80094" lon="5.0645">
        <ele>366.2</ele>
        <time>2022-05-12T08:02:42Z</time>
      </trkpt>
      <trkpt lat="47.80096" lon="5.06453">
        <ele>366.31</ele>
        <time>2022-05-12T08:02:44Z</time>
      </trkpt>
      <trkpt lat="47.80098" lon="5.06457">
        <ele>366.45</ele>
        <time>2022-05-12T08:02:47Z</time>
      </trkpt>
      <trkpt lat="47.801" lon="5.0646">
        <ele>366.56</ele>
        <time>2022-05-12T08:02:49Z</time>
      </trkpt>
      <trkpt lat="47.80101" lon="5.06463">
        <ele>366.67</ele>
        <time>2022-05-12T08:02:51Z</time>
      </trkpt>
      <trkpt lat="47.80104" lon="5.06466">
        <ele>366.78</ele>
        <time>2022-05-12T08:02:53Z</time>
      </trkpt>
      <trkpt lat="47.80106" lon="5.0647">
        <ele>366.92</ele>
        <time>2022-05-12T08:02:57Z</time>
      </trkpt>
      <trkpt lat="47.80107" lon="5.06474">
        <ele>367.25</ele>
        <time>2022-05-12T08:03:00Z</time>
      </trkpt>
      <trkpt lat="47.80109" lon="5.06478">
        <ele>367.82</ele>
        <time>2022-05-12T08:03:03Z</time>
      </trkpt>
      <trkpt lat="47.8011" lon="5.06483">
        <ele>368.54</ele>
        <time>2022-05-12T08:03:08Z</time>
      </trkpt>
      <trkpt lat="47.80108" lon="5.06487">
        <ele>369.07</ele>
        <time>2022-05-12T08:03:10Z</time>
      </trkpt>
      <trkpt lat="47.80105" lon="5.06489">
        <ele>369.28</ele>
        <time>2022-05-12T08:03:14Z</time>
      </trkpt>
      <trkpt lat="47.80103" lon="5.06492">
        <ele>369.64</ele>
        <time>2022-05-12T08:03:19Z</time>
      </trkpt>
      <trkpt lat="47.80103" lon="5.06496">
        <ele>370.17</ele>
        <time>2022-05-12T08:03:24Z</time>
      </trkpt>
      <trkpt lat="47.801" lon="5.06497">
        <ele>370.21</ele>
        <time>2022-05-12T08:03:33Z</time>
      </trkpt>
      <trkpt lat="47.80097" lon="5.06496">
        <ele>369.99</ele>
        <time>2022-05-12T08:03:37Z</time>
      </trkpt>
      <trkpt lat="47.80094" lon="5.06495">
        <ele>369.77</ele>
        <time>2022-05-12T08:03:41Z</time>
      </trkpt>
      <trkpt lat="47.80091" lon="5.06494">
        <ele>369.57</ele>
        <time>2022-05-12T08:03:46Z</time>
      </trkpt>
      <trkpt lat="47.80089" lon="5.06493">
        <ele>369.4</ele>
        <time>2022-05-12T08:04:01Z</time>
      </trkpt>
      <trkpt lat="47.80087" lon="5.06495">
        <ele>369.57</ele>
        <time>2022-05-12T08:04:15Z</time>
      </trkpt>
      <trkpt lat="47.80084" lon="5.06496">
        <ele>369.59</ele>
        <time>2022-05-12T08:04:20Z</time>
      </trkpt>
      <trkpt lat="47.80082" lon="5.065">
        <ele>369.86</ele>
        <time>2022-05-12T08:05:35Z</time>
      </trkpt>
      <trkpt lat="47.8008" lon="5.06503">
        <ele>370.34</ele>
        <time>2022-05-12T08:05:41Z</time>
      </trkpt>
      <trkpt lat="47.80078" lon="5.06506">
        <ele>370.89</ele>
        <time>2022-05-12T08:05:48Z</time>
      </trkpt>
      <trkpt lat="47.80077" lon="5.0651">
        <ele>371.8</ele>
        <time>2022-05-12T08:05:56Z</time>
      </trkpt>
      <trkpt lat="47.80074" lon="5.06511">
        <ele>371.9</ele>
        <time>2022-05-12T08:07:56Z</time>
      </trkpt>
      <trkpt lat="47.80071" lon="5.06513">
        <ele>372.31</ele>
        <time>2022-05-12T08:08:03Z</time>
      </trkpt>
      <trkpt lat="47.80068" lon="5.06514">
        <ele>372.48</ele>
        <time>2022-05-12T08:08:06Z</time>
      </trkpt>
      <trkpt lat="47.80065" lon="5.06515">
        <ele>372.69</ele>
        <time>2022-05-12T08:08:09Z</time>
      </trkpt>
      <trkpt lat="47.80063" lon="5.06518">
        <ele>373.59</ele>
        <time>2022-05-12T08:08:17Z</time>
      </trkpt>
      <trkpt lat="47.80061" lon="5.0652">
        <ele>374.22</ele>
        <time>2022-05-12T08:08:20Z</time>
      </trkpt>
      <trkpt lat="47.80058" lon="5.06522">
        <ele>374.91</ele>
        <time>2022-05-12T08:08:24Z</time>
      </trkpt>
      <trkpt lat="47.80055" lon="5.06524">
        <ele>375.67</ele>
        <time>2022-05-12T08:08:26Z</time>
      </trkpt>
      <trkpt lat="47.80052" lon="5.06525">
        <ele>376.17</ele>
        <time>2022-05-12T08:08:29Z</time>
      </trkpt>
      <trkpt lat="47.80049" lon="5.06526">
        <ele>376.64</ele>
        <time>2022-05-12T08:08:31Z</time>
      </trkpt>
      <trkpt lat="47.80047" lon="5.06528">
        <ele>377.37</ele>
        <time>2022-05-12T08:08:33Z</time>
      </trkpt>
      <trkpt lat="47.80044" lon="5.0653">
        <ele>377.99</ele>
        <time>2022-05-12T08:08:35Z</time>
      </trkpt>
      <trkpt lat="47.80041" lon="5.06531">
        <ele>378.33</ele>
        <time>2022-05-12T08:08:39Z</time>
      </trkpt>
      <trkpt lat="47.80038" lon="5.06533">
        <ele>378.9</ele>
        <time>2022-05-12T08:08:42Z</time>
      </trkpt>
      <trkpt lat="47.80035" lon="5.06534">
        <ele>379.2</ele>
        <time>2022-05-12T08:08:45Z</time>
      </trkpt>
      <trkpt lat="47.80033" lon="5.06536">
        <ele>379.7</ele>
        <time>2022-05-12T08:08:48Z</time>
      </trkpt>
      <trkpt lat="47.8003" lon="5.06539">
        <ele>380.41</ele>
        <time>2022-05-12T08:08:50Z</time>
      </trkpt>
      <trkpt lat="47.80028" lon="5.06541">
        <ele>380.86</ele>
        <time>2022-05-12T08:08:52Z</time>
      </trkpt>
      <trkpt lat="47.80025" lon="5.06543">
        <ele>381.59</ele>
        <time>2022-05-12T08:08:55Z</time>
      </trkpt>
      <trkpt lat="47.80022" lon="5.06545">
        <ele>382.34</ele>
        <time>2022-05-12T08:08:57Z</time>
      </trkpt>
      <trkpt lat="47.8002" lon="5.06546">
        <ele>382.78</ele>
        <time>2022-05-12T08:09:01Z</time>
      </trkpt>
      <trkpt lat="47.80017" lon="5.06547">
        <ele>383.32</ele>
        <time>2022-05-12T08:09:06Z</time>
      </trkpt>
      <trkpt lat="47.80015" lon="5.0655">
        <ele>384.18</ele>
        <time>2022-05-12T08:09:11Z</time>
      </trkpt>
      <trkpt lat="47.80012" lon="5.06552">
        <ele>384.94</ele>
        <time>2022-05-12T08:09:15Z</time>
      </trkpt>
      <trkpt lat="47.8001" lon="5.06555">
        <ele>385.8</ele>
        <time>2022-05-12T08:09:18Z</time>
      </trkpt>
      <trkpt lat="47.80007" lon="5.06558">
        <ele>386.93</ele>
        <time>2022-05-12T08:09:22Z</time>
      </trkpt>
      <trkpt lat="47.80004" lon="5.06559">
        <ele>387.54</ele>
        <time>2022-05-12T08:09:28Z</time>
      </trkpt>
      <trkpt lat="47.80002" lon="5.06561">
        <ele>388.34</ele>
        <time>2022-05-12T08:09:33Z</time>
      </trkpt>
      <trkpt lat="47.79999" lon="5.06563">
        <ele>389.21</ele>
        <time>2022-05-12T08:09:36Z</time>
      </trkpt>
      <trkpt lat="47.79996" lon="5.06563">
        <ele>389.39</ele>
        <time>2022-05-12T08:09:40Z</time>
      </trkpt>
      <trkpt lat="47.79994" lon="5.06566">
        <ele>390.36</ele>
        <time>2022-05-12T08:09:45Z</time>
      </trkpt>
      <trkpt lat="47.79992" lon="5.0657">
        <ele>391.59</ele>
        <time>2022-05-12T08:09:50Z</time>
      </trkpt>
      <trkpt lat="47.7999" lon="5.06573">
        <ele>392.52</ele>
        <time>2022-05-12T08:09:54Z</time>
      </trkpt>
      <trkpt lat="47.79988" lon="5.06577">
        <ele>393.71</ele>
        <time>2022-05-12T08:09:58Z</time>
      </trkpt>
      <trkpt lat="47.79986" lon="5.06581">
        <ele>394.87</ele>
        <time>2022-05-12T08:10:01Z</time>
      </trkpt>
      <trkpt lat="47.79983" lon="5.06583">
        <ele>395.52</ele>
        <time>2022-05-12T08:10:04Z</time>
      </trkpt>
      <trkpt lat="47.7998" lon="5.06585">
        <ele>396.08</ele>
        <time>2022-05-12T08:10:07Z</time>
      </trkpt>
      <trkpt lat="47.79978" lon="5.06586">
        <ele>396.37</ele>
        <time>2022-05-12T08:10:12Z</time>
      </trkpt>
      <trkpt lat="47.79975" lon="5.06586">
        <ele>396.48</ele>
        <time>2022-05-12T08:10:16Z</time>
      </trkpt>
      <trkpt lat="47.79973" lon="5.06589">
        <ele>397.2</ele>
        <time>2022-05-12T08:10:19Z</time>
      </trkpt>
      <trkpt lat="47.7997" lon="5.06592">
        <ele>397.63</ele>
        <time>2022-05-12T08:10:25Z</time>
      </trkpt>
      <trkpt lat="47.79968" lon="5.06595">
        <ele>398.06</ele>
        <time>2022-05-12T08:10:30Z</time>
      </trkpt>
      <trkpt lat="47.79967" lon="5.06599">
        <ele>398.82</ele>
        <time>2022-05-12T08:10:34Z</time>
      </trkpt>
      <trkpt lat="47.79965" lon="5.06602">
        <ele>399.25</ele>
        <time>2022-05-12T08:10:36Z</time>
      </trkpt>
      <trkpt lat="47.79963" lon="5.06606">
        <ele>399.9</ele>
        <time>2022-05-12T08:10:40Z</time>
      </trkpt>
      <trkpt lat="47.79961" lon="5.06611">
        <ele>400.76</ele>
        <time>2022-05-12T08:10:42Z</time>
      </trkpt>
      <trkpt lat="47.79959" lon="5.06614">
        <ele>400.83</ele>
        <time>2022-05-12T08:10:44Z</time>
      </trkpt>
      <trkpt lat="47.79957" lon="5.06618">
        <ele>400.99</ele>
        <time>2022-05-12T08:10:47Z</time>
      </trkpt>
      <trkpt lat="47.79955" lon="5.06621">
        <ele>401.07</ele>
        <time>2022-05-12T08:10:49Z</time>
      </trkpt>
      <trkpt lat="47.79953" lon="5.06625">
        <ele>401.27</ele>
        <time>2022-05-12T08:10:51Z</time>
      </trkpt>
      <trkpt lat="47.79951" lon="5.06629">
        <ele>401.49</ele>
        <time>2022-05-12T08:10:55Z</time>
      </trkpt>
      <trkpt lat="47.79948" lon="5.06633">
        <ele>401.65</ele>
        <time>2022-05-12T08:10:56Z</time>
      </trkpt>
      <trkpt lat="47.79946" lon="5.06637">
        <ele>401.91</ele>
        <time>2022-05-12T08:11:00Z</time>
      </trkpt>
      <trkpt lat="47.79944" lon="5.06641">
        <ele>402.35</ele>
        <time>2022-05-12T08:11:02Z</time>
      </trkpt>
      <trkpt lat="47.79942" lon="5.06644">
        <ele>402.71</ele>
        <time>2022-05-12T08:11:05Z</time>
      </trkpt>
      <trkpt lat="47.79939" lon="5.06647">
        <ele>402.95</ele>
        <time>2022-05-12T08:11:07Z</time>
      </trkpt>
      <trkpt lat="47.79937" lon="5.0665">
        <ele>403.25</ele>
        <time>2022-05-12T08:11:11Z</time>
      </trkpt>
      <trkpt lat="47.79934" lon="5.06652">
        <ele>403.25</ele>
        <time>2022-05-12T08:11:14Z</time>
      </trkpt>
      <trkpt lat="47.79933" lon="5.06656">
        <ele>403.75</ele>
        <time>2022-05-12T08:11:19Z</time>
      </trkpt>
      <trkpt lat="47.79931" lon="5.06659">
        <ele>403.95</ele>
        <time>2022-05-12T08:11:21Z</time>
      </trkpt>
      <trkpt lat="47.79929" lon="5.06664">
        <ele>404.4</ele>
        <time>2022-05-12T08:11:25Z</time>
      </trkpt>
      <trkpt lat="47.79928" lon="5.06667">
        <ele>404.68</ele>
        <time>2022-05-12T08:11:29Z</time>
      </trkpt>
      <trkpt lat="47.79927" lon="5.06672">
        <ele>405.33</ele>
        <time>2022-05-12T08:11:32Z</time>
      </trkpt>
      <trkpt lat="47.79925" lon="5.06676">
        <ele>405.64</ele>
        <time>2022-05-12T08:11:36Z</time>
      </trkpt>
      <trkpt lat="47.79924" lon="5.0668">
        <ele>406.1</ele>
        <time>2022-05-12T08:11:39Z</time>
      </trkpt>
      <trkpt lat="47.79923" lon="5.06686">
        <ele>406.85</ele>
        <time>2022-05-12T08:11:42Z</time>
      </trkpt>
      <trkpt lat="47.79922" lon="5.06691">
        <ele>407.44</ele>
        <time>2022-05-12T08:11:44Z</time>
      </trkpt>
      <trkpt lat="47.79922" lon="5.06695">
        <ele>408.04</ele>
        <time>2022-05-12T08:11:47Z</time>
      </trkpt>
      <trkpt lat="47.79921" lon="5.067">
        <ele>408.55</ele>
        <time>2022-05-12T08:11:50Z</time>
      </trkpt>
      <trkpt lat="47.79919" lon="5.06704">
        <ele>408.77</ele>
        <time>2022-05-12T08:11:52Z</time>
      </trkpt>
      <trkpt lat="47.79916" lon="5.06707">
        <ele>408.7</ele>
        <time>2022-05-12T08:11:55Z</time>
      </trkpt>
      <trkpt lat="47.79914" lon="5.06709">
        <ele>408.67</ele>
        <time>2022-05-12T08:11:59Z</time>
      </trkpt>
      <trkpt lat="47.79912" lon="5.06712">
        <ele>408.79</ele>
        <time>2022-05-12T08:12:02Z</time>
      </trkpt>
      <trkpt lat="47.79909" lon="5.06714">
        <ele>408.63</ele>
        <time>2022-05-12T08:12:04Z</time>
      </trkpt>
      <trkpt lat="47.79907" lon="5.06718">
        <ele>408.95</ele>
        <time>2022-05-12T08:12:07Z</time>
      </trkpt>
      <trkpt lat="47.79905" lon="5.06721">
        <ele>409.13</ele>
        <time>2022-05-12T08:12:09Z</time>
      </trkpt>
      <trkpt lat="47.79903" lon="5.06724">
        <ele>409.16</ele>
        <time>2022-05-12T08:12:11Z</time>
      </trkpt>
      <trkpt lat="47.79901" lon="5.06726">
        <ele>409</ele>
        <time>2022-05-12T08:12:14Z</time>
      </trkpt>
      <trkpt lat="47.79897" lon="5.06729">
        <ele>408.55</ele>
        <time>2022-05-12T08:12:18Z</time>
      </trkpt>
      <trkpt lat="47.79895" lon="5.06732">
        <ele>408.39</ele>
        <time>2022-05-12T08:12:20Z</time>
      </trkpt>
      <trkpt lat="47.79892" lon="5.06734">
        <ele>407.97</ele>
        <time>2022-05-12T08:12:22Z</time>
      </trkpt>
      <trkpt lat="47.7989" lon="5.06738">
        <ele>407.77</ele>
        <time>2022-05-12T08:12:25Z</time>
      </trkpt>
      <trkpt lat="47.79888" lon="5.06741">
        <ele>407.54</ele>
        <time>2022-05-12T08:12:28Z</time>
      </trkpt>
      <trkpt lat="47.79886" lon="5.06745">
        <ele>407.43</ele>
        <time>2022-05-12T08:12:31Z</time>
      </trkpt>
      <trkpt lat="47.79884" lon="5.06749">
        <ele>407.41</ele>
        <time>2022-05-12T08:12:34Z</time>
      </trkpt>
      <trkpt lat="47.79883" lon="5.06753">
        <ele>407.71</ele>
        <time>2022-05-12T08:12:37Z</time>
      </trkpt>
      <trkpt lat="47.79882" lon="5.06758">
        <ele>408.19</ele>
        <time>2022-05-12T08:12:42Z</time>
      </trkpt>
      <trkpt lat="47.7988" lon="5.06761">
        <ele>408.35</ele>
        <time>2022-05-12T08:12:45Z</time>
      </trkpt>
      <trkpt lat="47.79879" lon="5.06765">
        <ele>408.74</ele>
        <time>2022-05-12T08:12:47Z</time>
      </trkpt>
      <trkpt lat="47.79878" lon="5.06769">
        <ele>409.14</ele>
        <time>2022-05-12T08:12:50Z</time>
      </trkpt>
      <trkpt lat="47.79877" lon="5.06773">
        <ele>409.55</ele>
        <time>2022-05-12T08:12:52Z</time>
      </trkpt>
      <trkpt lat="47.79876" lon="5.06778">
        <ele>410.1</ele>
        <time>2022-05-12T08:12:55Z</time>
      </trkpt>
      <trkpt lat="47.79875" lon="5.06782">
        <ele>410.53</ele>
        <time>2022-05-12T08:12:57Z</time>
      </trkpt>
      <trkpt lat="47.79873" lon="5.06786">
        <ele>410.87</ele>
        <time>2022-05-12T08:13:01Z</time>
      </trkpt>
      <trkpt lat="47.79871" lon="5.06789">
        <ele>411.07</ele>
        <time>2022-05-12T08:13:05Z</time>
      </trkpt>
      <trkpt lat="47.7987" lon="5.06793">
        <ele>411.46</ele>
        <time>2022-05-12T08:13:08Z</time>
      </trkpt>
      <trkpt lat="47.79869" lon="5.06797">
        <ele>411.84</ele>
        <time>2022-05-12T08:13:11Z</time>
      </trkpt>
      <trkpt lat="47.79867" lon="5.06801">
        <ele>412.11</ele>
        <time>2022-05-12T08:13:14Z</time>
      </trkpt>
      <trkpt lat="47.79867" lon="5.06805">
        <ele>412.57</ele>
        <time>2022-05-12T08:13:17Z</time>
      </trkpt>
      <trkpt lat="47.79865" lon="5.06808">
        <ele>412.87</ele>
        <time>2022-05-12T08:13:22Z</time>
      </trkpt>
      <trkpt lat="47.79863" lon="5.06811">
        <ele>413.2</ele>
        <time>2022-05-12T08:13:26Z</time>
      </trkpt>
      <trkpt lat="47.79862" lon="5.06816">
        <ele>413.99</ele>
        <time>2022-05-12T08:13:28Z</time>
      </trkpt>
      <trkpt lat="47.7986" lon="5.0682">
        <ele>414.66</ele>
        <time>2022-05-12T08:13:31Z</time>
      </trkpt>
      <trkpt lat="47.79858" lon="5.06824">
        <ele>415.51</ele>
        <time>2022-05-12T08:13:34Z</time>
      </trkpt>
      <trkpt lat="47.79857" lon="5.06828">
        <ele>416.31</ele>
        <time>2022-05-12T08:13:37Z</time>
      </trkpt>
      <trkpt lat="47.79857" lon="5.06833">
        <ele>417.23</ele>
        <time>2022-05-12T08:13:41Z</time>
      </trkpt>
      <trkpt lat="47.79856" lon="5.06838">
        <ele>418.65</ele>
        <time>2022-05-12T08:13:45Z</time>
      </trkpt>
      <trkpt lat="47.79855" lon="5.06842">
        <ele>419.8</ele>
        <time>2022-05-12T08:13:49Z</time>
      </trkpt>
      <trkpt lat="47.79853" lon="5.06846">
        <ele>420.97</ele>
        <time>2022-05-12T08:13:51Z</time>
      </trkpt>
      <trkpt lat="47.79851" lon="5.0685">
        <ele>422.09</ele>
        <time>2022-05-12T08:13:54Z</time>
      </trkpt>
      <trkpt lat="47.79848" lon="5.06853">
        <ele>422.94</ele>
        <time>2022-05-12T08:13:56Z</time>
      </trkpt>
      <trkpt lat="47.79846" lon="5.06857">
        <ele>423.98</ele>
        <time>2022-05-12T08:13:59Z</time>
      </trkpt>
      <trkpt lat="47.79844" lon="5.06862">
        <ele>425.26</ele>
        <time>2022-05-12T08:14:01Z</time>
      </trkpt>
      <trkpt lat="47.79843" lon="5.06865">
        <ele>426.12</ele>
        <time>2022-05-12T08:14:03Z</time>
      </trkpt>
      <trkpt lat="47.79841" lon="5.06869">
        <ele>427.27</ele>
        <time>2022-05-12T08:14:05Z</time>
      </trkpt>
      <trkpt lat="47.79839" lon="5.06873">
        <ele>428.42</ele>
        <time>2022-05-12T08:14:08Z</time>
      </trkpt>
      <trkpt lat="47.79836" lon="5.06877">
        <ele>429.58</ele>
        <time>2022-05-12T08:14:10Z</time>
      </trkpt>
      <trkpt lat="47.79835" lon="5.0688">
        <ele>430.44</ele>
        <time>2022-05-12T08:14:13Z</time>
      </trkpt>
      <trkpt lat="47.79834" lon="5.06884">
        <ele>431.59</ele>
        <time>2022-05-12T08:14:18Z</time>
      </trkpt>
      <trkpt lat="47.79832" lon="5.06888">
        <ele>432.7</ele>
        <time>2022-05-12T08:14:22Z</time>
      </trkpt>
      <trkpt lat="47.79831" lon="5.06892">
        <ele>433.47</ele>
        <time>2022-05-12T08:14:26Z</time>
      </trkpt>
      <trkpt lat="47.79829" lon="5.06895">
        <ele>433.91</ele>
        <time>2022-05-12T08:14:30Z</time>
      </trkpt>
      <trkpt lat="47.79827" lon="5.06899">
        <ele>434.51</ele>
        <time>2022-05-12T08:14:34Z</time>
      </trkpt>
      <trkpt lat="47.79824" lon="5.06901">
        <ele>434.7</ele>
        <time>2022-05-12T08:14:36Z</time>
      </trkpt>
      <trkpt lat="47.79821" lon="5.06903">
        <ele>434.87</ele>
        <time>2022-05-12T08:14:40Z</time>
      </trkpt>
      <trkpt lat="47.79819" lon="5.06906">
        <ele>435.25</ele>
        <time>2022-05-12T08:14:42Z</time>
      </trkpt>
      <trkpt lat="47.79816" lon="5.06907">
        <ele>435.23</ele>
        <time>2022-05-12T08:14:45Z</time>
      </trkpt>
      <trkpt lat="47.79813" lon="5.06909">
        <ele>435.36</ele>
        <time>2022-05-12T08:14:47Z</time>
      </trkpt>
      <trkpt lat="47.79811" lon="5.0691">
        <ele>435.38</ele>
        <time>2022-05-12T08:14:50Z</time>
      </trkpt>
      <trkpt lat="47.79807" lon="5.06911">
        <ele>435.28</ele>
        <time>2022-05-12T08:14:55Z</time>
      </trkpt>
      <trkpt lat="47.79805" lon="5.06913">
        <ele>435.47</ele>
        <time>2022-05-12T08:14:58Z</time>
      </trkpt>
      <trkpt lat="47.79802" lon="5.06915">
        <ele>435.76</ele>
        <time>2022-05-12T08:15:00Z</time>
      </trkpt>
      <trkpt lat="47.79799" lon="5.06917">
        <ele>436.06</ele>
        <time>2022-05-12T08:15:03Z</time>
      </trkpt>
      <trkpt lat="47.79796" lon="5.06919">
        <ele>436.42</ele>
        <time>2022-05-12T08:15:05Z</time>
      </trkpt>
      <trkpt lat="47.79793" lon="5.0692">
        <ele>436.56</ele>
        <time>2022-05-12T08:15:08Z</time>
      </trkpt>
      <trkpt lat="47.7979" lon="5.06921">
        <ele>436.67</ele>
        <time>2022-05-12T08:15:10Z</time>
      </trkpt>
      <trkpt lat="47.79787" lon="5.06923">
        <ele>436.91</ele>
        <time>2022-05-12T08:15:12Z</time>
      </trkpt>
      <trkpt lat="47.79785" lon="5.06924">
        <ele>437</ele>
        <time>2022-05-12T08:15:15Z</time>
      </trkpt>
      <trkpt lat="47.79782" lon="5.06925">
        <ele>437.04</ele>
        <time>2022-05-12T08:15:17Z</time>
      </trkpt>
      <trkpt lat="47.79779" lon="5.06927">
        <ele>437.17</ele>
        <time>2022-05-12T08:15:18Z</time>
      </trkpt>
      <trkpt lat="47.79776" lon="5.06927">
        <ele>437.09</ele>
        <time>2022-05-12T08:15:21Z</time>
      </trkpt>
      <trkpt lat="47.79772" lon="5.06928">
        <ele>437.14</ele>
        <time>2022-05-12T08:15:25Z</time>
      </trkpt>
      <trkpt lat="47.79769" lon="5.06928">
        <ele>437.1</ele>
        <time>2022-05-12T08:15:27Z</time>
      </trkpt>
      <trkpt lat="47.79766" lon="5.06929">
        <ele>437.14</ele>
        <time>2022-05-12T08:15:31Z</time>
      </trkpt>
      <trkpt lat="47.79763" lon="5.06928">
        <ele>437.01</ele>
        <time>2022-05-12T08:15:33Z</time>
      </trkpt>
      <trkpt lat="47.7976" lon="5.06928">
        <ele>436.96</ele>
        <time>2022-05-12T08:15:37Z</time>
      </trkpt>
      <trkpt lat="47.79756" lon="5.06927">
        <ele>436.82</ele>
        <time>2022-05-12T08:15:40Z</time>
      </trkpt>
      <trkpt lat="47.79753" lon="5.06926">
        <ele>436.71</ele>
        <time>2022-05-12T08:15:43Z</time>
      </trkpt>
      <trkpt lat="47.7975" lon="5.06926">
        <ele>436.67</ele>
        <time>2022-05-12T08:15:44Z</time>
      </trkpt>
      <trkpt lat="47.79746" lon="5.06925">
        <ele>436.6</ele>
        <time>2022-05-12T08:15:47Z</time>
      </trkpt>
      <trkpt lat="47.79743" lon="5.06925">
        <ele>436.6</ele>
        <time>2022-05-12T08:15:49Z</time>
      </trkpt>
      <trkpt lat="47.7974" lon="5.06925">
        <ele>436.6</ele>
        <time>2022-05-12T08:15:52Z</time>
      </trkpt>
      <trkpt lat="47.79737" lon="5.06925">
        <ele>436.6</ele>
        <time>2022-05-12T08:15:55Z</time>
      </trkpt>
      <trkpt lat="47.79733" lon="5.06926">
        <ele>436.67</ele>
        <time>2022-05-12T08:15:57Z</time>
      </trkpt>
      <trkpt lat="47.79731" lon="5.06928">
        <ele>436.82</ele>
        <time>2022-05-12T08:16:00Z</time>
      </trkpt>
      <trkpt lat="47.79728" lon="5.06929">
        <ele>436.89</ele>
        <time>2022-05-12T08:16:03Z</time>
      </trkpt>
      <trkpt lat="47.79725" lon="5.06929">
        <ele>436.89</ele>
        <time>2022-05-12T08:16:05Z</time>
      </trkpt>
      <trkpt lat="47.79722" lon="5.06929">
        <ele>436.89</ele>
        <time>2022-05-12T08:16:08Z</time>
      </trkpt>
      <trkpt lat="47.79719" lon="5.0693">
        <ele>436.96</ele>
        <time>2022-05-12T08:16:11Z</time>
      </trkpt>
      <trkpt lat="47.79717" lon="5.06931">
        <ele>437.04</ele>
        <time>2022-05-12T08:16:15Z</time>
      </trkpt>
      <trkpt lat="47.79714" lon="5.06935">
        <ele>437.41</ele>
        <time>2022-05-12T08:16:18Z</time>
      </trkpt>
      <trkpt lat="47.79712" lon="5.06938">
        <ele>437.73</ele>
        <time>2022-05-12T08:16:23Z</time>
      </trkpt>
      <trkpt lat="47.7971" lon="5.06941">
        <ele>438.08</ele>
        <time>2022-05-12T08:16:26Z</time>
      </trkpt>
      <trkpt lat="47.79708" lon="5.06944">
        <ele>438.46</ele>
        <time>2022-05-12T08:16:27Z</time>
      </trkpt>
      <trkpt lat="47.79705" lon="5.06948">
        <ele>438.96</ele>
        <time>2022-05-12T08:16:30Z</time>
      </trkpt>
      <trkpt lat="47.79703" lon="5.06951">
        <ele>439.33</ele>
        <time>2022-05-12T08:16:32Z</time>
      </trkpt>
      <trkpt lat="47.79701" lon="5.06955">
        <ele>439.81</ele>
        <time>2022-05-12T08:16:35Z</time>
      </trkpt>
      <trkpt lat="47.79699" lon="5.06959">
        <ele>440.32</ele>
        <time>2022-05-12T08:16:37Z</time>
      </trkpt>
      <trkpt lat="47.79697" lon="5.06962">
        <ele>440.75</ele>
        <time>2022-05-12T08:16:39Z</time>
      </trkpt>
      <trkpt lat="47.79696" lon="5.06966">
        <ele>441.23</ele>
        <time>2022-05-12T08:16:43Z</time>
      </trkpt>
      <trkpt lat="47.79694" lon="5.0697">
        <ele>441.81</ele>
        <time>2022-05-12T08:16:45Z</time>
      </trkpt>
      <trkpt lat="47.79692" lon="5.06973">
        <ele>442.29</ele>
        <time>2022-05-12T08:16:49Z</time>
      </trkpt>
      <trkpt lat="47.7969" lon="5.06977">
        <ele>442.65</ele>
        <time>2022-05-12T08:16:52Z</time>
      </trkpt>
      <trkpt lat="47.79688" lon="5.06979">
        <ele>442.94</ele>
        <time>2022-05-12T08:16:54Z</time>
      </trkpt>
      <trkpt lat="47.79685" lon="5.06982">
        <ele>443.37</ele>
        <time>2022-05-12T08:16:57Z</time>
      </trkpt>
      <trkpt lat="47.79683" lon="5.06986">
        <ele>443.73</ele>
        <time>2022-05-12T08:16:59Z</time>
      </trkpt>
      <trkpt lat="47.79681" lon="5.0699">
        <ele>444.09</ele>
        <time>2022-05-12T08:17:02Z</time>
      </trkpt>
      <trkpt lat="47.7968" lon="5.06993">
        <ele>444.31</ele>
        <time>2022-05-12T08:17:04Z</time>
      </trkpt>
      <trkpt lat="47.79679" lon="5.06998">
        <ele>444.6</ele>
        <time>2022-05-12T08:17:06Z</time>
      </trkpt>
      <trkpt lat="47.79678" lon="5.07002">
        <ele>444.81</ele>
        <time>2022-05-12T08:17:09Z</time>
      </trkpt>
      <trkpt lat="47.79677" lon="5.07005">
        <ele>444.95</ele>
        <time>2022-05-12T08:17:10Z</time>
      </trkpt>
      <trkpt lat="47.79675" lon="5.07009">
        <ele>445.2</ele>
        <time>2022-05-12T08:17:13Z</time>
      </trkpt>
      <trkpt lat="47.79674" lon="5.07014">
        <ele>445.34</ele>
        <time>2022-05-12T08:17:17Z</time>
      </trkpt>
      <trkpt lat="47.79674" lon="5.07019">
        <ele>445.39</ele>
        <time>2022-05-12T08:17:21Z</time>
      </trkpt>
      <trkpt lat="47.79673" lon="5.07024">
        <ele>445.51</ele>
        <time>2022-05-12T08:17:24Z</time>
      </trkpt>
      <trkpt lat="47.79671" lon="5.07028">
        <ele>445.69</ele>
        <time>2022-05-12T08:17:27Z</time>
      </trkpt>
      <trkpt lat="47.7967" lon="5.07033">
        <ele>445.68</ele>
        <time>2022-05-12T08:17:31Z</time>
      </trkpt>
      <trkpt lat="47.7967" lon="5.07038">
        <ele>445.61</ele>
        <time>2022-05-12T08:17:35Z</time>
      </trkpt>
      <trkpt lat="47.79669" lon="5.07043">
        <ele>445.51</ele>
        <time>2022-05-12T08:17:40Z</time>
      </trkpt>
      <trkpt lat="47.79671" lon="5.07046">
        <ele>445.54</ele>
        <time>2022-05-12T08:17:54Z</time>
      </trkpt>
      <trkpt lat="47.79673" lon="5.07049">
        <ele>445.65</ele>
        <time>2022-05-12T08:18:08Z</time>
      </trkpt>
      <trkpt lat="47.79675" lon="5.07052">
        <ele>445.84</ele>
        <time>2022-05-12T08:18:14Z</time>
      </trkpt>
      <trkpt lat="47.79677" lon="5.07056">
        <ele>446.18</ele>
        <time>2022-05-12T08:18:17Z</time>
      </trkpt>
      <trkpt lat="47.79674" lon="5.07058">
        <ele>446.14</ele>
        <time>2022-05-12T08:18:36Z</time>
      </trkpt>
      <trkpt lat="47.79671" lon="5.07058">
        <ele>445.82</ele>
        <time>2022-05-12T08:18:41Z</time>
      </trkpt>
      <trkpt lat="47.79669" lon="5.07055">
        <ele>445.26</ele>
        <time>2022-05-12T08:18:46Z</time>
      </trkpt>
      <trkpt lat="47.79668" lon="5.07051">
        <ele>445.27</ele>
        <time>2022-05-12T08:18:48Z</time>
      </trkpt>
      <trkpt lat="47.79666" lon="5.07047">
        <ele>445.33</ele>
        <time>2022-05-12T08:18:50Z</time>
      </trkpt>
      <trkpt lat="47.79665" lon="5.07044">
        <ele>445.44</ele>
        <time>2022-05-12T08:18:54Z</time>
      </trkpt>
      <trkpt lat="47.79663" lon="5.07041">
        <ele>445.51</ele>
        <time>2022-05-12T08:18:56Z</time>
      </trkpt>
      <trkpt lat="47.79661" lon="5.07037">
        <ele>445.53</ele>
        <time>2022-05-12T08:18:59Z</time>
      </trkpt>
      <trkpt lat="47.79662" lon="5.07033">
        <ele>445.6</ele>
        <time>2022-05-12T08:19:02Z</time>
      </trkpt>
      <trkpt lat="47.79661" lon="5.07029">
        <ele>445.58</ele>
        <time>2022-05-12T08:19:06Z</time>
      </trkpt>
      <trkpt lat="47.7966" lon="5.07024">
        <ele>445.55</ele>
        <time>2022-05-12T08:19:10Z</time>
      </trkpt>
      <trkpt lat="47.79659" lon="5.0702">
        <ele>445.53</ele>
        <time>2022-05-12T08:19:15Z</time>
      </trkpt>
      <trkpt lat="47.7966" lon="5.07016">
        <ele>445.62</ele>
        <time>2022-05-12T08:21:23Z</time>
      </trkpt>
      <trkpt lat="47.79662" lon="5.07013">
        <ele>445.75</ele>
        <time>2022-05-12T08:21:28Z</time>
      </trkpt>
      <trkpt lat="47.79664" lon="5.0701">
        <ele>445.87</ele>
        <time>2022-05-12T08:21:30Z</time>
      </trkpt>
      <trkpt lat="47.79662" lon="5.07006">
        <ele>445.8</ele>
        <time>2022-05-12T08:23:56Z</time>
      </trkpt>
      <trkpt lat="47.79659" lon="5.07006">
        <ele>445.66</ele>
        <time>2022-05-12T08:23:59Z</time>
      </trkpt>
      <trkpt lat="47.79656" lon="5.07007">
        <ele>445.52</ele>
        <time>2022-05-12T08:24:14Z</time>
      </trkpt>
      <trkpt lat="47.79653" lon="5.07007">
        <ele>445.38</ele>
        <time>2022-05-12T08:24:18Z</time>
      </trkpt>
      <trkpt lat="47.7965" lon="5.07007">
        <ele>445.25</ele>
        <time>2022-05-12T08:24:22Z</time>
      </trkpt>
      <trkpt lat="47.79647" lon="5.07007">
        <ele>445.11</ele>
        <time>2022-05-12T08:24:23Z</time>
      </trkpt>
      <trkpt lat="47.79644" lon="5.07005">
        <ele>445.04</ele>
        <time>2022-05-12T08:24:26Z</time>
      </trkpt>
      <trkpt lat="47.79642" lon="5.07004">
        <ele>444.98</ele>
        <time>2022-05-12T08:24:28Z</time>
      </trkpt>
      <trkpt lat="47.79638" lon="5.07004">
        <ele>445.11</ele>
        <time>2022-05-12T08:24:32Z</time>
      </trkpt>
      <trkpt lat="47.79635" lon="5.07005">
        <ele>445.91</ele>
        <time>2022-05-12T08:24:35Z</time>
      </trkpt>
      <trkpt lat="47.79632" lon="5.07006">
        <ele>446.71</ele>
        <time>2022-05-12T08:24:40Z</time>
      </trkpt>
      <trkpt lat="47.79629" lon="5.07004">
        <ele>447.65</ele>
        <time>2022-05-12T08:24:44Z</time>
      </trkpt>
      <trkpt lat="47.79626" lon="5.07002">
        <ele>448.61</ele>
        <time>2022-05-12T08:24:48Z</time>
      </trkpt>
      <trkpt lat="47.79623" lon="5.07001">
        <ele>449.52</ele>
        <time>2022-05-12T08:24:50Z</time>
      </trkpt>
      <trkpt lat="47.79621" lon="5.06999">
        <ele>450.16</ele>
        <time>2022-05-12T08:24:52Z</time>
      </trkpt>
      <trkpt lat="47.79618" lon="5.06997">
        <ele>451.07</ele>
        <time>2022-05-12T08:24:55Z</time>
      </trkpt>
      <trkpt lat="47.79615" lon="5.06995">
        <ele>452.01</ele>
        <time>2022-05-12T08:24:57Z</time>
      </trkpt>
      <trkpt lat="47.79613" lon="5.06992">
        <ele>452.7</ele>
        <time>2022-05-12T08:24:59Z</time>
      </trkpt>
      <trkpt lat="47.7961" lon="5.0699">
        <ele>453.35</ele>
        <time>2022-05-12T08:25:04Z</time>
      </trkpt>
      <trkpt lat="47.79608" lon="5.06988">
        <ele>453.38</ele>
        <time>2022-05-12T08:25:06Z</time>
      </trkpt>
      <trkpt lat="47.79605" lon="5.06986">
        <ele>453.39</ele>
        <time>2022-05-12T08:25:10Z</time>
      </trkpt>
      <trkpt lat="47.79603" lon="5.06985">
        <ele>453.38</ele>
        <time>2022-05-12T08:25:12Z</time>
      </trkpt>
      <trkpt lat="47.796" lon="5.06985">
        <ele>453.32</ele>
        <time>2022-05-12T08:25:17Z</time>
      </trkpt>
      <trkpt lat="47.79597" lon="5.06983">
        <ele>453.3</ele>
        <time>2022-05-12T08:25:20Z</time>
      </trkpt>
      <trkpt lat="47.79593" lon="5.06981">
        <ele>453.24</ele>
        <time>2022-05-12T08:25:23Z</time>
      </trkpt>
      <trkpt lat="47.7959" lon="5.0698">
        <ele>453.17</ele>
        <time>2022-05-12T08:25:26Z</time>
      </trkpt>
      <trkpt lat="47.79588" lon="5.06978">
        <ele>453.13</ele>
        <time>2022-05-12T08:25:31Z</time>
      </trkpt>
      <trkpt lat="47.79585" lon="5.06976">
        <ele>453.05</ele>
        <time>2022-05-12T08:25:34Z</time>
      </trkpt>
      <trkpt lat="47.79583" lon="5.06973">
        <ele>452.99</ele>
        <time>2022-05-12T08:25:37Z</time>
      </trkpt>
      <trkpt lat="47.79581" lon="5.06971">
        <ele>452.88</ele>
        <time>2022-05-12T08:25:39Z</time>
      </trkpt>
      <trkpt lat="47.79578" lon="5.06967">
        <ele>452.66</ele>
        <time>2022-05-12T08:25:46Z</time>
      </trkpt>
      <trkpt lat="47.79576" lon="5.06965">
        <ele>452.54</ele>
        <time>2022-05-12T08:25:50Z</time>
      </trkpt>
      <trkpt lat="47.79573" lon="5.06964">
        <ele>452.44</ele>
        <time>2022-05-12T08:25:52Z</time>
      </trkpt>
      <trkpt lat="47.7957" lon="5.06963">
        <ele>452.35</ele>
        <time>2022-05-12T08:25:54Z</time>
      </trkpt>
      <trkpt lat="47.79567" lon="5.06962">
        <ele>452.26</ele>
        <time>2022-05-12T08:25:57Z</time>
      </trkpt>
      <trkpt lat="47.79564" lon="5.06962">
        <ele>452.19</ele>
        <time>2022-05-12T08:25:59Z</time>
      </trkpt>
      <trkpt lat="47.79561" lon="5.06961">
        <ele>452.12</ele>
        <time>2022-05-12T08:26:02Z</time>
      </trkpt>
      <trkpt lat="47.79558" lon="5.06959">
        <ele>452.05</ele>
        <time>2022-05-12T08:26:05Z</time>
      </trkpt>
      <trkpt lat="47.79555" lon="5.06957">
        <ele>451.99</ele>
        <time>2022-05-12T08:26:08Z</time>
      </trkpt>
      <trkpt lat="47.79552" lon="5.06955">
        <ele>451.95</ele>
        <time>2022-05-12T08:26:12Z</time>
      </trkpt>
      <trkpt lat="47.7955" lon="5.06954">
        <ele>451.93</ele>
        <time>2022-05-12T08:26:16Z</time>
      </trkpt>
      <trkpt lat="47.79547" lon="5.06953">
        <ele>451.91</ele>
        <time>2022-05-12T08:26:19Z</time>
      </trkpt>
      <trkpt lat="47.79544" lon="5.06952">
        <ele>451.89</ele>
        <time>2022-05-12T08:26:22Z</time>
      </trkpt>
      <trkpt lat="47.7954" lon="5.06951">
        <ele>451.87</ele>
        <time>2022-05-12T08:26:25Z</time>
      </trkpt>
      <trkpt lat="47.79537" lon="5.06948">
        <ele>451.91</ele>
        <time>2022-05-12T08:26:31Z</time>
      </trkpt>
      <trkpt lat="47.79535" lon="5.06946">
        <ele>451.96</ele>
        <time>2022-05-12T08:26:33Z</time>
      </trkpt>
      <trkpt lat="47.79532" lon="5.06944">
        <ele>451.98</ele>
        <time>2022-05-12T08:26:35Z</time>
      </trkpt>
      <trkpt lat="47.7953" lon="5.06942">
        <ele>451.91</ele>
        <time>2022-05-12T08:26:37Z</time>
      </trkpt>
      <trkpt lat="47.79526" lon="5.0694">
        <ele>451.98</ele>
        <time>2022-05-12T08:26:41Z</time>
      </trkpt>
      <trkpt lat="47.79524" lon="5.06938">
        <ele>452.07</ele>
        <time>2022-05-12T08:26:43Z</time>
      </trkpt>
      <trkpt lat="47.79521" lon="5.06936">
        <ele>452.26</ele>
        <time>2022-05-12T08:26:45Z</time>
      </trkpt>
      <trkpt lat="47.79518" lon="5.06934">
        <ele>452.46</ele>
        <time>2022-05-12T08:26:48Z</time>
      </trkpt>
      <trkpt lat="47.79516" lon="5.06931">
        <ele>452.57</ele>
        <time>2022-05-12T08:26:51Z</time>
      </trkpt>
      <trkpt lat="47.79513" lon="5.06929">
        <ele>452.8</ele>
        <time>2022-05-12T08:26:55Z</time>
      </trkpt>
      <trkpt lat="47.79511" lon="5.06927">
        <ele>452.96</ele>
        <time>2022-05-12T08:26:58Z</time>
      </trkpt>
      <trkpt lat="47.79508" lon="5.06926">
        <ele>453.23</ele>
        <time>2022-05-12T08:27:01Z</time>
      </trkpt>
      <trkpt lat="47.79505" lon="5.06925">
        <ele>453.51</ele>
        <time>2022-05-12T08:27:04Z</time>
      </trkpt>
      <trkpt lat="47.79501" lon="5.06925">
        <ele>453.9</ele>
        <time>2022-05-12T08:27:08Z</time>
      </trkpt>
      <trkpt lat="47.79498" lon="5.06924">
        <ele>454.07</ele>
        <time>2022-05-12T08:27:10Z</time>
      </trkpt>
      <trkpt lat="47.79495" lon="5.06923">
        <ele>454.18</ele>
        <time>2022-05-12T08:27:13Z</time>
      </trkpt>
      <trkpt lat="47.79492" lon="5.06921">
        <ele>454.29</ele>
        <time>2022-05-12T08:27:16Z</time>
      </trkpt>
      <trkpt lat="47.7949" lon="5.0692">
        <ele>454.36</ele>
        <time>2022-05-12T08:27:19Z</time>
      </trkpt>
      <trkpt lat="47.79487" lon="5.06918">
        <ele>454.47</ele>
        <time>2022-05-12T08:27:23Z</time>
      </trkpt>
      <trkpt lat="47.79484" lon="5.06916">
        <ele>454.51</ele>
        <time>2022-05-12T08:27:25Z</time>
      </trkpt>
      <trkpt lat="47.79481" lon="5.06915">
        <ele>454.52</ele>
        <time>2022-05-12T08:27:28Z</time>
      </trkpt>
      <trkpt lat="47.79478" lon="5.06913">
        <ele>454.42</ele>
        <time>2022-05-12T08:27:31Z</time>
      </trkpt>
      <trkpt lat="47.79475" lon="5.06911">
        <ele>454.31</ele>
        <time>2022-05-12T08:27:35Z</time>
      </trkpt>
      <trkpt lat="47.79472" lon="5.0691">
        <ele>454.26</ele>
        <time>2022-05-12T08:27:38Z</time>
      </trkpt>
      <trkpt lat="47.7947" lon="5.06909">
        <ele>454</ele>
        <time>2022-05-12T08:27:41Z</time>
      </trkpt>
      <trkpt lat="47.79467" lon="5.06908">
        <ele>453.68</ele>
        <time>2022-05-12T08:27:45Z</time>
      </trkpt>
      <trkpt lat="47.79464" lon="5.06906">
        <ele>453.3</ele>
        <time>2022-05-12T08:27:47Z</time>
      </trkpt>
      <trkpt lat="47.79461" lon="5.06904">
        <ele>452.97</ele>
        <time>2022-05-12T08:27:51Z</time>
      </trkpt>
      <trkpt lat="47.79458" lon="5.06903">
        <ele>452.74</ele>
        <time>2022-05-12T08:27:55Z</time>
      </trkpt>
      <trkpt lat="47.79456" lon="5.06901">
        <ele>452.54</ele>
        <time>2022-05-12T08:27:58Z</time>
      </trkpt>
      <trkpt lat="47.79453" lon="5.06898">
        <ele>452.3</ele>
        <time>2022-05-12T08:28:01Z</time>
      </trkpt>
      <trkpt lat="47.7945" lon="5.06897">
        <ele>452.18</ele>
        <time>2022-05-12T08:28:04Z</time>
      </trkpt>
      <trkpt lat="47.79447" lon="5.06895">
        <ele>452.06</ele>
        <time>2022-05-12T08:28:07Z</time>
      </trkpt>
      <trkpt lat="47.79445" lon="5.06893">
        <ele>452.01</ele>
        <time>2022-05-12T08:28:11Z</time>
      </trkpt>
      <trkpt lat="47.79442" lon="5.06891">
        <ele>451.98</ele>
        <time>2022-05-12T08:28:14Z</time>
      </trkpt>
      <trkpt lat="47.79439" lon="5.0689">
        <ele>451.98</ele>
        <time>2022-05-12T08:28:17Z</time>
      </trkpt>
      <trkpt lat="47.79436" lon="5.06887">
        <ele>452.07</ele>
        <time>2022-05-12T08:28:21Z</time>
      </trkpt>
      <trkpt lat="47.79435" lon="5.06884">
        <ele>452.18</ele>
        <time>2022-05-12T08:28:24Z</time>
      </trkpt>
      <trkpt lat="47.79433" lon="5.0688">
        <ele>452.32</ele>
        <time>2022-05-12T08:28:29Z</time>
      </trkpt>
      <trkpt lat="47.79432" lon="5.06877">
        <ele>452.43</ele>
        <time>2022-05-12T08:28:34Z</time>
      </trkpt>
      <trkpt lat="47.79431" lon="5.06873">
        <ele>452.57</ele>
        <time>2022-05-12T08:28:39Z</time>
      </trkpt>
      <trkpt lat="47.79429" lon="5.0687">
        <ele>452.68</ele>
        <time>2022-05-12T08:28:46Z</time>
      </trkpt>
      <trkpt lat="47.79427" lon="5.06866">
        <ele>452.82</ele>
        <time>2022-05-12T08:28:50Z</time>
      </trkpt>
      <trkpt lat="47.79425" lon="5.06863">
        <ele>452.93</ele>
        <time>2022-05-12T08:28:52Z</time>
      </trkpt>
      <trkpt lat="47.79423" lon="5.06859">
        <ele>452.87</ele>
        <time>2022-05-12T08:28:55Z</time>
      </trkpt>
      <trkpt lat="47.79421" lon="5.06856">
        <ele>452.66</ele>
        <time>2022-05-12T08:28:58Z</time>
      </trkpt>
      <trkpt lat="47.7942" lon="5.06851">
        <ele>452.32</ele>
        <time>2022-05-12T08:29:03Z</time>
      </trkpt>
      <trkpt lat="47.79419" lon="5.06847">
        <ele>452.03</ele>
        <time>2022-05-12T08:29:07Z</time>
      </trkpt>
      <trkpt lat="47.79418" lon="5.06843">
        <ele>451.73</ele>
        <time>2022-05-12T08:29:12Z</time>
      </trkpt>
      <trkpt lat="47.79417" lon="5.06839">
        <ele>451.42</ele>
        <time>2022-05-12T08:29:16Z</time>
      </trkpt>
      <trkpt lat="47.79417" lon="5.06835">
        <ele>451.13</ele>
        <time>2022-05-12T08:29:18Z</time>
      </trkpt>
      <trkpt lat="47.79417" lon="5.0683">
        <ele>450.53</ele>
        <time>2022-05-12T08:29:21Z</time>
      </trkpt>
      <trkpt lat="47.79416" lon="5.06827">
        <ele>450.02</ele>
        <time>2022-05-12T08:29:25Z</time>
      </trkpt>
      <trkpt lat="47.79415" lon="5.06822">
        <ele>449.21</ele>
        <time>2022-05-12T08:29:29Z</time>
      </trkpt>
      <trkpt lat="47.79414" lon="5.06818">
        <ele>448.56</ele>
        <time>2022-05-12T08:29:33Z</time>
      </trkpt>
      <trkpt lat="47.79413" lon="5.06814">
        <ele>447.91</ele>
        <time>2022-05-12T08:29:37Z</time>
      </trkpt>
      <trkpt lat="47.79414" lon="5.0681">
        <ele>447.43</ele>
        <time>2022-05-12T08:29:41Z</time>
      </trkpt>
      <trkpt lat="47.79415" lon="5.06805">
        <ele>446.78</ele>
        <time>2022-05-12T08:29:46Z</time>
      </trkpt>
      <trkpt lat="47.79417" lon="5.06801">
        <ele>446.2</ele>
        <time>2022-05-12T08:29:49Z</time>
      </trkpt>
      <trkpt lat="47.79418" lon="5.06797">
        <ele>445.54</ele>
        <time>2022-05-12T08:29:53Z</time>
      </trkpt>
      <trkpt lat="47.79419" lon="5.06793">
        <ele>444.87</ele>
        <time>2022-05-12T08:29:56Z</time>
      </trkpt>
      <trkpt lat="47.7942" lon="5.06789">
        <ele>444.19</ele>
        <time>2022-05-12T08:30:02Z</time>
      </trkpt>
      <trkpt lat="47.79419" lon="5.06785">
        <ele>443.41</ele>
        <time>2022-05-12T08:30:07Z</time>
      </trkpt>
      <trkpt lat="47.79418" lon="5.06781">
        <ele>442.63</ele>
        <time>2022-05-12T08:30:10Z</time>
      </trkpt>
      <trkpt lat="47.79417" lon="5.06777">
        <ele>441.87</ele>
        <time>2022-05-12T08:30:13Z</time>
      </trkpt>
      <trkpt lat="47.79417" lon="5.06772">
        <ele>440.97</ele>
        <time>2022-05-12T08:30:15Z</time>
      </trkpt>
      <trkpt lat="47.79418" lon="5.06768">
        <ele>440.3</ele>
        <time>2022-05-12T08:30:19Z</time>
      </trkpt>
      <trkpt lat="47.79417" lon="5.06764">
        <ele>439.54</ele>
        <time>2022-05-12T08:30:22Z</time>
      </trkpt>
      <trkpt lat="47.79417" lon="5.0676">
        <ele>438.82</ele>
        <time>2022-05-12T08:30:27Z</time>
      </trkpt>
      <trkpt lat="47.79418" lon="5.06756">
        <ele>438.17</ele>
        <time>2022-05-12T08:30:33Z</time>
      </trkpt>
      <trkpt lat="47.79418" lon="5.06751">
        <ele>437.27</ele>
        <time>2022-05-12T08:30:38Z</time>
      </trkpt>
      <trkpt lat="47.79418" lon="5.06747">
        <ele>436.86</ele>
        <time>2022-05-12T08:30:41Z</time>
      </trkpt>
      <trkpt lat="47.79416" lon="5.06743">
        <ele>436.53</ele>
        <time>2022-05-12T08:30:46Z</time>
      </trkpt>
      <trkpt lat="47.79414" lon="5.06739">
        <ele>436.38</ele>
        <time>2022-05-12T08:30:48Z</time>
      </trkpt>
      <trkpt lat="47.79411" lon="5.06736">
        <ele>436.4</ele>
        <time>2022-05-12T08:30:52Z</time>
      </trkpt>
      <trkpt lat="47.7941" lon="5.06732">
        <ele>436.26</ele>
        <time>2022-05-12T08:30:59Z</time>
      </trkpt>
      <trkpt lat="47.79409" lon="5.06729">
        <ele>436.18</ele>
        <time>2022-05-12T08:31:04Z</time>
      </trkpt>
      <trkpt lat="47.79407" lon="5.06725">
        <ele>436.17</ele>
        <time>2022-05-12T08:31:10Z</time>
      </trkpt>
      <trkpt lat="47.79405" lon="5.06721">
        <ele>436.12</ele>
        <time>2022-05-12T08:31:14Z</time>
      </trkpt>
      <trkpt lat="47.79403" lon="5.06718">
        <ele>436.02</ele>
        <time>2022-05-12T08:31:19Z</time>
      </trkpt>
      <trkpt lat="47.79401" lon="5.06715">
        <ele>435.95</ele>
        <time>2022-05-12T08:31:25Z</time>
      </trkpt>
      <trkpt lat="47.79399" lon="5.06713">
        <ele>436</ele>
        <time>2022-05-12T08:31:27Z</time>
      </trkpt>
      <trkpt lat="47.79396" lon="5.0671">
        <ele>436.13</ele>
        <time>2022-05-12T08:31:30Z</time>
      </trkpt>
      <trkpt lat="47.79393" lon="5.06707">
        <ele>436.3</ele>
        <time>2022-05-12T08:31:34Z</time>
      </trkpt>
      <trkpt lat="47.79391" lon="5.06704">
        <ele>436.36</ele>
        <time>2022-05-12T08:31:39Z</time>
      </trkpt>
      <trkpt lat="47.79388" lon="5.06703">
        <ele>436.51</ele>
        <time>2022-05-12T08:31:44Z</time>
      </trkpt>
      <trkpt lat="47.79386" lon="5.06702">
        <ele>436.2</ele>
        <time>2022-05-12T08:31:49Z</time>
      </trkpt>
      <trkpt lat="47.79384" lon="5.06698">
        <ele>435.71</ele>
        <time>2022-05-12T08:31:55Z</time>
      </trkpt>
      <trkpt lat="47.79382" lon="5.06696">
        <ele>435.35</ele>
        <time>2022-05-12T08:31:57Z</time>
      </trkpt>
      <trkpt lat="47.79379" lon="5.06694">
        <ele>434.86</ele>
        <time>2022-05-12T08:31:59Z</time>
      </trkpt>
      <trkpt lat="47.79376" lon="5.06693">
        <ele>434.39</ele>
        <time>2022-05-12T08:32:03Z</time>
      </trkpt>
      <trkpt lat="47.79374" lon="5.0669">
        <ele>433.78</ele>
        <time>2022-05-12T08:32:06Z</time>
      </trkpt>
      <trkpt lat="47.79372" lon="5.06687">
        <ele>433.22</ele>
        <time>2022-05-12T08:32:10Z</time>
      </trkpt>
      <trkpt lat="47.79369" lon="5.06686">
        <ele>432.9</ele>
        <time>2022-05-12T08:32:15Z</time>
      </trkpt>
      <trkpt lat="47.79366" lon="5.06684">
        <ele>432.51</ele>
        <time>2022-05-12T08:32:19Z</time>
      </trkpt>
      <trkpt lat="47.79363" lon="5.06684">
        <ele>432.35</ele>
        <time>2022-05-12T08:32:23Z</time>
      </trkpt>
      <trkpt lat="47.7936" lon="5.06682">
        <ele>431.98</ele>
        <time>2022-05-12T08:32:26Z</time>
      </trkpt>
      <trkpt lat="47.79357" lon="5.0668">
        <ele>431.52</ele>
        <time>2022-05-12T08:32:29Z</time>
      </trkpt>
      <trkpt lat="47.79354" lon="5.06677">
        <ele>430.98</ele>
        <time>2022-05-12T08:32:32Z</time>
      </trkpt>
      <trkpt lat="47.79352" lon="5.06674">
        <ele>430.54</ele>
        <time>2022-05-12T08:32:36Z</time>
      </trkpt>
      <trkpt lat="47.79352" lon="5.0667">
        <ele>430.26</ele>
        <time>2022-05-12T08:32:39Z</time>
      </trkpt>
      <trkpt lat="47.79351" lon="5.06666">
        <ele>429.8</ele>
        <time>2022-05-12T08:32:46Z</time>
      </trkpt>
      <trkpt lat="47.79349" lon="5.06663">
        <ele>429.13</ele>
        <time>2022-05-12T08:32:48Z</time>
      </trkpt>
      <trkpt lat="47.79346" lon="5.06661">
        <ele>428.59</ele>
        <time>2022-05-12T08:32:55Z</time>
      </trkpt>
      <trkpt lat="47.79344" lon="5.06658">
        <ele>428.05</ele>
        <time>2022-05-12T08:32:59Z</time>
      </trkpt>
      <trkpt lat="47.79342" lon="5.06655">
        <ele>427.57</ele>
        <time>2022-05-12T08:33:03Z</time>
      </trkpt>
      <trkpt lat="47.79341" lon="5.06651">
        <ele>427.08</ele>
        <time>2022-05-12T08:33:07Z</time>
      </trkpt>
      <trkpt lat="47.79339" lon="5.06647">
        <ele>426.62</ele>
        <time>2022-05-12T08:33:10Z</time>
      </trkpt>
      <trkpt lat="47.79337" lon="5.06644">
        <ele>426.33</ele>
        <time>2022-05-12T08:33:13Z</time>
      </trkpt>
      <trkpt lat="47.79335" lon="5.0664">
        <ele>426.03</ele>
        <time>2022-05-12T08:33:16Z</time>
      </trkpt>
      <trkpt lat="47.79335" lon="5.06637">
        <ele>425.33</ele>
        <time>2022-05-12T08:33:32Z</time>
      </trkpt>
      <trkpt lat="47.79335" lon="5.06629">
        <ele>422.76</ele>
        <time>2022-05-12T08:33:41Z</time>
      </trkpt>
      <trkpt lat="47.79334" lon="5.06626">
        <ele>421.81</ele>
        <time>2022-05-12T08:33:55Z</time>
      </trkpt>
      <trkpt lat="47.79332" lon="5.06623">
        <ele>420.91</ele>
        <time>2022-05-12T08:34:00Z</time>
      </trkpt>
      <trkpt lat="47.7933" lon="5.0662">
        <ele>420.04</ele>
        <time>2022-05-12T08:34:05Z</time>
      </trkpt>
      <trkpt lat="47.79329" lon="5.06616">
        <ele>418.84</ele>
        <time>2022-05-12T08:34:08Z</time>
      </trkpt>
      <trkpt lat="47.79329" lon="5.06612">
        <ele>417.59</ele>
        <time>2022-05-12T08:34:12Z</time>
      </trkpt>
      <trkpt lat="47.79327" lon="5.06607">
        <ele>416.24</ele>
        <time>2022-05-12T08:34:17Z</time>
      </trkpt>
      <trkpt lat="47.79324" lon="5.06605">
        <ele>415.84</ele>
        <time>2022-05-12T08:34:20Z</time>
      </trkpt>
      <trkpt lat="47.79323" lon="5.06601">
        <ele>414.7</ele>
        <time>2022-05-12T08:34:28Z</time>
      </trkpt>
      <trkpt lat="47.79322" lon="5.06597">
        <ele>413.54</ele>
        <time>2022-05-12T08:34:31Z</time>
      </trkpt>
      <trkpt lat="47.79322" lon="5.06592">
        <ele>412.03</ele>
        <time>2022-05-12T08:34:35Z</time>
      </trkpt>
      <trkpt lat="47.79322" lon="5.06588">
        <ele>410.82</ele>
        <time>2022-05-12T08:34:37Z</time>
      </trkpt>
      <trkpt lat="47.79322" lon="5.06584">
        <ele>409.61</ele>
        <time>2022-05-12T08:34:40Z</time>
      </trkpt>
      <trkpt lat="47.79323" lon="5.0658">
        <ele>408.97</ele>
        <time>2022-05-12T08:34:44Z</time>
      </trkpt>
      <trkpt lat="47.79323" lon="5.06576">
        <ele>408.48</ele>
        <time>2022-05-12T08:34:51Z</time>
      </trkpt>
      <trkpt lat="47.79322" lon="5.06571">
        <ele>407.89</ele>
        <time>2022-05-12T08:34:55Z</time>
      </trkpt>
      <trkpt lat="47.79323" lon="5.06566">
        <ele>407.27</ele>
        <time>2022-05-12T08:35:00Z</time>
      </trkpt>
      <trkpt lat="47.79323" lon="5.06562">
        <ele>406.78</ele>
        <time>2022-05-12T08:35:05Z</time>
      </trkpt>
      <trkpt lat="47.79323" lon="5.06558">
        <ele>406.3</ele>
        <time>2022-05-12T08:35:09Z</time>
      </trkpt>
      <trkpt lat="47.79323" lon="5.06553">
        <ele>405.63</ele>
        <time>2022-05-12T08:35:13Z</time>
      </trkpt>
      <trkpt lat="47.79323" lon="5.06547">
        <ele>404.77</ele>
        <time>2022-05-12T08:35:16Z</time>
      </trkpt>
      <trkpt lat="47.79323" lon="5.06543">
        <ele>404.19</ele>
        <time>2022-05-12T08:35:18Z</time>
      </trkpt>
      <trkpt lat="47.79324" lon="5.06539">
        <ele>403.62</ele>
        <time>2022-05-12T08:35:23Z</time>
      </trkpt>
      <trkpt lat="47.79323" lon="5.06534">
        <ele>402.9</ele>
        <time>2022-05-12T08:35:34Z</time>
      </trkpt>
      <trkpt lat="47.79322" lon="5.0653">
        <ele>402.32</ele>
        <time>2022-05-12T08:35:39Z</time>
      </trkpt>
      <trkpt lat="47.7932" lon="5.06527">
        <ele>401.9</ele>
        <time>2022-05-12T08:35:48Z</time>
      </trkpt>
      <trkpt lat="47.79317" lon="5.06525">
        <ele>401.64</ele>
        <time>2022-05-12T08:35:57Z</time>
      </trkpt>
      <trkpt lat="47.79316" lon="5.06521">
        <ele>401.12</ele>
        <time>2022-05-12T08:36:15Z</time>
      </trkpt>
      <trkpt lat="47.79316" lon="5.06517">
        <ele>400.59</ele>
        <time>2022-05-12T08:36:27Z</time>
      </trkpt>
      <trkpt lat="47.79316" lon="5.06513">
        <ele>400.07</ele>
        <time>2022-05-12T08:37:36Z</time>
      </trkpt>
      <trkpt lat="47.79316" lon="5.06509">
        <ele>399.55</ele>
        <time>2022-05-12T08:37:39Z</time>
      </trkpt>
      <trkpt lat="47.79315" lon="5.06505">
        <ele>399</ele>
        <time>2022-05-12T08:37:43Z</time>
      </trkpt>
      <trkpt lat="47.79314" lon="5.06501">
        <ele>398.44</ele>
        <time>2022-05-12T08:37:48Z</time>
      </trkpt>
      <trkpt lat="47.79312" lon="5.06497">
        <ele>397.18</ele>
        <time>2022-05-12T08:37:50Z</time>
      </trkpt>
      <trkpt lat="47.79311" lon="5.06493">
        <ele>395.73</ele>
        <time>2022-05-12T08:37:53Z</time>
      </trkpt>
      <trkpt lat="47.7931" lon="5.06489">
        <ele>394.26</ele>
        <time>2022-05-12T08:37:58Z</time>
      </trkpt>
      <trkpt lat="47.79308" lon="5.06486">
        <ele>393.09</ele>
        <time>2022-05-12T08:38:01Z</time>
      </trkpt>
      <trkpt lat="47.79306" lon="5.06482">
        <ele>391.55</ele>
        <time>2022-05-12T08:38:07Z</time>
      </trkpt>
      <trkpt lat="47.79304" lon="5.06479">
        <ele>390.52</ele>
        <time>2022-05-12T08:38:09Z</time>
      </trkpt>
      <trkpt lat="47.79304" lon="5.06475">
        <ele>389.1</ele>
        <time>2022-05-12T08:38:14Z</time>
      </trkpt>
      <trkpt lat="47.79303" lon="5.0647">
        <ele>387.23</ele>
        <time>2022-05-12T08:38:21Z</time>
      </trkpt>
      <trkpt lat="47.79303" lon="5.06466">
        <ele>385.52</ele>
        <time>2022-05-12T08:38:25Z</time>
      </trkpt>
      <trkpt lat="47.79304" lon="5.06462">
        <ele>383.72</ele>
        <time>2022-05-12T08:38:32Z</time>
      </trkpt>
      <trkpt lat="47.79303" lon="5.06458">
        <ele>382.09</ele>
        <time>2022-05-12T08:38:37Z</time>
      </trkpt>
      <trkpt lat="47.79302" lon="5.06454">
        <ele>380.47</ele>
        <time>2022-05-12T08:38:39Z</time>
      </trkpt>
      <trkpt lat="47.793" lon="5.0645">
        <ele>378.96</ele>
        <time>2022-05-12T08:38:46Z</time>
      </trkpt>
      <trkpt lat="47.79299" lon="5.06447">
        <ele>377.79</ele>
        <time>2022-05-12T08:39:06Z</time>
      </trkpt>
      <trkpt lat="47.79301" lon="5.06443">
        <ele>376.02</ele>
        <time>2022-05-12T08:39:11Z</time>
      </trkpt>
      <trkpt lat="47.79299" lon="5.06439">
        <ele>374.86</ele>
        <time>2022-05-12T08:39:17Z</time>
      </trkpt>
      <trkpt lat="47.79296" lon="5.06435">
        <ele>373.61</ele>
        <time>2022-05-12T08:39:22Z</time>
      </trkpt>
      <trkpt lat="47.79295" lon="5.06431">
        <ele>372.16</ele>
        <time>2022-05-12T08:39:27Z</time>
      </trkpt>
      <trkpt lat="47.79295" lon="5.06425">
        <ele>369.94</ele>
        <time>2022-05-12T08:39:31Z</time>
      </trkpt>
      <trkpt lat="47.79294" lon="5.06421">
        <ele>368.39</ele>
        <time>2022-05-12T08:39:34Z</time>
      </trkpt>
      <trkpt lat="47.79293" lon="5.06416">
        <ele>366.55</ele>
        <time>2022-05-12T08:39:36Z</time>
      </trkpt>
      <trkpt lat="47.79292" lon="5.06411">
        <ele>365.73</ele>
        <time>2022-05-12T08:39:38Z</time>
      </trkpt>
      <trkpt lat="47.79292" lon="5.06406">
        <ele>365.02</ele>
        <time>2022-05-12T08:39:40Z</time>
      </trkpt>
      <trkpt lat="47.79292" lon="5.06401">
        <ele>364.31</ele>
        <time>2022-05-12T08:39:43Z</time>
      </trkpt>
      <trkpt lat="47.79292" lon="5.06397">
        <ele>363.74</ele>
        <time>2022-05-12T08:39:45Z</time>
      </trkpt>
      <trkpt lat="47.79291" lon="5.06393">
        <ele>362.94</ele>
        <time>2022-05-12T08:39:49Z</time>
      </trkpt>
      <trkpt lat="47.79288" lon="5.06393">
        <ele>362.25</ele>
        <time>2022-05-12T08:39:54Z</time>
      </trkpt>
      <trkpt lat="47.79288" lon="5.06388">
        <ele>361.55</ele>
        <time>2022-05-12T08:40:11Z</time>
      </trkpt>
      <trkpt lat="47.7929" lon="5.06385">
        <ele>361.96</ele>
        <time>2022-05-12T08:40:14Z</time>
      </trkpt>
      <trkpt lat="47.79292" lon="5.06381">
        <ele>362.29</ele>
        <time>2022-05-12T08:40:18Z</time>
      </trkpt>
      <trkpt lat="47.79295" lon="5.06384">
        <ele>363.12</ele>
        <time>2022-05-12T08:40:25Z</time>
      </trkpt>
      <trkpt lat="47.79295" lon="5.0638">
        <ele>362.94</ele>
        <time>2022-05-12T08:40:30Z</time>
      </trkpt>
      <trkpt lat="47.79294" lon="5.06376">
        <ele>362.55</ele>
        <time>2022-05-12T08:40:35Z</time>
      </trkpt>
      <trkpt lat="47.79291" lon="5.06359">
        <ele>361.31</ele>
        <time>2022-05-12T08:40:39Z</time>
      </trkpt>
      <trkpt lat="47.79291" lon="5.06371">
        <ele>361.72</ele>
        <time>2022-05-12T08:40:39Z</time>
      </trkpt>
      <trkpt lat="47.79289" lon="5.06354">
        <ele>360.81</ele>
        <time>2022-05-12T08:40:41Z</time>
      </trkpt>
      <trkpt lat="47.79287" lon="5.06349">
        <ele>360.37</ele>
        <time>2022-05-12T08:40:42Z</time>
      </trkpt>
      <trkpt lat="47.79287" lon="5.06345">
        <ele>360.27</ele>
        <time>2022-05-12T08:40:44Z</time>
      </trkpt>
      <trkpt lat="47.79287" lon="5.0634">
        <ele>360.16</ele>
        <time>2022-05-12T08:40:47Z</time>
      </trkpt>
      <trkpt lat="47.79288" lon="5.06336">
        <ele>360.17</ele>
        <time>2022-05-12T08:40:49Z</time>
      </trkpt>
      <trkpt lat="47.79287" lon="5.06332">
        <ele>359.95</ele>
        <time>2022-05-12T08:40:52Z</time>
      </trkpt>
      <trkpt lat="47.79286" lon="5.06328">
        <ele>359.72</ele>
        <time>2022-05-12T08:40:58Z</time>
      </trkpt>
      <trkpt lat="47.79285" lon="5.06324">
        <ele>359.52</ele>
        <time>2022-05-12T08:41:09Z</time>
      </trkpt>
      <trkpt lat="47.79284" lon="5.0632">
        <ele>359.35</ele>
        <time>2022-05-12T08:41:10Z</time>
      </trkpt>
      <trkpt lat="47.79282" lon="5.06314">
        <ele>359.14</ele>
        <time>2022-05-12T08:41:14Z</time>
      </trkpt>
      <trkpt lat="47.7928" lon="5.06311">
        <ele>359.05</ele>
        <time>2022-05-12T08:41:16Z</time>
      </trkpt>
      <trkpt lat="47.79279" lon="5.06307">
        <ele>359.01</ele>
        <time>2022-05-12T08:41:18Z</time>
      </trkpt>
      <trkpt lat="47.79278" lon="5.06302">
        <ele>358.74</ele>
        <time>2022-05-12T08:41:22Z</time>
      </trkpt>
      <trkpt lat="47.79278" lon="5.06298">
        <ele>358.45</ele>
        <time>2022-05-12T08:41:25Z</time>
      </trkpt>
      <trkpt lat="47.79278" lon="5.06293">
        <ele>358.09</ele>
        <time>2022-05-12T08:41:27Z</time>
      </trkpt>
      <trkpt lat="47.79277" lon="5.06288">
        <ele>357.61</ele>
        <time>2022-05-12T08:41:30Z</time>
      </trkpt>
      <trkpt lat="47.79277" lon="5.06281">
        <ele>357.12</ele>
        <time>2022-05-12T08:41:34Z</time>
      </trkpt>
      <trkpt lat="47.79275" lon="5.06276">
        <ele>356.43</ele>
        <time>2022-05-12T08:41:35Z</time>
      </trkpt>
      <trkpt lat="47.79275" lon="5.06272">
        <ele>356.04</ele>
        <time>2022-05-12T08:41:38Z</time>
      </trkpt>
      <trkpt lat="47.79274" lon="5.06268">
        <ele>355.54</ele>
        <time>2022-05-12T08:41:40Z</time>
      </trkpt>
      <trkpt lat="47.79273" lon="5.06262">
        <ele>354.9</ele>
        <time>2022-05-12T08:41:44Z</time>
      </trkpt>
      <trkpt lat="47.79272" lon="5.06255">
        <ele>354.22</ele>
        <time>2022-05-12T08:41:46Z</time>
      </trkpt>
      <trkpt lat="47.79271" lon="5.06249">
        <ele>353.78</ele>
        <time>2022-05-12T08:41:49Z</time>
      </trkpt>
      <trkpt lat="47.79271" lon="5.06245">
        <ele>353.89</ele>
        <time>2022-05-12T08:41:50Z</time>
      </trkpt>
      <trkpt lat="47.79271" lon="5.06236">
        <ele>354.14</ele>
        <time>2022-05-12T08:41:55Z</time>
      </trkpt>
      <trkpt lat="47.7927" lon="5.0623">
        <ele>354.24</ele>
        <time>2022-05-12T08:41:58Z</time>
      </trkpt>
      <trkpt lat="47.7927" lon="5.06225">
        <ele>354.37</ele>
        <time>2022-05-12T08:42:02Z</time>
      </trkpt>
      <trkpt lat="47.79269" lon="5.0622">
        <ele>354.26</ele>
        <time>2022-05-12T08:42:04Z</time>
      </trkpt>
      <trkpt lat="47.79269" lon="5.06215">
        <ele>354.03</ele>
        <time>2022-05-12T08:42:07Z</time>
      </trkpt>
      <trkpt lat="47.79267" lon="5.06211">
        <ele>353.66</ele>
        <time>2022-05-12T08:42:09Z</time>
      </trkpt>
      <trkpt lat="47.79266" lon="5.06207">
        <ele>353.37</ele>
        <time>2022-05-12T08:42:11Z</time>
      </trkpt>
      <trkpt lat="47.79265" lon="5.06203">
        <ele>353.07</ele>
        <time>2022-05-12T08:42:13Z</time>
      </trkpt>
      <trkpt lat="47.79264" lon="5.06198">
        <ele>352.7</ele>
        <time>2022-05-12T08:42:16Z</time>
      </trkpt>
      <trkpt lat="47.79264" lon="5.06193">
        <ele>352.43</ele>
        <time>2022-05-12T08:42:19Z</time>
      </trkpt>
      <trkpt lat="47.79264" lon="5.06189">
        <ele>352.22</ele>
        <time>2022-05-12T08:42:20Z</time>
      </trkpt>
      <trkpt lat="47.79264" lon="5.06185">
        <ele>352</ele>
        <time>2022-05-12T08:42:23Z</time>
      </trkpt>
      <trkpt lat="47.79263" lon="5.06181">
        <ele>351.69</ele>
        <time>2022-05-12T08:42:25Z</time>
      </trkpt>
      <trkpt lat="47.79263" lon="5.06177">
        <ele>351.48</ele>
        <time>2022-05-12T08:42:27Z</time>
      </trkpt>
      <trkpt lat="47.79262" lon="5.06173">
        <ele>351.19</ele>
        <time>2022-05-12T08:42:29Z</time>
      </trkpt>
      <trkpt lat="47.79261" lon="5.06167">
        <ele>350.81</ele>
        <time>2022-05-12T08:42:32Z</time>
      </trkpt>
      <trkpt lat="47.7926" lon="5.06163">
        <ele>350.67</ele>
        <time>2022-05-12T08:42:35Z</time>
      </trkpt>
      <trkpt lat="47.79259" lon="5.06159">
        <ele>350.56</ele>
        <time>2022-05-12T08:42:38Z</time>
      </trkpt>
      <trkpt lat="47.79258" lon="5.06154">
        <ele>350.44</ele>
        <time>2022-05-12T08:42:40Z</time>
      </trkpt>
      <trkpt lat="47.79257" lon="5.06151">
        <ele>350.36</ele>
        <time>2022-05-12T08:42:42Z</time>
      </trkpt>
      <trkpt lat="47.79256" lon="5.06144">
        <ele>350.26</ele>
        <time>2022-05-12T08:42:45Z</time>
      </trkpt>
      <trkpt lat="47.79255" lon="5.06138">
        <ele>350.17</ele>
        <time>2022-05-12T08:42:49Z</time>
      </trkpt>
      <trkpt lat="47.79254" lon="5.06132">
        <ele>350.07</ele>
        <time>2022-05-12T08:42:52Z</time>
      </trkpt>
      <trkpt lat="47.79254" lon="5.06127">
        <ele>350.02</ele>
        <time>2022-05-12T08:42:55Z</time>
      </trkpt>
      <trkpt lat="47.79253" lon="5.06123">
        <ele>349.98</ele>
        <time>2022-05-12T08:42:57Z</time>
      </trkpt>
      <trkpt lat="47.79252" lon="5.06119">
        <ele>349.97</ele>
        <time>2022-05-12T08:43:00Z</time>
      </trkpt>
      <trkpt lat="47.79251" lon="5.06115">
        <ele>349.97</ele>
        <time>2022-05-12T08:43:04Z</time>
      </trkpt>
      <trkpt lat="47.79251" lon="5.0611">
        <ele>349.89</ele>
        <time>2022-05-12T08:43:15Z</time>
      </trkpt>
      <trkpt lat="47.79247" lon="5.06109">
        <ele>349.42</ele>
        <time>2022-05-12T08:43:18Z</time>
      </trkpt>
      <trkpt lat="47.79242" lon="5.06113">
        <ele>348.89</ele>
        <time>2022-05-12T08:43:21Z</time>
      </trkpt>
      <trkpt lat="47.79237" lon="5.06115">
        <ele>348.26</ele>
        <time>2022-05-12T08:43:22Z</time>
      </trkpt>
      <trkpt lat="47.79234" lon="5.06114">
        <ele>347.82</ele>
        <time>2022-05-12T08:43:25Z</time>
      </trkpt>
      <trkpt lat="47.79231" lon="5.06112">
        <ele>347.31</ele>
        <time>2022-05-12T08:43:28Z</time>
      </trkpt>
      <trkpt lat="47.7923" lon="5.06108">
        <ele>346.98</ele>
        <time>2022-05-12T08:43:31Z</time>
      </trkpt>
      <trkpt lat="47.79228" lon="5.06105">
        <ele>346.57</ele>
        <time>2022-05-12T08:43:33Z</time>
      </trkpt>
      <trkpt lat="47.79226" lon="5.06101">
        <ele>346.13</ele>
        <time>2022-05-12T08:43:36Z</time>
      </trkpt>
      <trkpt lat="47.79225" lon="5.06097">
        <ele>345.84</ele>
        <time>2022-05-12T08:43:40Z</time>
      </trkpt>
      <trkpt lat="47.79224" lon="5.06092">
        <ele>345.52</ele>
        <time>2022-05-12T08:43:43Z</time>
      </trkpt>
      <trkpt lat="47.79223" lon="5.06088">
        <ele>345.26</ele>
        <time>2022-05-12T08:43:48Z</time>
      </trkpt>
      <trkpt lat="47.79222" lon="5.06084">
        <ele>345.03</ele>
        <time>2022-05-12T08:43:52Z</time>
      </trkpt>
      <trkpt lat="47.79222" lon="5.06079">
        <ele>344.85</ele>
        <time>2022-05-12T08:43:55Z</time>
      </trkpt>
      <trkpt lat="47.7922" lon="5.06076">
        <ele>344.75</ele>
        <time>2022-05-12T08:44:00Z</time>
      </trkpt>
      <trkpt lat="47.79217" lon="5.06075">
        <ele>344.72</ele>
        <time>2022-05-12T08:44:03Z</time>
      </trkpt>
      <trkpt lat="47.79214" lon="5.06075">
        <ele>344.73</ele>
        <time>2022-05-12T08:44:05Z</time>
      </trkpt>
      <trkpt lat="47.79211" lon="5.06076">
        <ele>344.82</ele>
        <time>2022-05-12T08:44:08Z</time>
      </trkpt>
      <trkpt lat="47.79209" lon="5.06077">
        <ele>344.92</ele>
        <time>2022-05-12T08:44:52Z</time>
      </trkpt>
      <trkpt lat="47.79206" lon="5.06077">
        <ele>344.96</ele>
        <time>2022-05-12T08:47:58Z</time>
      </trkpt>
      <trkpt lat="47.79203" lon="5.06077">
        <ele>344.99</ele>
        <time>2022-05-12T08:48:05Z</time>
      </trkpt>
      <trkpt lat="47.792" lon="5.06079">
        <ele>345.27</ele>
        <time>2022-05-12T08:48:07Z</time>
      </trkpt>
      <trkpt lat="47.79197" lon="5.0608">
        <ele>345.46</ele>
        <time>2022-05-12T08:48:11Z</time>
      </trkpt>
      <trkpt lat="47.79195" lon="5.06081">
        <ele>345.65</ele>
        <time>2022-05-12T08:48:13Z</time>
      </trkpt>
      <trkpt lat="47.79192" lon="5.06083">
        <ele>345.69</ele>
        <time>2022-05-12T08:48:16Z</time>
      </trkpt>
      <trkpt lat="47.79189" lon="5.06084">
        <ele>345.47</ele>
        <time>2022-05-12T08:48:20Z</time>
      </trkpt>
      <trkpt lat="47.79187" lon="5.06086">
        <ele>345.38</ele>
        <time>2022-05-12T08:48:23Z</time>
      </trkpt>
      <trkpt lat="47.79184" lon="5.06087">
        <ele>345.07</ele>
        <time>2022-05-12T08:48:26Z</time>
      </trkpt>
      <trkpt lat="47.7918" lon="5.06089">
        <ele>344.63</ele>
        <time>2022-05-12T08:48:30Z</time>
      </trkpt>
      <trkpt lat="47.79178" lon="5.0609">
        <ele>344.38</ele>
        <time>2022-05-12T08:48:33Z</time>
      </trkpt>
      <trkpt lat="47.79175" lon="5.06093">
        <ele>343.97</ele>
        <time>2022-05-12T08:48:36Z</time>
      </trkpt>
      <trkpt lat="47.79173" lon="5.06096">
        <ele>343.64</ele>
        <time>2022-05-12T08:48:38Z</time>
      </trkpt>
      <trkpt lat="47.79171" lon="5.06098">
        <ele>343.27</ele>
        <time>2022-05-12T08:48:41Z</time>
      </trkpt>
      <trkpt lat="47.79168" lon="5.061">
        <ele>342.66</ele>
        <time>2022-05-12T08:48:44Z</time>
      </trkpt>
      <trkpt lat="47.79166" lon="5.06101">
        <ele>342.41</ele>
        <time>2022-05-12T08:48:49Z</time>
      </trkpt>
      <trkpt lat="47.79163" lon="5.06104">
        <ele>342.55</ele>
        <time>2022-05-12T08:48:53Z</time>
      </trkpt>
      <trkpt lat="47.7916" lon="5.06107">
        <ele>342.76</ele>
        <time>2022-05-12T08:48:56Z</time>
      </trkpt>
      <trkpt lat="47.79157" lon="5.06109">
        <ele>343.04</ele>
        <time>2022-05-12T08:48:59Z</time>
      </trkpt>
      <trkpt lat="47.79155" lon="5.06112">
        <ele>343.53</ele>
        <time>2022-05-12T08:49:01Z</time>
      </trkpt>
      <trkpt lat="47.79152" lon="5.06115">
        <ele>344.77</ele>
        <time>2022-05-12T08:49:04Z</time>
      </trkpt>
      <trkpt lat="47.7915" lon="5.06116">
        <ele>345.28</ele>
        <time>2022-05-12T08:49:06Z</time>
      </trkpt>
      <trkpt lat="47.79146" lon="5.06118">
        <ele>346.28</ele>
        <time>2022-05-12T08:49:10Z</time>
      </trkpt>
      <trkpt lat="47.79144" lon="5.0612">
        <ele>347.07</ele>
        <time>2022-05-12T08:49:12Z</time>
      </trkpt>
      <trkpt lat="47.79141" lon="5.06123">
        <ele>348.23</ele>
        <time>2022-05-12T08:49:15Z</time>
      </trkpt>
      <trkpt lat="47.79138" lon="5.06126">
        <ele>349.1</ele>
        <time>2022-05-12T08:49:18Z</time>
      </trkpt>
      <trkpt lat="47.79136" lon="5.06131">
        <ele>350</ele>
        <time>2022-05-12T08:49:21Z</time>
      </trkpt>
      <trkpt lat="47.79134" lon="5.06135">
        <ele>350.47</ele>
        <time>2022-05-12T08:49:24Z</time>
      </trkpt>
      <trkpt lat="47.79128" lon="5.06136">
        <ele>348.93</ele>
        <time>2022-05-12T08:49:29Z</time>
      </trkpt>
      <trkpt lat="47.79124" lon="5.06137">
        <ele>347.89</ele>
        <time>2022-05-12T08:49:31Z</time>
      </trkpt>
      <trkpt lat="47.79122" lon="5.06139">
        <ele>347.56</ele>
        <time>2022-05-12T08:49:33Z</time>
      </trkpt>
      <trkpt lat="47.7912" lon="5.06142">
        <ele>347.93</ele>
        <time>2022-05-12T08:49:35Z</time>
      </trkpt>
      <trkpt lat="47.79117" lon="5.06145">
        <ele>348.09</ele>
        <time>2022-05-12T08:49:38Z</time>
      </trkpt>
      <trkpt lat="47.79115" lon="5.06148">
        <ele>348.64</ele>
        <time>2022-05-12T08:49:40Z</time>
      </trkpt>
      <trkpt lat="47.79112" lon="5.0615">
        <ele>348.62</ele>
        <time>2022-05-12T08:49:43Z</time>
      </trkpt>
      <trkpt lat="47.7911" lon="5.06153">
        <ele>349.39</ele>
        <time>2022-05-12T08:49:46Z</time>
      </trkpt>
      <trkpt lat="47.79107" lon="5.06155">
        <ele>349.55</ele>
        <time>2022-05-12T08:49:48Z</time>
      </trkpt>
      <trkpt lat="47.79104" lon="5.06157">
        <ele>349.58</ele>
        <time>2022-05-12T08:49:51Z</time>
      </trkpt>
      <trkpt lat="47.79102" lon="5.06159">
        <ele>349.74</ele>
        <time>2022-05-12T08:49:53Z</time>
      </trkpt>
      <trkpt lat="47.791" lon="5.06162">
        <ele>350.09</ele>
        <time>2022-05-12T08:49:55Z</time>
      </trkpt>
      <trkpt lat="47.79097" lon="5.06165">
        <ele>350.01</ele>
        <time>2022-05-12T08:49:58Z</time>
      </trkpt>
      <trkpt lat="47.79094" lon="5.06167">
        <ele>349.51</ele>
        <time>2022-05-12T08:50:01Z</time>
      </trkpt>
      <trkpt lat="47.79092" lon="5.06169">
        <ele>349.24</ele>
        <time>2022-05-12T08:50:04Z</time>
      </trkpt>
      <trkpt lat="47.79089" lon="5.0617">
        <ele>348.53</ele>
        <time>2022-05-12T08:50:06Z</time>
      </trkpt>
      <trkpt lat="47.79085" lon="5.06173">
        <ele>348.05</ele>
        <time>2022-05-12T08:50:09Z</time>
      </trkpt>
      <trkpt lat="47.79083" lon="5.06175">
        <ele>348.1</ele>
        <time>2022-05-12T08:50:11Z</time>
      </trkpt>
      <trkpt lat="47.7908" lon="5.06177">
        <ele>348.55</ele>
        <time>2022-05-12T08:50:14Z</time>
      </trkpt>
      <trkpt lat="47.79078" lon="5.0618">
        <ele>349.18</ele>
        <time>2022-05-12T08:50:18Z</time>
      </trkpt>
      <trkpt lat="47.79076" lon="5.06183">
        <ele>349.76</ele>
        <time>2022-05-12T08:50:20Z</time>
      </trkpt>
      <trkpt lat="47.79073" lon="5.06186">
        <ele>350.21</ele>
        <time>2022-05-12T08:50:23Z</time>
      </trkpt>
      <trkpt lat="47.79071" lon="5.06189">
        <ele>350.64</ele>
        <time>2022-05-12T08:50:27Z</time>
      </trkpt>
      <trkpt lat="47.79069" lon="5.06191">
        <ele>350.84</ele>
        <time>2022-05-12T08:50:30Z</time>
      </trkpt>
      <trkpt lat="47.79066" lon="5.06193">
        <ele>350.89</ele>
        <time>2022-05-12T08:50:32Z</time>
      </trkpt>
      <trkpt lat="47.79064" lon="5.06196">
        <ele>351.02</ele>
        <time>2022-05-12T08:50:35Z</time>
      </trkpt>
      <trkpt lat="47.79061" lon="5.06198">
        <ele>350.84</ele>
        <time>2022-05-12T08:50:39Z</time>
      </trkpt>
      <trkpt lat="47.79059" lon="5.06201">
        <ele>350.84</ele>
        <time>2022-05-12T08:50:43Z</time>
      </trkpt>
      <trkpt lat="47.79057" lon="5.06203">
        <ele>350.77</ele>
        <time>2022-05-12T08:50:45Z</time>
      </trkpt>
      <trkpt lat="47.79055" lon="5.06206">
        <ele>350.89</ele>
        <time>2022-05-12T08:50:47Z</time>
      </trkpt>
      <trkpt lat="47.79052" lon="5.06209">
        <ele>351.44</ele>
        <time>2022-05-12T08:50:50Z</time>
      </trkpt>
      <trkpt lat="47.79049" lon="5.06211">
        <ele>351.95</ele>
        <time>2022-05-12T08:50:52Z</time>
      </trkpt>
      <trkpt lat="47.79047" lon="5.06214">
        <ele>352.46</ele>
        <time>2022-05-12T08:50:54Z</time>
      </trkpt>
      <trkpt lat="47.79045" lon="5.06216">
        <ele>352.9</ele>
        <time>2022-05-12T08:50:56Z</time>
      </trkpt>
      <trkpt lat="47.79042" lon="5.06218">
        <ele>353.5</ele>
        <time>2022-05-12T08:51:00Z</time>
      </trkpt>
      <trkpt lat="47.79039" lon="5.0622">
        <ele>354.13</ele>
        <time>2022-05-12T08:51:03Z</time>
      </trkpt>
      <trkpt lat="47.79037" lon="5.06222">
        <ele>354.65</ele>
        <time>2022-05-12T08:51:05Z</time>
      </trkpt>
      <trkpt lat="47.79035" lon="5.06225">
        <ele>354.94</ele>
        <time>2022-05-12T08:51:08Z</time>
      </trkpt>
      <trkpt lat="47.79032" lon="5.06227">
        <ele>355.3</ele>
        <time>2022-05-12T08:51:11Z</time>
      </trkpt>
      <trkpt lat="47.7903" lon="5.0623">
        <ele>355.47</ele>
        <time>2022-05-12T08:51:13Z</time>
      </trkpt>
      <trkpt lat="47.79028" lon="5.06233">
        <ele>355.59</ele>
        <time>2022-05-12T08:51:17Z</time>
      </trkpt>
      <trkpt lat="47.79025" lon="5.06236">
        <ele>355.15</ele>
        <time>2022-05-12T08:51:20Z</time>
      </trkpt>
      <trkpt lat="47.79022" lon="5.06239">
        <ele>354.69</ele>
        <time>2022-05-12T08:51:22Z</time>
      </trkpt>
      <trkpt lat="47.7902" lon="5.06243">
        <ele>354.34</ele>
        <time>2022-05-12T08:51:25Z</time>
      </trkpt>
      <trkpt lat="47.79018" lon="5.06246">
        <ele>354.04</ele>
        <time>2022-05-12T08:51:28Z</time>
      </trkpt>
      <trkpt lat="47.79016" lon="5.06249">
        <ele>353.75</ele>
        <time>2022-05-12T08:51:30Z</time>
      </trkpt>
      <trkpt lat="47.79013" lon="5.06252">
        <ele>353.37</ele>
        <time>2022-05-12T08:51:32Z</time>
      </trkpt>
      <trkpt lat="47.7901" lon="5.06256">
        <ele>353.06</ele>
        <time>2022-05-12T08:51:35Z</time>
      </trkpt>
      <trkpt lat="47.79008" lon="5.06259">
        <ele>352.91</ele>
        <time>2022-05-12T08:51:37Z</time>
      </trkpt>
      <trkpt lat="47.79005" lon="5.06262">
        <ele>352.74</ele>
        <time>2022-05-12T08:51:39Z</time>
      </trkpt>
      <trkpt lat="47.79003" lon="5.06264">
        <ele>352.66</ele>
        <time>2022-05-12T08:51:41Z</time>
      </trkpt>
      <trkpt lat="47.79" lon="5.06267">
        <ele>352.61</ele>
        <time>2022-05-12T08:51:43Z</time>
      </trkpt>
      <trkpt lat="47.78998" lon="5.06269">
        <ele>352.49</ele>
        <time>2022-05-12T08:51:46Z</time>
      </trkpt>
      <trkpt lat="47.78995" lon="5.06272">
        <ele>352.29</ele>
        <time>2022-05-12T08:51:48Z</time>
      </trkpt>
      <trkpt lat="47.78993" lon="5.06275">
        <ele>352.17</ele>
        <time>2022-05-12T08:51:50Z</time>
      </trkpt>
      <trkpt lat="47.7899" lon="5.0628">
        <ele>351.89</ele>
        <time>2022-05-12T08:51:53Z</time>
      </trkpt>
      <trkpt lat="47.78989" lon="5.06283">
        <ele>351.74</ele>
        <time>2022-05-12T08:51:55Z</time>
      </trkpt>
      <trkpt lat="47.78987" lon="5.06287">
        <ele>351.44</ele>
        <time>2022-05-12T08:51:57Z</time>
      </trkpt>
      <trkpt lat="47.78984" lon="5.0629">
        <ele>351.02</ele>
        <time>2022-05-12T08:51:59Z</time>
      </trkpt>
      <trkpt lat="47.78983" lon="5.06294">
        <ele>350.81</ele>
        <time>2022-05-12T08:52:03Z</time>
      </trkpt>
      <trkpt lat="47.78981" lon="5.06298">
        <ele>350.45</ele>
        <time>2022-05-12T08:52:05Z</time>
      </trkpt>
      <trkpt lat="47.78979" lon="5.06302">
        <ele>350.07</ele>
        <time>2022-05-12T08:52:07Z</time>
      </trkpt>
      <trkpt lat="47.78977" lon="5.06305">
        <ele>349.7</ele>
        <time>2022-05-12T08:52:09Z</time>
      </trkpt>
      <trkpt lat="47.78974" lon="5.06309">
        <ele>349.25</ele>
        <time>2022-05-12T08:52:12Z</time>
      </trkpt>
      <trkpt lat="47.78972" lon="5.06312">
        <ele>348.97</ele>
        <time>2022-05-12T08:52:14Z</time>
      </trkpt>
      <trkpt lat="47.7897" lon="5.06315">
        <ele>348.73</ele>
        <time>2022-05-12T08:52:16Z</time>
      </trkpt>
      <trkpt lat="47.78968" lon="5.06319">
        <ele>348.47</ele>
        <time>2022-05-12T08:52:18Z</time>
      </trkpt>
      <trkpt lat="47.78966" lon="5.06323">
        <ele>348.19</ele>
        <time>2022-05-12T08:52:20Z</time>
      </trkpt>
      <trkpt lat="47.78964" lon="5.06326">
        <ele>347.89</ele>
        <time>2022-05-12T08:52:22Z</time>
      </trkpt>
      <trkpt lat="47.78962" lon="5.0633">
        <ele>347.57</ele>
        <time>2022-05-12T08:52:24Z</time>
      </trkpt>
      <trkpt lat="47.7896" lon="5.06334">
        <ele>347.18</ele>
        <time>2022-05-12T08:52:26Z</time>
      </trkpt>
      <trkpt lat="47.78958" lon="5.06337">
        <ele>346.62</ele>
        <time>2022-05-12T08:52:28Z</time>
      </trkpt>
      <trkpt lat="47.78957" lon="5.06341">
        <ele>346.13</ele>
        <time>2022-05-12T08:52:30Z</time>
      </trkpt>
      <trkpt lat="47.78954" lon="5.06344">
        <ele>345.48</ele>
        <time>2022-05-12T08:52:32Z</time>
      </trkpt>
      <trkpt lat="47.78952" lon="5.06348">
        <ele>344.89</ele>
        <time>2022-05-12T08:52:34Z</time>
      </trkpt>
      <trkpt lat="47.7895" lon="5.06351">
        <ele>344.4</ele>
        <time>2022-05-12T08:52:37Z</time>
      </trkpt>
      <trkpt lat="47.78948" lon="5.06354">
        <ele>343.93</ele>
        <time>2022-05-12T08:52:38Z</time>
      </trkpt>
      <trkpt lat="47.78946" lon="5.06358">
        <ele>343.4</ele>
        <time>2022-05-12T08:52:40Z</time>
      </trkpt>
      <trkpt lat="47.78945" lon="5.06362">
        <ele>343.03</ele>
        <time>2022-05-12T08:52:43Z</time>
      </trkpt>
      <trkpt lat="47.78943" lon="5.06367">
        <ele>342.61</ele>
        <time>2022-05-12T08:52:45Z</time>
      </trkpt>
      <trkpt lat="47.78941" lon="5.0637">
        <ele>342.3</ele>
        <time>2022-05-12T08:52:47Z</time>
      </trkpt>
      <trkpt lat="47.7894" lon="5.06374">
        <ele>342.12</ele>
        <time>2022-05-12T08:52:49Z</time>
      </trkpt>
      <trkpt lat="47.78938" lon="5.06377">
        <ele>341.9</ele>
        <time>2022-05-12T08:52:51Z</time>
      </trkpt>
      <trkpt lat="47.78936" lon="5.06381">
        <ele>341.72</ele>
        <time>2022-05-12T08:52:54Z</time>
      </trkpt>
      <trkpt lat="47.78934" lon="5.06388">
        <ele>341.62</ele>
        <time>2022-05-12T08:52:57Z</time>
      </trkpt>
      <trkpt lat="47.78932" lon="5.06393">
        <ele>341.55</ele>
        <time>2022-05-12T08:53:00Z</time>
      </trkpt>
      <trkpt lat="47.78929" lon="5.06397">
        <ele>341.44</ele>
        <time>2022-05-12T08:53:03Z</time>
      </trkpt>
      <trkpt lat="47.78927" lon="5.064">
        <ele>341.37</ele>
        <time>2022-05-12T08:53:05Z</time>
      </trkpt>
      <trkpt lat="47.78925" lon="5.06403">
        <ele>341.3</ele>
        <time>2022-05-12T08:53:07Z</time>
      </trkpt>
      <trkpt lat="47.78922" lon="5.0641">
        <ele>341.19</ele>
        <time>2022-05-12T08:53:11Z</time>
      </trkpt>
      <trkpt lat="47.78919" lon="5.06414">
        <ele>341.08</ele>
        <time>2022-05-12T08:53:14Z</time>
      </trkpt>
      <trkpt lat="47.78918" lon="5.06417">
        <ele>341.06</ele>
        <time>2022-05-12T08:53:16Z</time>
      </trkpt>
      <trkpt lat="47.78916" lon="5.0642">
        <ele>341.07</ele>
        <time>2022-05-12T08:53:18Z</time>
      </trkpt>
      <trkpt lat="47.78913" lon="5.06424">
        <ele>341</ele>
        <time>2022-05-12T08:53:20Z</time>
      </trkpt>
      <trkpt lat="47.78911" lon="5.06428">
        <ele>341</ele>
        <time>2022-05-12T08:53:23Z</time>
      </trkpt>
      <trkpt lat="47.7891" lon="5.06431">
        <ele>341.04</ele>
        <time>2022-05-12T08:53:26Z</time>
      </trkpt>
      <trkpt lat="47.78908" lon="5.06435">
        <ele>341.04</ele>
        <time>2022-05-12T08:53:28Z</time>
      </trkpt>
      <trkpt lat="47.78906" lon="5.06439">
        <ele>341.04</ele>
        <time>2022-05-12T08:53:30Z</time>
      </trkpt>
      <trkpt lat="47.78904" lon="5.06444">
        <ele>341.07</ele>
        <time>2022-05-12T08:53:32Z</time>
      </trkpt>
      <trkpt lat="47.78902" lon="5.06447">
        <ele>341.12</ele>
        <time>2022-05-12T08:53:34Z</time>
      </trkpt>
      <trkpt lat="47.789" lon="5.0645">
        <ele>341.16</ele>
        <time>2022-05-12T08:53:37Z</time>
      </trkpt>
      <trkpt lat="47.78897" lon="5.06454">
        <ele>341.13</ele>
        <time>2022-05-12T08:53:39Z</time>
      </trkpt>
      <trkpt lat="47.78895" lon="5.06457">
        <ele>341.09</ele>
        <time>2022-05-12T08:53:41Z</time>
      </trkpt>
      <trkpt lat="47.78894" lon="5.06461">
        <ele>341.18</ele>
        <time>2022-05-12T08:53:44Z</time>
      </trkpt>
      <trkpt lat="47.78892" lon="5.06467">
        <ele>341.22</ele>
        <time>2022-05-12T08:53:47Z</time>
      </trkpt>
      <trkpt lat="47.78891" lon="5.0647">
        <ele>341.21</ele>
        <time>2022-05-12T08:53:49Z</time>
      </trkpt>
      <trkpt lat="47.7889" lon="5.06474">
        <ele>341.23</ele>
        <time>2022-05-12T08:53:51Z</time>
      </trkpt>
      <trkpt lat="47.78888" lon="5.06477">
        <ele>341.05</ele>
        <time>2022-05-12T08:53:53Z</time>
      </trkpt>
      <trkpt lat="47.78886" lon="5.0648">
        <ele>340.89</ele>
        <time>2022-05-12T08:53:55Z</time>
      </trkpt>
      <trkpt lat="47.78883" lon="5.06484">
        <ele>340.67</ele>
        <time>2022-05-12T08:53:59Z</time>
      </trkpt>
      <trkpt lat="47.78881" lon="5.06488">
        <ele>340.59</ele>
        <time>2022-05-12T08:54:01Z</time>
      </trkpt>
      <trkpt lat="47.78879" lon="5.06491">
        <ele>340.49</ele>
        <time>2022-05-12T08:54:04Z</time>
      </trkpt>
      <trkpt lat="47.78877" lon="5.06496">
        <ele>340.51</ele>
        <time>2022-05-12T08:54:07Z</time>
      </trkpt>
      <trkpt lat="47.78876" lon="5.06499">
        <ele>340.56</ele>
        <time>2022-05-12T08:54:10Z</time>
      </trkpt>
      <trkpt lat="47.78873" lon="5.06503">
        <ele>340.61</ele>
        <time>2022-05-12T08:54:13Z</time>
      </trkpt>
      <trkpt lat="47.78869" lon="5.06506">
        <ele>340.5</ele>
        <time>2022-05-12T08:54:16Z</time>
      </trkpt>
      <trkpt lat="47.78866" lon="5.0651">
        <ele>340.61</ele>
        <time>2022-05-12T08:54:19Z</time>
      </trkpt>
      <trkpt lat="47.78865" lon="5.06514">
        <ele>340.93</ele>
        <time>2022-05-12T08:54:22Z</time>
      </trkpt>
      <trkpt lat="47.78864" lon="5.06518">
        <ele>341.26</ele>
        <time>2022-05-12T08:54:25Z</time>
      </trkpt>
      <trkpt lat="47.78864" lon="5.06522">
        <ele>341.69</ele>
        <time>2022-05-12T08:54:29Z</time>
      </trkpt>
      <trkpt lat="47.78863" lon="5.06526">
        <ele>342.01</ele>
        <time>2022-05-12T08:54:31Z</time>
      </trkpt>
      <trkpt lat="47.78862" lon="5.0653">
        <ele>342.49</ele>
        <time>2022-05-12T08:54:33Z</time>
      </trkpt>
      <trkpt lat="47.78861" lon="5.06534">
        <ele>343.12</ele>
        <time>2022-05-12T08:54:36Z</time>
      </trkpt>
      <trkpt lat="47.78859" lon="5.06538">
        <ele>343.84</ele>
        <time>2022-05-12T08:54:41Z</time>
      </trkpt>
      <trkpt lat="47.78857" lon="5.06543">
        <ele>344.74</ele>
        <time>2022-05-12T08:54:43Z</time>
      </trkpt>
      <trkpt lat="47.78855" lon="5.06547">
        <ele>345.46</ele>
        <time>2022-05-12T08:54:46Z</time>
      </trkpt>
      <trkpt lat="47.78853" lon="5.06551">
        <ele>346.18</ele>
        <time>2022-05-12T08:54:49Z</time>
      </trkpt>
      <trkpt lat="47.78851" lon="5.06554">
        <ele>346.72</ele>
        <time>2022-05-12T08:54:51Z</time>
      </trkpt>
      <trkpt lat="47.78849" lon="5.06557">
        <ele>347.1</ele>
        <time>2022-05-12T08:54:54Z</time>
      </trkpt>
      <trkpt lat="47.78847" lon="5.0656">
        <ele>347.32</ele>
        <time>2022-05-12T08:54:56Z</time>
      </trkpt>
      <trkpt lat="47.78845" lon="5.06563">
        <ele>347.54</ele>
        <time>2022-05-12T08:54:58Z</time>
      </trkpt>
      <trkpt lat="47.78843" lon="5.06567">
        <ele>347.82</ele>
        <time>2022-05-12T08:55:03Z</time>
      </trkpt>
      <trkpt lat="47.78841" lon="5.06571">
        <ele>348.11</ele>
        <time>2022-05-12T08:55:05Z</time>
      </trkpt>
      <trkpt lat="47.7884" lon="5.06575">
        <ele>348.4</ele>
        <time>2022-05-12T08:55:09Z</time>
      </trkpt>
      <trkpt lat="47.78839" lon="5.06579">
        <ele>348.69</ele>
        <time>2022-05-12T08:55:11Z</time>
      </trkpt>
      <trkpt lat="47.78838" lon="5.06584">
        <ele>349</ele>
        <time>2022-05-12T08:55:15Z</time>
      </trkpt>
      <trkpt lat="47.78837" lon="5.06588">
        <ele>348.98</ele>
        <time>2022-05-12T08:55:18Z</time>
      </trkpt>
      <trkpt lat="47.78835" lon="5.06591">
        <ele>348.98</ele>
        <time>2022-05-12T08:55:21Z</time>
      </trkpt>
      <trkpt lat="47.78832" lon="5.06595">
        <ele>348.86</ele>
        <time>2022-05-12T08:55:24Z</time>
      </trkpt>
      <trkpt lat="47.7883" lon="5.06598">
        <ele>348.64</ele>
        <time>2022-05-12T08:55:28Z</time>
      </trkpt>
      <trkpt lat="47.78829" lon="5.06602">
        <ele>348.53</ele>
        <time>2022-05-12T08:55:31Z</time>
      </trkpt>
      <trkpt lat="47.78827" lon="5.06606">
        <ele>348.32</ele>
        <time>2022-05-12T08:55:34Z</time>
      </trkpt>
      <trkpt lat="47.78825" lon="5.06609">
        <ele>348.1</ele>
        <time>2022-05-12T08:55:37Z</time>
      </trkpt>
      <trkpt lat="47.78824" lon="5.06613">
        <ele>347.95</ele>
        <time>2022-05-12T08:55:41Z</time>
      </trkpt>
      <trkpt lat="47.78823" lon="5.06617">
        <ele>347.75</ele>
        <time>2022-05-12T08:55:43Z</time>
      </trkpt>
      <trkpt lat="47.78822" lon="5.06621">
        <ele>347.57</ele>
        <time>2022-05-12T08:55:45Z</time>
      </trkpt>
      <trkpt lat="47.78821" lon="5.06625">
        <ele>347.39</ele>
        <time>2022-05-12T08:55:46Z</time>
      </trkpt>
      <trkpt lat="47.7882" lon="5.06629">
        <ele>347.23</ele>
        <time>2022-05-12T08:55:49Z</time>
      </trkpt>
      <trkpt lat="47.78818" lon="5.06634">
        <ele>346.97</ele>
        <time>2022-05-12T08:55:50Z</time>
      </trkpt>
      <trkpt lat="47.78817" lon="5.06638">
        <ele>346.84</ele>
        <time>2022-05-12T08:55:52Z</time>
      </trkpt>
      <trkpt lat="47.78816" lon="5.06642">
        <ele>346.57</ele>
        <time>2022-05-12T08:55:54Z</time>
      </trkpt>
      <trkpt lat="47.78815" lon="5.06647">
        <ele>346.2</ele>
        <time>2022-05-12T08:55:56Z</time>
      </trkpt>
      <trkpt lat="47.78815" lon="5.06653">
        <ele>345.84</ele>
        <time>2022-05-12T08:55:59Z</time>
      </trkpt>
      <trkpt lat="47.78815" lon="5.06658">
        <ele>345.54</ele>
        <time>2022-05-12T08:56:02Z</time>
      </trkpt>
      <trkpt lat="47.78813" lon="5.06662">
        <ele>345.09</ele>
        <time>2022-05-12T08:56:04Z</time>
      </trkpt>
      <trkpt lat="47.78811" lon="5.06665">
        <ele>344.7</ele>
        <time>2022-05-12T08:56:07Z</time>
      </trkpt>
      <trkpt lat="47.78809" lon="5.06669">
        <ele>344.3</ele>
        <time>2022-05-12T08:56:09Z</time>
      </trkpt>
      <trkpt lat="47.78808" lon="5.06673">
        <ele>344.06</ele>
        <time>2022-05-12T08:56:12Z</time>
      </trkpt>
      <trkpt lat="47.78806" lon="5.06677">
        <ele>343.68</ele>
        <time>2022-05-12T08:56:14Z</time>
      </trkpt>
      <trkpt lat="47.78805" lon="5.06681">
        <ele>343.32</ele>
        <time>2022-05-12T08:56:18Z</time>
      </trkpt>
      <trkpt lat="47.78804" lon="5.06685">
        <ele>342.91</ele>
        <time>2022-05-12T08:56:20Z</time>
      </trkpt>
      <trkpt lat="47.78804" lon="5.06689">
        <ele>342.78</ele>
        <time>2022-05-12T08:56:22Z</time>
      </trkpt>
      <trkpt lat="47.78803" lon="5.06694">
        <ele>342.37</ele>
        <time>2022-05-12T08:56:25Z</time>
      </trkpt>
      <trkpt lat="47.78802" lon="5.06698">
        <ele>342.36</ele>
        <time>2022-05-12T08:56:28Z</time>
      </trkpt>
      <trkpt lat="47.78801" lon="5.06702">
        <ele>342.4</ele>
        <time>2022-05-12T08:56:31Z</time>
      </trkpt>
      <trkpt lat="47.788" lon="5.06706">
        <ele>342.43</ele>
        <time>2022-05-12T08:56:33Z</time>
      </trkpt>
      <trkpt lat="47.78798" lon="5.06709">
        <ele>342.14</ele>
        <time>2022-05-12T08:56:36Z</time>
      </trkpt>
      <trkpt lat="47.78797" lon="5.06714">
        <ele>342.25</ele>
        <time>2022-05-12T08:56:38Z</time>
      </trkpt>
      <trkpt lat="47.78797" lon="5.06718">
        <ele>342.54</ele>
        <time>2022-05-12T08:56:41Z</time>
      </trkpt>
      <trkpt lat="47.78796" lon="5.06722">
        <ele>342.58</ele>
        <time>2022-05-12T08:56:45Z</time>
      </trkpt>
      <trkpt lat="47.78795" lon="5.06728">
        <ele>342.76</ele>
        <time>2022-05-12T08:56:49Z</time>
      </trkpt>
      <trkpt lat="47.78794" lon="5.06733">
        <ele>342.86</ele>
        <time>2022-05-12T08:56:52Z</time>
      </trkpt>
      <trkpt lat="47.78792" lon="5.06737">
        <ele>342.65</ele>
        <time>2022-05-12T08:56:54Z</time>
      </trkpt>
      <trkpt lat="47.7879" lon="5.0674">
        <ele>342.36</ele>
        <time>2022-05-12T08:56:58Z</time>
      </trkpt>
      <trkpt lat="47.78788" lon="5.06744">
        <ele>342.14</ele>
        <time>2022-05-12T08:57:01Z</time>
      </trkpt>
      <trkpt lat="47.78786" lon="5.06748">
        <ele>341.93</ele>
        <time>2022-05-12T08:57:03Z</time>
      </trkpt>
      <trkpt lat="47.78785" lon="5.06752">
        <ele>341.98</ele>
        <time>2022-05-12T08:57:05Z</time>
      </trkpt>
      <trkpt lat="47.78783" lon="5.06757">
        <ele>341.93</ele>
        <time>2022-05-12T08:57:08Z</time>
      </trkpt>
      <trkpt lat="47.78781" lon="5.06761">
        <ele>341.86</ele>
        <time>2022-05-12T08:57:10Z</time>
      </trkpt>
      <trkpt lat="47.78779" lon="5.06764">
        <ele>341.75</ele>
        <time>2022-05-12T08:57:12Z</time>
      </trkpt>
      <trkpt lat="47.78778" lon="5.06768">
        <ele>341.98</ele>
        <time>2022-05-12T08:57:15Z</time>
      </trkpt>
      <trkpt lat="47.78776" lon="5.06772">
        <ele>342.04</ele>
        <time>2022-05-12T08:57:18Z</time>
      </trkpt>
      <trkpt lat="47.78775" lon="5.06776">
        <ele>342.3</ele>
        <time>2022-05-12T08:57:20Z</time>
      </trkpt>
      <trkpt lat="47.78773" lon="5.0678">
        <ele>342.31</ele>
        <time>2022-05-12T08:57:22Z</time>
      </trkpt>
      <trkpt lat="47.78772" lon="5.06784">
        <ele>342.45</ele>
        <time>2022-05-12T08:57:24Z</time>
      </trkpt>
      <trkpt lat="47.7877" lon="5.06788">
        <ele>342.44</ele>
        <time>2022-05-12T08:57:26Z</time>
      </trkpt>
      <trkpt lat="47.78768" lon="5.06791">
        <ele>342.36</ele>
        <time>2022-05-12T08:57:28Z</time>
      </trkpt>
      <trkpt lat="47.78766" lon="5.06794">
        <ele>342.3</ele>
        <time>2022-05-12T08:57:30Z</time>
      </trkpt>
      <trkpt lat="47.78765" lon="5.06799">
        <ele>342.58</ele>
        <time>2022-05-12T08:57:33Z</time>
      </trkpt>
      <trkpt lat="47.78763" lon="5.06803">
        <ele>342.64</ele>
        <time>2022-05-12T08:57:36Z</time>
      </trkpt>
      <trkpt lat="47.78761" lon="5.06808">
        <ele>342.83</ele>
        <time>2022-05-12T08:57:39Z</time>
      </trkpt>
      <trkpt lat="47.78758" lon="5.06812">
        <ele>342.88</ele>
        <time>2022-05-12T08:57:41Z</time>
      </trkpt>
      <trkpt lat="47.78755" lon="5.06815">
        <ele>342.9</ele>
        <time>2022-05-12T08:57:44Z</time>
      </trkpt>
      <trkpt lat="47.78753" lon="5.06819">
        <ele>343.21</ele>
        <time>2022-05-12T08:57:46Z</time>
      </trkpt>
      <trkpt lat="47.78753" lon="5.06824">
        <ele>343.87</ele>
        <time>2022-05-12T08:57:49Z</time>
      </trkpt>
      <trkpt lat="47.78752" lon="5.06828">
        <ele>344.35</ele>
        <time>2022-05-12T08:57:52Z</time>
      </trkpt>
      <trkpt lat="47.78751" lon="5.06832">
        <ele>344.85</ele>
        <time>2022-05-12T08:57:55Z</time>
      </trkpt>
      <trkpt lat="47.7875" lon="5.06837">
        <ele>345</ele>
        <time>2022-05-12T08:57:57Z</time>
      </trkpt>
      <trkpt lat="47.78748" lon="5.06841">
        <ele>344.5</ele>
        <time>2022-05-12T08:58:00Z</time>
      </trkpt>
      <trkpt lat="47.78747" lon="5.06845">
        <ele>344.32</ele>
        <time>2022-05-12T08:58:02Z</time>
      </trkpt>
      <trkpt lat="47.78745" lon="5.0685">
        <ele>343.99</ele>
        <time>2022-05-12T08:58:05Z</time>
      </trkpt>
      <trkpt lat="47.78743" lon="5.06854">
        <ele>343.73</ele>
        <time>2022-05-12T08:58:09Z</time>
      </trkpt>
      <trkpt lat="47.78741" lon="5.06857">
        <ele>343.51</ele>
        <time>2022-05-12T08:58:10Z</time>
      </trkpt>
      <trkpt lat="47.78739" lon="5.0686">
        <ele>343.35</ele>
        <time>2022-05-12T08:58:12Z</time>
      </trkpt>
      <trkpt lat="47.78737" lon="5.06863">
        <ele>343.26</ele>
        <time>2022-05-12T08:58:14Z</time>
      </trkpt>
      <trkpt lat="47.78735" lon="5.06866">
        <ele>343.21</ele>
        <time>2022-05-12T08:58:16Z</time>
      </trkpt>
      <trkpt lat="47.78732" lon="5.0687">
        <ele>343.14</ele>
        <time>2022-05-12T08:58:20Z</time>
      </trkpt>
      <trkpt lat="47.7873" lon="5.06875">
        <ele>343.34</ele>
        <time>2022-05-12T08:58:22Z</time>
      </trkpt>
      <trkpt lat="47.78729" lon="5.06879">
        <ele>343.59</ele>
        <time>2022-05-12T08:58:25Z</time>
      </trkpt>
      <trkpt lat="47.78727" lon="5.06883">
        <ele>343.78</ele>
        <time>2022-05-12T08:58:27Z</time>
      </trkpt>
      <trkpt lat="47.78725" lon="5.06889">
        <ele>344.2</ele>
        <time>2022-05-12T08:58:29Z</time>
      </trkpt>
      <trkpt lat="47.78722" lon="5.06892">
        <ele>343.95</ele>
        <time>2022-05-12T08:58:31Z</time>
      </trkpt>
      <trkpt lat="47.78719" lon="5.06899">
        <ele>343.31</ele>
        <time>2022-05-12T08:58:35Z</time>
      </trkpt>
      <trkpt lat="47.78714" lon="5.06906">
        <ele>342.48</ele>
        <time>2022-05-12T08:58:39Z</time>
      </trkpt>
      <trkpt lat="47.78711" lon="5.06911">
        <ele>342.14</ele>
        <time>2022-05-12T08:58:42Z</time>
      </trkpt>
      <trkpt lat="47.78709" lon="5.06915">
        <ele>342.01</ele>
        <time>2022-05-12T08:58:45Z</time>
      </trkpt>
      <trkpt lat="47.78706" lon="5.06917">
        <ele>341.68</ele>
        <time>2022-05-12T08:58:48Z</time>
      </trkpt>
      <trkpt lat="47.78704" lon="5.0692">
        <ele>341.53</ele>
        <time>2022-05-12T08:58:51Z</time>
      </trkpt>
      <trkpt lat="47.78701" lon="5.06923">
        <ele>341.29</ele>
        <time>2022-05-12T08:58:54Z</time>
      </trkpt>
      <trkpt lat="47.78699" lon="5.06925">
        <ele>341.16</ele>
        <time>2022-05-12T08:58:57Z</time>
      </trkpt>
      <trkpt lat="47.78696" lon="5.06928">
        <ele>340.99</ele>
        <time>2022-05-12T08:58:59Z</time>
      </trkpt>
      <trkpt lat="47.78694" lon="5.0693">
        <ele>340.94</ele>
        <time>2022-05-12T08:59:01Z</time>
      </trkpt>
      <trkpt lat="47.78691" lon="5.06932">
        <ele>340.92</ele>
        <time>2022-05-12T08:59:04Z</time>
      </trkpt>
      <trkpt lat="47.78689" lon="5.06935">
        <ele>341.06</ele>
        <time>2022-05-12T08:59:07Z</time>
      </trkpt>
      <trkpt lat="47.78687" lon="5.06938">
        <ele>341.21</ele>
        <time>2022-05-12T08:59:09Z</time>
      </trkpt>
      <trkpt lat="47.78685" lon="5.06942">
        <ele>341.45</ele>
        <time>2022-05-12T08:59:12Z</time>
      </trkpt>
      <trkpt lat="47.78683" lon="5.06945">
        <ele>341.64</ele>
        <time>2022-05-12T08:59:13Z</time>
      </trkpt>
      <trkpt lat="47.78681" lon="5.0695">
        <ele>342.11</ele>
        <time>2022-05-12T08:59:17Z</time>
      </trkpt>
      <trkpt lat="47.78679" lon="5.06953">
        <ele>342.4</ele>
        <time>2022-05-12T08:59:18Z</time>
      </trkpt>
      <trkpt lat="47.78677" lon="5.06956">
        <ele>342.73</ele>
        <time>2022-05-12T08:59:20Z</time>
      </trkpt>
      <trkpt lat="47.78674" lon="5.0696">
        <ele>343.21</ele>
        <time>2022-05-12T08:59:22Z</time>
      </trkpt>
      <trkpt lat="47.78672" lon="5.06963">
        <ele>343.61</ele>
        <time>2022-05-12T08:59:25Z</time>
      </trkpt>
      <trkpt lat="47.78671" lon="5.06966">
        <ele>344.02</ele>
        <time>2022-05-12T08:59:27Z</time>
      </trkpt>
      <trkpt lat="47.78669" lon="5.0697">
        <ele>344.61</ele>
        <time>2022-05-12T08:59:30Z</time>
      </trkpt>
      <trkpt lat="47.78668" lon="5.06973">
        <ele>344.95</ele>
        <time>2022-05-12T08:59:37Z</time>
      </trkpt>
      <trkpt lat="47.78666" lon="5.06977">
        <ele>344.89</ele>
        <time>2022-05-12T08:59:40Z</time>
      </trkpt>
      <trkpt lat="47.78664" lon="5.06981">
        <ele>344.58</ele>
        <time>2022-05-12T08:59:43Z</time>
      </trkpt>
      <trkpt lat="47.78664" lon="5.06985">
        <ele>344.61</ele>
        <time>2022-05-12T08:59:46Z</time>
      </trkpt>
      <trkpt lat="47.78663" lon="5.06989">
        <ele>344.5</ele>
        <time>2022-05-12T08:59:48Z</time>
      </trkpt>
      <trkpt lat="47.78663" lon="5.06994">
        <ele>344.55</ele>
        <time>2022-05-12T08:59:51Z</time>
      </trkpt>
      <trkpt lat="47.78663" lon="5.06998">
        <ele>344.58</ele>
        <time>2022-05-12T08:59:56Z</time>
      </trkpt>
      <trkpt lat="47.78663" lon="5.07004">
        <ele>344.48</ele>
        <time>2022-05-12T09:00:01Z</time>
      </trkpt>
      <trkpt lat="47.78664" lon="5.07008">
        <ele>344.45</ele>
        <time>2022-05-12T09:00:03Z</time>
      </trkpt>
      <trkpt lat="47.78663" lon="5.07013">
        <ele>344.2</ele>
        <time>2022-05-12T09:00:05Z</time>
      </trkpt>
      <trkpt lat="47.78663" lon="5.07017">
        <ele>344.07</ele>
        <time>2022-05-12T09:00:08Z</time>
      </trkpt>
      <trkpt lat="47.78662" lon="5.07021">
        <ele>343.87</ele>
        <time>2022-05-12T09:00:11Z</time>
      </trkpt>
      <trkpt lat="47.7866" lon="5.07026">
        <ele>343.57</ele>
        <time>2022-05-12T09:00:15Z</time>
      </trkpt>
      <trkpt lat="47.78658" lon="5.07029">
        <ele>343.35</ele>
        <time>2022-05-12T09:00:20Z</time>
      </trkpt>
      <trkpt lat="47.78655" lon="5.07032">
        <ele>343.07</ele>
        <time>2022-05-12T09:00:23Z</time>
      </trkpt>
      <trkpt lat="47.78652" lon="5.07035">
        <ele>342.82</ele>
        <time>2022-05-12T09:00:26Z</time>
      </trkpt>
      <trkpt lat="47.78651" lon="5.07038">
        <ele>342.71</ele>
        <time>2022-05-12T09:00:47Z</time>
      </trkpt>
      <trkpt lat="47.78651" lon="5.07044">
        <ele>342.62</ele>
        <time>2022-05-12T09:01:00Z</time>
      </trkpt>
      <trkpt lat="47.78648" lon="5.07046">
        <ele>342.44</ele>
        <time>2022-05-12T09:01:10Z</time>
      </trkpt>
      <trkpt lat="47.78647" lon="5.0705">
        <ele>342.35</ele>
        <time>2022-05-12T09:01:33Z</time>
      </trkpt>
      <trkpt lat="47.78645" lon="5.07053">
        <ele>342.24</ele>
        <time>2022-05-12T09:01:40Z</time>
      </trkpt>
      <trkpt lat="47.78643" lon="5.07056">
        <ele>342.16</ele>
        <time>2022-05-12T09:01:54Z</time>
      </trkpt>
      <trkpt lat="47.78642" lon="5.0706">
        <ele>342.24</ele>
        <time>2022-05-12T09:02:56Z</time>
      </trkpt>
      <trkpt lat="47.7864" lon="5.07063">
        <ele>342.29</ele>
        <time>2022-05-12T09:02:58Z</time>
      </trkpt>
      <trkpt lat="47.78637" lon="5.07065">
        <ele>342.11</ele>
        <time>2022-05-12T09:03:00Z</time>
      </trkpt>
      <trkpt lat="47.78635" lon="5.07067">
        <ele>341.93</ele>
        <time>2022-05-12T09:03:03Z</time>
      </trkpt>
      <trkpt lat="47.78632" lon="5.07069">
        <ele>341.62</ele>
        <time>2022-05-12T09:03:05Z</time>
      </trkpt>
      <trkpt lat="47.7863" lon="5.07072">
        <ele>341.44</ele>
        <time>2022-05-12T09:03:07Z</time>
      </trkpt>
      <trkpt lat="47.78628" lon="5.07076">
        <ele>341.27</ele>
        <time>2022-05-12T09:03:11Z</time>
      </trkpt>
      <trkpt lat="47.78626" lon="5.0708">
        <ele>341.08</ele>
        <time>2022-05-12T09:03:16Z</time>
      </trkpt>
      <trkpt lat="47.78625" lon="5.07084">
        <ele>341.04</ele>
        <time>2022-05-12T09:03:20Z</time>
      </trkpt>
      <trkpt lat="47.78623" lon="5.07086">
        <ele>340.88</ele>
        <time>2022-05-12T09:03:22Z</time>
      </trkpt>
      <trkpt lat="47.7862" lon="5.07089">
        <ele>340.7</ele>
        <time>2022-05-12T09:03:25Z</time>
      </trkpt>
      <trkpt lat="47.78618" lon="5.07093">
        <ele>340.78</ele>
        <time>2022-05-12T09:03:28Z</time>
      </trkpt>
      <trkpt lat="47.78616" lon="5.07096">
        <ele>340.83</ele>
        <time>2022-05-12T09:03:32Z</time>
      </trkpt>
      <trkpt lat="47.78614" lon="5.071">
        <ele>341.03</ele>
        <time>2022-05-12T09:03:34Z</time>
      </trkpt>
      <trkpt lat="47.78612" lon="5.07104">
        <ele>341.29</ele>
        <time>2022-05-12T09:03:36Z</time>
      </trkpt>
      <trkpt lat="47.78611" lon="5.07107">
        <ele>341.53</ele>
        <time>2022-05-12T09:03:38Z</time>
      </trkpt>
      <trkpt lat="47.78609" lon="5.07111">
        <ele>341.53</ele>
        <time>2022-05-12T09:03:41Z</time>
      </trkpt>
      <trkpt lat="47.78607" lon="5.07116">
        <ele>341.39</ele>
        <time>2022-05-12T09:03:43Z</time>
      </trkpt>
      <trkpt lat="47.78605" lon="5.07119">
        <ele>341.06</ele>
        <time>2022-05-12T09:03:46Z</time>
      </trkpt>
      <trkpt lat="47.78603" lon="5.07123">
        <ele>340.73</ele>
        <time>2022-05-12T09:03:48Z</time>
      </trkpt>
      <trkpt lat="47.78601" lon="5.07127">
        <ele>340.34</ele>
        <time>2022-05-12T09:03:51Z</time>
      </trkpt>
      <trkpt lat="47.78599" lon="5.07131">
        <ele>339.88</ele>
        <time>2022-05-12T09:03:54Z</time>
      </trkpt>
      <trkpt lat="47.78598" lon="5.07135">
        <ele>339.67</ele>
        <time>2022-05-12T09:03:57Z</time>
      </trkpt>
      <trkpt lat="47.78596" lon="5.07139">
        <ele>339.12</ele>
        <time>2022-05-12T09:03:59Z</time>
      </trkpt>
      <trkpt lat="47.78595" lon="5.07143">
        <ele>339.47</ele>
        <time>2022-05-12T09:04:02Z</time>
      </trkpt>
      <trkpt lat="47.78594" lon="5.07147">
        <ele>339.78</ele>
        <time>2022-05-12T09:04:06Z</time>
      </trkpt>
      <trkpt lat="47.78592" lon="5.0715">
        <ele>339.51</ele>
        <time>2022-05-12T09:04:08Z</time>
      </trkpt>
      <trkpt lat="47.78589" lon="5.07153">
        <ele>338.77</ele>
        <time>2022-05-12T09:04:11Z</time>
      </trkpt>
      <trkpt lat="47.78587" lon="5.07156">
        <ele>338.36</ele>
        <time>2022-05-12T09:04:13Z</time>
      </trkpt>
      <trkpt lat="47.78584" lon="5.07159">
        <ele>337.46</ele>
        <time>2022-05-12T09:04:16Z</time>
      </trkpt>
      <trkpt lat="47.78582" lon="5.07162">
        <ele>337.09</ele>
        <time>2022-05-12T09:04:18Z</time>
      </trkpt>
      <trkpt lat="47.7858" lon="5.07165">
        <ele>336.76</ele>
        <time>2022-05-12T09:04:20Z</time>
      </trkpt>
      <trkpt lat="47.78578" lon="5.07168">
        <ele>336.4</ele>
        <time>2022-05-12T09:04:22Z</time>
      </trkpt>
      <trkpt lat="47.78576" lon="5.0717">
        <ele>335.92</ele>
        <time>2022-05-12T09:04:24Z</time>
      </trkpt>
      <trkpt lat="47.78573" lon="5.07173">
        <ele>335.17</ele>
        <time>2022-05-12T09:04:27Z</time>
      </trkpt>
      <trkpt lat="47.78571" lon="5.07176">
        <ele>334.71</ele>
        <time>2022-05-12T09:04:29Z</time>
      </trkpt>
      <trkpt lat="47.78568" lon="5.07179">
        <ele>333.87</ele>
        <time>2022-05-12T09:04:31Z</time>
      </trkpt>
      <trkpt lat="47.78566" lon="5.07183">
        <ele>333.41</ele>
        <time>2022-05-12T09:04:34Z</time>
      </trkpt>
      <trkpt lat="47.78563" lon="5.07185">
        <ele>332.43</ele>
        <time>2022-05-12T09:04:35Z</time>
      </trkpt>
      <trkpt lat="47.78561" lon="5.07188">
        <ele>331.83</ele>
        <time>2022-05-12T09:04:38Z</time>
      </trkpt>
      <trkpt lat="47.78559" lon="5.0719">
        <ele>331.16</ele>
        <time>2022-05-12T09:04:41Z</time>
      </trkpt>
      <trkpt lat="47.78556" lon="5.0719">
        <ele>330.01</ele>
        <time>2022-05-12T09:04:45Z</time>
      </trkpt>
      <trkpt lat="47.78553" lon="5.07189">
        <ele>329.77</ele>
        <time>2022-05-12T09:04:49Z</time>
      </trkpt>
      <trkpt lat="47.7855" lon="5.07187">
        <ele>329.69</ele>
        <time>2022-05-12T09:04:51Z</time>
      </trkpt>
      <trkpt lat="47.78547" lon="5.07185">
        <ele>329.67</ele>
        <time>2022-05-12T09:04:54Z</time>
      </trkpt>
      <trkpt lat="47.78543" lon="5.07183">
        <ele>329.69</ele>
        <time>2022-05-12T09:04:57Z</time>
      </trkpt>
      <trkpt lat="47.78539" lon="5.07181">
        <ele>329.79</ele>
        <time>2022-05-12T09:05:00Z</time>
      </trkpt>
      <trkpt lat="47.78537" lon="5.07178">
        <ele>329.93</ele>
        <time>2022-05-12T09:05:03Z</time>
      </trkpt>
      <trkpt lat="47.78535" lon="5.07174">
        <ele>330.16</ele>
        <time>2022-05-12T09:05:04Z</time>
      </trkpt>
      <trkpt lat="47.78533" lon="5.07169">
        <ele>330.5</ele>
        <time>2022-05-12T09:05:08Z</time>
      </trkpt>
      <trkpt lat="47.7853" lon="5.07166">
        <ele>330.93</ele>
        <time>2022-05-12T09:05:11Z</time>
      </trkpt>
      <trkpt lat="47.78527" lon="5.07164">
        <ele>331.57</ele>
        <time>2022-05-12T09:05:13Z</time>
      </trkpt>
      <trkpt lat="47.78525" lon="5.07162">
        <ele>332.34</ele>
        <time>2022-05-12T09:05:16Z</time>
      </trkpt>
      <trkpt lat="47.78522" lon="5.07159">
        <ele>333.45</ele>
        <time>2022-05-12T09:05:19Z</time>
      </trkpt>
      <trkpt lat="47.7852" lon="5.07157">
        <ele>334.16</ele>
        <time>2022-05-12T09:05:22Z</time>
      </trkpt>
      <trkpt lat="47.78518" lon="5.07154">
        <ele>334.97</ele>
        <time>2022-05-12T09:05:25Z</time>
      </trkpt>
      <trkpt lat="47.78516" lon="5.07151">
        <ele>335.75</ele>
        <time>2022-05-12T09:05:29Z</time>
      </trkpt>
      <trkpt lat="47.78514" lon="5.07148">
        <ele>336.49</ele>
        <time>2022-05-12T09:05:32Z</time>
      </trkpt>
      <trkpt lat="47.78512" lon="5.07145">
        <ele>337.21</ele>
        <time>2022-05-12T09:05:36Z</time>
      </trkpt>
      <trkpt lat="47.78511" lon="5.0714">
        <ele>337.91</ele>
        <time>2022-05-12T09:05:38Z</time>
      </trkpt>
      <trkpt lat="47.7851" lon="5.07135">
        <ele>338.72</ele>
        <time>2022-05-12T09:05:41Z</time>
      </trkpt>
      <trkpt lat="47.7851" lon="5.07131">
        <ele>339.26</ele>
        <time>2022-05-12T09:05:44Z</time>
      </trkpt>
      <trkpt lat="47.7851" lon="5.07126">
        <ele>339.93</ele>
        <time>2022-05-12T09:05:47Z</time>
      </trkpt>
      <trkpt lat="47.78511" lon="5.07121">
        <ele>340.46</ele>
        <time>2022-05-12T09:05:51Z</time>
      </trkpt>
      <trkpt lat="47.78512" lon="5.07117">
        <ele>340.88</ele>
        <time>2022-05-12T09:05:54Z</time>
      </trkpt>
      <trkpt lat="47.78514" lon="5.07113">
        <ele>341.22</ele>
        <time>2022-05-12T09:05:57Z</time>
      </trkpt>
      <trkpt lat="47.78516" lon="5.07109">
        <ele>341.37</ele>
        <time>2022-05-12T09:06:02Z</time>
      </trkpt>
      <trkpt lat="47.78517" lon="5.07105">
        <ele>341.48</ele>
        <time>2022-05-12T09:06:04Z</time>
      </trkpt>
      <trkpt lat="47.78518" lon="5.07101">
        <ele>341.64</ele>
        <time>2022-05-12T09:06:12Z</time>
      </trkpt>
      <trkpt lat="47.78519" lon="5.07095">
        <ele>341.95</ele>
        <time>2022-05-12T09:06:16Z</time>
      </trkpt>
      <trkpt lat="47.78519" lon="5.07091">
        <ele>342.2</ele>
        <time>2022-05-12T09:06:18Z</time>
      </trkpt>
      <trkpt lat="47.7852" lon="5.07086">
        <ele>342.54</ele>
        <time>2022-05-12T09:06:22Z</time>
      </trkpt>
      <trkpt lat="47.7852" lon="5.07082">
        <ele>342.83</ele>
        <time>2022-05-12T09:06:25Z</time>
      </trkpt>
      <trkpt lat="47.78521" lon="5.07078">
        <ele>343.19</ele>
        <time>2022-05-12T09:06:28Z</time>
      </trkpt>
      <trkpt lat="47.78521" lon="5.07073">
        <ele>343.59</ele>
        <time>2022-05-12T09:06:31Z</time>
      </trkpt>
      <trkpt lat="47.78522" lon="5.07067">
        <ele>344.09</ele>
        <time>2022-05-12T09:06:33Z</time>
      </trkpt>
      <trkpt lat="47.78522" lon="5.07062">
        <ele>344.49</ele>
        <time>2022-05-12T09:06:36Z</time>
      </trkpt>
      <trkpt lat="47.78523" lon="5.07057">
        <ele>344.89</ele>
        <time>2022-05-12T09:06:38Z</time>
      </trkpt>
      <trkpt lat="47.78524" lon="5.07052">
        <ele>345.02</ele>
        <time>2022-05-12T09:06:40Z</time>
      </trkpt>
      <trkpt lat="47.78524" lon="5.07047">
        <ele>345.04</ele>
        <time>2022-05-12T09:06:42Z</time>
      </trkpt>
      <trkpt lat="47.78524" lon="5.07042">
        <ele>345.07</ele>
        <time>2022-05-12T09:06:44Z</time>
      </trkpt>
      <trkpt lat="47.78524" lon="5.07038">
        <ele>345.09</ele>
        <time>2022-05-12T09:06:46Z</time>
      </trkpt>
      <trkpt lat="47.78524" lon="5.07033">
        <ele>345.11</ele>
        <time>2022-05-12T09:06:49Z</time>
      </trkpt>
      <trkpt lat="47.78524" lon="5.07029">
        <ele>345.13</ele>
        <time>2022-05-12T09:06:52Z</time>
      </trkpt>
      <trkpt lat="47.78524" lon="5.07024">
        <ele>345.25</ele>
        <time>2022-05-12T09:06:55Z</time>
      </trkpt>
      <trkpt lat="47.78524" lon="5.07019">
        <ele>345.41</ele>
        <time>2022-05-12T09:06:57Z</time>
      </trkpt>
      <trkpt lat="47.78524" lon="5.07014">
        <ele>345.56</ele>
        <time>2022-05-12T09:07:00Z</time>
      </trkpt>
      <trkpt lat="47.78524" lon="5.0701">
        <ele>345.69</ele>
        <time>2022-05-12T09:07:02Z</time>
      </trkpt>
      <trkpt lat="47.78524" lon="5.07004">
        <ele>345.88</ele>
        <time>2022-05-12T09:07:05Z</time>
      </trkpt>
      <trkpt lat="47.78523" lon="5.06997">
        <ele>346.02</ele>
        <time>2022-05-12T09:07:08Z</time>
      </trkpt>
      <trkpt lat="47.78522" lon="5.06993">
        <ele>346.05</ele>
        <time>2022-05-12T09:07:10Z</time>
      </trkpt>
      <trkpt lat="47.7852" lon="5.06988">
        <ele>346.12</ele>
        <time>2022-05-12T09:07:12Z</time>
      </trkpt>
      <trkpt lat="47.78519" lon="5.06984">
        <ele>346.18</ele>
        <time>2022-05-12T09:07:15Z</time>
      </trkpt>
      <trkpt lat="47.78518" lon="5.06979">
        <ele>346.27</ele>
        <time>2022-05-12T09:07:17Z</time>
      </trkpt>
      <trkpt lat="47.78518" lon="5.06974">
        <ele>346.33</ele>
        <time>2022-05-12T09:07:20Z</time>
      </trkpt>
      <trkpt lat="47.78517" lon="5.0697">
        <ele>346.44</ele>
        <time>2022-05-12T09:07:22Z</time>
      </trkpt>
      <trkpt lat="47.78517" lon="5.06966">
        <ele>346.53</ele>
        <time>2022-05-12T09:07:24Z</time>
      </trkpt>
      <trkpt lat="47.78516" lon="5.06961">
        <ele>346.66</ele>
        <time>2022-05-12T09:07:26Z</time>
      </trkpt>
      <trkpt lat="47.78515" lon="5.06957">
        <ele>346.76</ele>
        <time>2022-05-12T09:07:29Z</time>
      </trkpt>
      <trkpt lat="47.78515" lon="5.06952">
        <ele>346.85</ele>
        <time>2022-05-12T09:07:32Z</time>
      </trkpt>
      <trkpt lat="47.78514" lon="5.06947">
        <ele>346.95</ele>
        <time>2022-05-12T09:07:34Z</time>
      </trkpt>
      <trkpt lat="47.78514" lon="5.06942">
        <ele>347.04</ele>
        <time>2022-05-12T09:07:36Z</time>
      </trkpt>
      <trkpt lat="47.78514" lon="5.06938">
        <ele>347.12</ele>
        <time>2022-05-12T09:07:38Z</time>
      </trkpt>
      <trkpt lat="47.78514" lon="5.06934">
        <ele>347.19</ele>
        <time>2022-05-12T09:07:40Z</time>
      </trkpt>
      <trkpt lat="47.78515" lon="5.06928">
        <ele>347.32</ele>
        <time>2022-05-12T09:07:44Z</time>
      </trkpt>
      <trkpt lat="47.78516" lon="5.06924">
        <ele>347.42</ele>
        <time>2022-05-12T09:07:46Z</time>
      </trkpt>
      <trkpt lat="47.78517" lon="5.0692">
        <ele>347.54</ele>
        <time>2022-05-12T09:07:48Z</time>
      </trkpt>
      <trkpt lat="47.78518" lon="5.06916">
        <ele>347.65</ele>
        <time>2022-05-12T09:07:52Z</time>
      </trkpt>
      <trkpt lat="47.78518" lon="5.06911">
        <ele>347.65</ele>
        <time>2022-05-12T09:07:54Z</time>
      </trkpt>
      <trkpt lat="47.78518" lon="5.06907">
        <ele>347.65</ele>
        <time>2022-05-12T09:07:56Z</time>
      </trkpt>
      <trkpt lat="47.78518" lon="5.06902">
        <ele>347.65</ele>
        <time>2022-05-12T09:07:59Z</time>
      </trkpt>
      <trkpt lat="47.78518" lon="5.06896">
        <ele>347.65</ele>
        <time>2022-05-12T09:08:01Z</time>
      </trkpt>
      <trkpt lat="47.78518" lon="5.0689">
        <ele>347.65</ele>
        <time>2022-05-12T09:08:05Z</time>
      </trkpt>
      <trkpt lat="47.78519" lon="5.06885">
        <ele>347.64</ele>
        <time>2022-05-12T09:08:07Z</time>
      </trkpt>
      <trkpt lat="47.7852" lon="5.0688">
        <ele>347.63</ele>
        <time>2022-05-12T09:08:09Z</time>
      </trkpt>
      <trkpt lat="47.7852" lon="5.06876">
        <ele>347.59</ele>
        <time>2022-05-12T09:08:12Z</time>
      </trkpt>
      <trkpt lat="47.7852" lon="5.06871">
        <ele>347.54</ele>
        <time>2022-05-12T09:08:14Z</time>
      </trkpt>
      <trkpt lat="47.7852" lon="5.06866">
        <ele>347.49</ele>
        <time>2022-05-12T09:08:17Z</time>
      </trkpt>
      <trkpt lat="47.7852" lon="5.06861">
        <ele>347.44</ele>
        <time>2022-05-12T09:08:19Z</time>
      </trkpt>
      <trkpt lat="47.78521" lon="5.06855">
        <ele>347.46</ele>
        <time>2022-05-12T09:08:22Z</time>
      </trkpt>
      <trkpt lat="47.78522" lon="5.06848">
        <ele>347.49</ele>
        <time>2022-05-12T09:08:26Z</time>
      </trkpt>
      <trkpt lat="47.78522" lon="5.06843">
        <ele>347.45</ele>
        <time>2022-05-12T09:08:28Z</time>
      </trkpt>
      <trkpt lat="47.78522" lon="5.06839">
        <ele>347.42</ele>
        <time>2022-05-12T09:08:31Z</time>
      </trkpt>
      <trkpt lat="47.78522" lon="5.06835">
        <ele>347.39</ele>
        <time>2022-05-12T09:08:33Z</time>
      </trkpt>
      <trkpt lat="47.78522" lon="5.06831">
        <ele>347.31</ele>
        <time>2022-05-12T09:08:35Z</time>
      </trkpt>
      <trkpt lat="47.78523" lon="5.06827">
        <ele>347.3</ele>
        <time>2022-05-12T09:08:37Z</time>
      </trkpt>
      <trkpt lat="47.78523" lon="5.06823">
        <ele>347.18</ele>
        <time>2022-05-12T09:08:40Z</time>
      </trkpt>
      <trkpt lat="47.78525" lon="5.06818">
        <ele>347.2</ele>
        <time>2022-05-12T09:08:42Z</time>
      </trkpt>
      <trkpt lat="47.78525" lon="5.06814">
        <ele>347.07</ele>
        <time>2022-05-12T09:08:44Z</time>
      </trkpt>
      <trkpt lat="47.78526" lon="5.06808">
        <ele>346.95</ele>
        <time>2022-05-12T09:08:47Z</time>
      </trkpt>
      <trkpt lat="47.78526" lon="5.06803">
        <ele>346.79</ele>
        <time>2022-05-12T09:08:49Z</time>
      </trkpt>
      <trkpt lat="47.78527" lon="5.06798">
        <ele>346.68</ele>
        <time>2022-05-12T09:08:52Z</time>
      </trkpt>
      <trkpt lat="47.78528" lon="5.06794">
        <ele>346.59</ele>
        <time>2022-05-12T09:08:54Z</time>
      </trkpt>
      <trkpt lat="47.78528" lon="5.06789">
        <ele>346.41</ele>
        <time>2022-05-12T09:08:58Z</time>
      </trkpt>
      <trkpt lat="47.78527" lon="5.06785">
        <ele>346.22</ele>
        <time>2022-05-12T09:08:59Z</time>
      </trkpt>
      <trkpt lat="47.78526" lon="5.06781">
        <ele>346.04</ele>
        <time>2022-05-12T09:09:03Z</time>
      </trkpt>
      <trkpt lat="47.78525" lon="5.06777">
        <ele>345.9</ele>
        <time>2022-05-12T09:09:10Z</time>
      </trkpt>
      <trkpt lat="47.78524" lon="5.06773">
        <ele>345.84</ele>
        <time>2022-05-12T09:09:14Z</time>
      </trkpt>
      <trkpt lat="47.78525" lon="5.06769">
        <ele>345.87</ele>
        <time>2022-05-12T09:09:17Z</time>
      </trkpt>
      <trkpt lat="47.78528" lon="5.06766">
        <ele>346.02</ele>
        <time>2022-05-12T09:09:21Z</time>
      </trkpt>
      <trkpt lat="47.7853" lon="5.06765">
        <ele>346.2</ele>
        <time>2022-05-12T09:10:06Z</time>
      </trkpt>
      <trkpt lat="47.78529" lon="5.06761">
        <ele>346.11</ele>
        <time>2022-05-12T09:10:47Z</time>
      </trkpt>
      <trkpt lat="47.78529" lon="5.06756">
        <ele>346.12</ele>
        <time>2022-05-12T09:10:50Z</time>
      </trkpt>
      <trkpt lat="47.7853" lon="5.06752">
        <ele>346.23</ele>
        <time>2022-05-12T09:10:52Z</time>
      </trkpt>
      <trkpt lat="47.7853" lon="5.06748">
        <ele>346.18</ele>
        <time>2022-05-12T09:10:55Z</time>
      </trkpt>
      <trkpt lat="47.78532" lon="5.06744">
        <ele>346.31</ele>
        <time>2022-05-12T09:10:57Z</time>
      </trkpt>
      <trkpt lat="47.78534" lon="5.0674">
        <ele>346.47</ele>
        <time>2022-05-12T09:11:01Z</time>
      </trkpt>
      <trkpt lat="47.78535" lon="5.06737">
        <ele>346.56</ele>
        <time>2022-05-12T09:11:03Z</time>
      </trkpt>
      <trkpt lat="47.78537" lon="5.06734">
        <ele>346.8</ele>
        <time>2022-05-12T09:11:06Z</time>
      </trkpt>
      <trkpt lat="47.78539" lon="5.06731">
        <ele>347.08</ele>
        <time>2022-05-12T09:11:08Z</time>
      </trkpt>
      <trkpt lat="47.7854" lon="5.06726">
        <ele>347.22</ele>
        <time>2022-05-12T09:11:11Z</time>
      </trkpt>
      <trkpt lat="47.7854" lon="5.06721">
        <ele>347.11</ele>
        <time>2022-05-12T09:11:15Z</time>
      </trkpt>
      <trkpt lat="47.7854" lon="5.06716">
        <ele>346.75</ele>
        <time>2022-05-12T09:11:18Z</time>
      </trkpt>
      <trkpt lat="47.78541" lon="5.06712">
        <ele>346.64</ele>
        <time>2022-05-12T09:11:20Z</time>
      </trkpt>
      <trkpt lat="47.78542" lon="5.06707">
        <ele>346.46</ele>
        <time>2022-05-12T09:11:23Z</time>
      </trkpt>
      <trkpt lat="47.78543" lon="5.06703">
        <ele>346.36</ele>
        <time>2022-05-12T09:11:25Z</time>
      </trkpt>
      <trkpt lat="47.78544" lon="5.06699">
        <ele>346.25</ele>
        <time>2022-05-12T09:11:28Z</time>
      </trkpt>
      <trkpt lat="47.78545" lon="5.06694">
        <ele>346.08</ele>
        <time>2022-05-12T09:11:31Z</time>
      </trkpt>
      <trkpt lat="47.78547" lon="5.0669">
        <ele>346.24</ele>
        <time>2022-05-12T09:11:33Z</time>
      </trkpt>
      <trkpt lat="47.78547" lon="5.06686">
        <ele>346.04</ele>
        <time>2022-05-12T09:11:36Z</time>
      </trkpt>
      <trkpt lat="47.78548" lon="5.06682">
        <ele>345.99</ele>
        <time>2022-05-12T09:11:38Z</time>
      </trkpt>
      <trkpt lat="47.78548" lon="5.06677">
        <ele>345.73</ele>
        <time>2022-05-12T09:11:40Z</time>
      </trkpt>
      <trkpt lat="47.7855" lon="5.06672">
        <ele>345.71</ele>
        <time>2022-05-12T09:11:43Z</time>
      </trkpt>
      <trkpt lat="47.78551" lon="5.06668">
        <ele>345.59</ele>
        <time>2022-05-12T09:11:45Z</time>
      </trkpt>
      <trkpt lat="47.78552" lon="5.06665">
        <ele>345.66</ele>
        <time>2022-05-12T09:11:47Z</time>
      </trkpt>
      <trkpt lat="47.78553" lon="5.0666">
        <ele>345.92</ele>
        <time>2022-05-12T09:11:50Z</time>
      </trkpt>
      <trkpt lat="47.78553" lon="5.06655">
        <ele>346.07</ele>
        <time>2022-05-12T09:11:54Z</time>
      </trkpt>
      <trkpt lat="47.78554" lon="5.06651">
        <ele>346.33</ele>
        <time>2022-05-12T09:11:56Z</time>
      </trkpt>
      <trkpt lat="47.78554" lon="5.06646">
        <ele>346.49</ele>
        <time>2022-05-12T09:11:59Z</time>
      </trkpt>
      <trkpt lat="47.78555" lon="5.06642">
        <ele>346.79</ele>
        <time>2022-05-12T09:12:04Z</time>
      </trkpt>
      <trkpt lat="47.78554" lon="5.06637">
        <ele>346.53</ele>
        <time>2022-05-12T09:12:08Z</time>
      </trkpt>
      <trkpt lat="47.78553" lon="5.06633">
        <ele>345.98</ele>
        <time>2022-05-12T09:12:11Z</time>
      </trkpt>
      <trkpt lat="47.78551" lon="5.06628">
        <ele>345.26</ele>
        <time>2022-05-12T09:12:14Z</time>
      </trkpt>
      <trkpt lat="47.78551" lon="5.06624">
        <ele>344.92</ele>
        <time>2022-05-12T09:12:17Z</time>
      </trkpt>
      <trkpt lat="47.7855" lon="5.0662">
        <ele>344.5</ele>
        <time>2022-05-12T09:12:20Z</time>
      </trkpt>
      <trkpt lat="47.7855" lon="5.06616">
        <ele>344.19</ele>
        <time>2022-05-12T09:12:23Z</time>
      </trkpt>
      <trkpt lat="47.7855" lon="5.06612">
        <ele>343.87</ele>
        <time>2022-05-12T09:12:26Z</time>
      </trkpt>
      <trkpt lat="47.7855" lon="5.06607">
        <ele>343.74</ele>
        <time>2022-05-12T09:12:29Z</time>
      </trkpt>
      <trkpt lat="47.7855" lon="5.06603">
        <ele>343.68</ele>
        <time>2022-05-12T09:12:33Z</time>
      </trkpt>
      <trkpt lat="47.7855" lon="5.06599">
        <ele>343.63</ele>
        <time>2022-05-12T09:12:36Z</time>
      </trkpt>
      <trkpt lat="47.7855" lon="5.06594">
        <ele>343.55</ele>
        <time>2022-05-12T09:12:40Z</time>
      </trkpt>
      <trkpt lat="47.7855" lon="5.0659">
        <ele>343.5</ele>
        <time>2022-05-12T09:12:43Z</time>
      </trkpt>
      <trkpt lat="47.7855" lon="5.06586">
        <ele>343.44</ele>
        <time>2022-05-12T09:12:46Z</time>
      </trkpt>
      <trkpt lat="47.78551" lon="5.06581">
        <ele>343.41</ele>
        <time>2022-05-12T09:12:49Z</time>
      </trkpt>
      <trkpt lat="47.7855" lon="5.06576">
        <ele>343.66</ele>
        <time>2022-05-12T09:12:52Z</time>
      </trkpt>
      <trkpt lat="47.7855" lon="5.06572">
        <ele>343.81</ele>
        <time>2022-05-12T09:12:54Z</time>
      </trkpt>
      <trkpt lat="47.7855" lon="5.06567">
        <ele>343.99</ele>
        <time>2022-05-12T09:12:57Z</time>
      </trkpt>
      <trkpt lat="47.78549" lon="5.06562">
        <ele>344.24</ele>
        <time>2022-05-12T09:13:00Z</time>
      </trkpt>
      <trkpt lat="47.78548" lon="5.06558">
        <ele>344.46</ele>
        <time>2022-05-12T09:13:03Z</time>
      </trkpt>
      <trkpt lat="47.78547" lon="5.06554">
        <ele>344.58</ele>
        <time>2022-05-12T09:13:09Z</time>
      </trkpt>
      <trkpt lat="47.78546" lon="5.0655">
        <ele>344.56</ele>
        <time>2022-05-12T09:13:13Z</time>
      </trkpt>
      <trkpt lat="47.78547" lon="5.06545">
        <ele>344.35</ele>
        <time>2022-05-12T09:13:16Z</time>
      </trkpt>
      <trkpt lat="47.78547" lon="5.0654">
        <ele>344.23</ele>
        <time>2022-05-12T09:13:20Z</time>
      </trkpt>
      <trkpt lat="47.78547" lon="5.06536">
        <ele>344.13</ele>
        <time>2022-05-12T09:13:24Z</time>
      </trkpt>
      <trkpt lat="47.78546" lon="5.06531">
        <ele>344.11</ele>
        <time>2022-05-12T09:13:28Z</time>
      </trkpt>
      <trkpt lat="47.78547" lon="5.06526">
        <ele>343.86</ele>
        <time>2022-05-12T09:13:30Z</time>
      </trkpt>
      <trkpt lat="47.7855" lon="5.06519">
        <ele>343.28</ele>
        <time>2022-05-12T09:13:32Z</time>
      </trkpt>
      <trkpt lat="47.78552" lon="5.06511">
        <ele>342.78</ele>
        <time>2022-05-12T09:13:35Z</time>
      </trkpt>
      <trkpt lat="47.78553" lon="5.06506">
        <ele>342.49</ele>
        <time>2022-05-12T09:13:37Z</time>
      </trkpt>
      <trkpt lat="47.78554" lon="5.06502">
        <ele>342.24</ele>
        <time>2022-05-12T09:13:39Z</time>
      </trkpt>
      <trkpt lat="47.78555" lon="5.06498">
        <ele>341.99</ele>
        <time>2022-05-12T09:13:41Z</time>
      </trkpt>
      <trkpt lat="47.78555" lon="5.06493">
        <ele>341.8</ele>
        <time>2022-05-12T09:13:44Z</time>
      </trkpt>
      <trkpt lat="47.78557" lon="5.06489">
        <ele>341.55</ele>
        <time>2022-05-12T09:13:47Z</time>
      </trkpt>
      <trkpt lat="47.78559" lon="5.06491">
        <ele>341.55</ele>
        <time>2022-05-12T09:13:57Z</time>
      </trkpt>
      <trkpt lat="47.78562" lon="5.06493">
        <ele>341.52</ele>
        <time>2022-05-12T09:14:04Z</time>
      </trkpt>
      <trkpt lat="47.78565" lon="5.06493">
        <ele>341.41</ele>
        <time>2022-05-12T09:14:07Z</time>
      </trkpt>
      <trkpt lat="47.78568" lon="5.06494">
        <ele>341.34</ele>
        <time>2022-05-12T09:14:09Z</time>
      </trkpt>
      <trkpt lat="47.78571" lon="5.06496">
        <ele>341.3</ele>
        <time>2022-05-12T09:14:11Z</time>
      </trkpt>
      <trkpt lat="47.78573" lon="5.06497">
        <ele>341.26</ele>
        <time>2022-05-12T09:14:15Z</time>
      </trkpt>
      <trkpt lat="47.78576" lon="5.06496">
        <ele>341.12</ele>
        <time>2022-05-12T09:14:19Z</time>
      </trkpt>
      <trkpt lat="47.78579" lon="5.06494">
        <ele>340.94</ele>
        <time>2022-05-12T09:14:23Z</time>
      </trkpt>
      <trkpt lat="47.78581" lon="5.06491">
        <ele>340.76</ele>
        <time>2022-05-12T09:14:25Z</time>
      </trkpt>
      <trkpt lat="47.78584" lon="5.06489">
        <ele>340.59</ele>
        <time>2022-05-12T09:14:27Z</time>
      </trkpt>
      <trkpt lat="47.78587" lon="5.06486">
        <ele>340.43</ele>
        <time>2022-05-12T09:14:30Z</time>
      </trkpt>
      <trkpt lat="47.7859" lon="5.06484">
        <ele>340.29</ele>
        <time>2022-05-12T09:14:32Z</time>
      </trkpt>
      <trkpt lat="47.78593" lon="5.06483">
        <ele>340.18</ele>
        <time>2022-05-12T09:14:35Z</time>
      </trkpt>
      <trkpt lat="47.78595" lon="5.0648">
        <ele>339.98</ele>
        <time>2022-05-12T09:14:36Z</time>
      </trkpt>
      <trkpt lat="47.78596" lon="5.06475">
        <ele>339.69</ele>
        <time>2022-05-12T09:14:39Z</time>
      </trkpt>
      <trkpt lat="47.78597" lon="5.06472">
        <ele>339.52</ele>
        <time>2022-05-12T09:14:43Z</time>
      </trkpt>
      <trkpt lat="47.78599" lon="5.06468">
        <ele>339.61</ele>
        <time>2022-05-12T09:14:46Z</time>
      </trkpt>
      <trkpt lat="47.78602" lon="5.06465">
        <ele>339.68</ele>
        <time>2022-05-12T09:14:47Z</time>
      </trkpt>
      <trkpt lat="47.78604" lon="5.06461">
        <ele>339.86</ele>
        <time>2022-05-12T09:14:50Z</time>
      </trkpt>
      <trkpt lat="47.78607" lon="5.06458">
        <ele>340.02</ele>
        <time>2022-05-12T09:14:53Z</time>
      </trkpt>
      <trkpt lat="47.78609" lon="5.06455">
        <ele>340.22</ele>
        <time>2022-05-12T09:14:55Z</time>
      </trkpt>
      <trkpt lat="47.78611" lon="5.06452">
        <ele>340.45</ele>
        <time>2022-05-12T09:14:57Z</time>
      </trkpt>
      <trkpt lat="47.78613" lon="5.06449">
        <ele>340.75</ele>
        <time>2022-05-12T09:15:00Z</time>
      </trkpt>
      <trkpt lat="47.78615" lon="5.06445">
        <ele>341.1</ele>
        <time>2022-05-12T09:15:02Z</time>
      </trkpt>
      <trkpt lat="47.78616" lon="5.06441">
        <ele>341.05</ele>
        <time>2022-05-12T09:15:05Z</time>
      </trkpt>
      <trkpt lat="47.78617" lon="5.06437">
        <ele>340.94</ele>
        <time>2022-05-12T09:15:08Z</time>
      </trkpt>
      <trkpt lat="47.78618" lon="5.06434">
        <ele>340.87</ele>
        <time>2022-05-12T09:15:12Z</time>
      </trkpt>
      <trkpt lat="47.78621" lon="5.06431">
        <ele>340.87</ele>
        <time>2022-05-12T09:15:15Z</time>
      </trkpt>
      <trkpt lat="47.78623" lon="5.06428">
        <ele>340.84</ele>
        <time>2022-05-12T09:15:19Z</time>
      </trkpt>
      <trkpt lat="47.78625" lon="5.06424">
        <ele>340.76</ele>
        <time>2022-05-12T09:15:21Z</time>
      </trkpt>
      <trkpt lat="47.78627" lon="5.06421">
        <ele>340.73</ele>
        <time>2022-05-12T09:15:24Z</time>
      </trkpt>
      <trkpt lat="47.78629" lon="5.06418">
        <ele>340.69</ele>
        <time>2022-05-12T09:15:25Z</time>
      </trkpt>
      <trkpt lat="47.78631" lon="5.06414">
        <ele>340.72</ele>
        <time>2022-05-12T09:15:27Z</time>
      </trkpt>
      <trkpt lat="47.78633" lon="5.0641">
        <ele>340.79</ele>
        <time>2022-05-12T09:15:30Z</time>
      </trkpt>
      <trkpt lat="47.78635" lon="5.06406">
        <ele>340.86</ele>
        <time>2022-05-12T09:15:32Z</time>
      </trkpt>
      <trkpt lat="47.78637" lon="5.06402">
        <ele>340.93</ele>
        <time>2022-05-12T09:15:34Z</time>
      </trkpt>
      <trkpt lat="47.78639" lon="5.06398">
        <ele>340.99</ele>
        <time>2022-05-12T09:15:36Z</time>
      </trkpt>
      <trkpt lat="47.78641" lon="5.06394">
        <ele>340.91</ele>
        <time>2022-05-12T09:15:39Z</time>
      </trkpt>
      <trkpt lat="47.78644" lon="5.06382">
        <ele>340.82</ele>
        <time>2022-05-12T09:15:46Z</time>
      </trkpt>
      <trkpt lat="47.78646" lon="5.06375">
        <ele>340.74</ele>
        <time>2022-05-12T09:15:49Z</time>
      </trkpt>
      <trkpt lat="47.78647" lon="5.06371">
        <ele>340.71</ele>
        <time>2022-05-12T09:15:51Z</time>
      </trkpt>
      <trkpt lat="47.78649" lon="5.06368">
        <ele>340.64</ele>
        <time>2022-05-12T09:15:53Z</time>
      </trkpt>
      <trkpt lat="47.78651" lon="5.06364">
        <ele>340.56</ele>
        <time>2022-05-12T09:15:55Z</time>
      </trkpt>
      <trkpt lat="47.78653" lon="5.06361">
        <ele>340.49</ele>
        <time>2022-05-12T09:15:58Z</time>
      </trkpt>
      <trkpt lat="47.78655" lon="5.06357">
        <ele>340.36</ele>
        <time>2022-05-12T09:16:00Z</time>
      </trkpt>
      <trkpt lat="47.78657" lon="5.06353">
        <ele>340.25</ele>
        <time>2022-05-12T09:16:03Z</time>
      </trkpt>
      <trkpt lat="47.78658" lon="5.06349">
        <ele>340.18</ele>
        <time>2022-05-12T09:16:05Z</time>
      </trkpt>
      <trkpt lat="47.7866" lon="5.06346">
        <ele>340.11</ele>
        <time>2022-05-12T09:16:08Z</time>
      </trkpt>
      <trkpt lat="47.78662" lon="5.06342">
        <ele>340.05</ele>
        <time>2022-05-12T09:16:11Z</time>
      </trkpt>
      <trkpt lat="47.78665" lon="5.06339">
        <ele>340.01</ele>
        <time>2022-05-12T09:16:14Z</time>
      </trkpt>
      <trkpt lat="47.78666" lon="5.06335">
        <ele>340</ele>
        <time>2022-05-12T09:16:16Z</time>
      </trkpt>
      <trkpt lat="47.78667" lon="5.06331">
        <ele>339.98</ele>
        <time>2022-05-12T09:16:19Z</time>
      </trkpt>
      <trkpt lat="47.78667" lon="5.06327">
        <ele>339.98</ele>
        <time>2022-05-12T09:16:22Z</time>
      </trkpt>
      <trkpt lat="47.78667" lon="5.06322">
        <ele>339.98</ele>
        <time>2022-05-12T09:16:25Z</time>
      </trkpt>
      <trkpt lat="47.78667" lon="5.06318">
        <ele>339.98</ele>
        <time>2022-05-12T09:16:29Z</time>
      </trkpt>
      <trkpt lat="47.78669" lon="5.06315">
        <ele>339.89</ele>
        <time>2022-05-12T09:16:33Z</time>
      </trkpt>
      <trkpt lat="47.78672" lon="5.06314">
        <ele>339.75</ele>
        <time>2022-05-12T09:16:35Z</time>
      </trkpt>
      <trkpt lat="47.78676" lon="5.06313">
        <ele>339.57</ele>
        <time>2022-05-12T09:16:38Z</time>
      </trkpt>
      <trkpt lat="47.78683" lon="5.06314">
        <ele>339.23</ele>
        <time>2022-05-12T09:16:43Z</time>
      </trkpt>
      <trkpt lat="47.78687" lon="5.06315">
        <ele>339.02</ele>
        <time>2022-05-12T09:16:45Z</time>
      </trkpt>
      <trkpt lat="47.7869" lon="5.06316">
        <ele>338.84</ele>
        <time>2022-05-12T09:16:48Z</time>
      </trkpt>
      <trkpt lat="47.78693" lon="5.06316">
        <ele>338.7</ele>
        <time>2022-05-12T09:16:50Z</time>
      </trkpt>
      <trkpt lat="47.78696" lon="5.06316">
        <ele>338.44</ele>
        <time>2022-05-12T09:16:53Z</time>
      </trkpt>
      <trkpt lat="47.78699" lon="5.06315">
        <ele>338.12</ele>
        <time>2022-05-12T09:16:56Z</time>
      </trkpt>
      <trkpt lat="47.78702" lon="5.06313">
        <ele>337.79</ele>
        <time>2022-05-12T09:16:59Z</time>
      </trkpt>
      <trkpt lat="47.78704" lon="5.0631">
        <ele>337.57</ele>
        <time>2022-05-12T09:17:01Z</time>
      </trkpt>
      <trkpt lat="47.78707" lon="5.06308">
        <ele>337.18</ele>
        <time>2022-05-12T09:17:04Z</time>
      </trkpt>
      <trkpt lat="47.7871" lon="5.06307">
        <ele>336.77</ele>
        <time>2022-05-12T09:17:06Z</time>
      </trkpt>
      <trkpt lat="47.78713" lon="5.06306">
        <ele>336.33</ele>
        <time>2022-05-12T09:17:09Z</time>
      </trkpt>
      <trkpt lat="47.78715" lon="5.06303">
        <ele>335.95</ele>
        <time>2022-05-12T09:17:12Z</time>
      </trkpt>
      <trkpt lat="47.78719" lon="5.06302">
        <ele>335.34</ele>
        <time>2022-05-12T09:17:15Z</time>
      </trkpt>
      <trkpt lat="47.78723" lon="5.06303">
        <ele>334.96</ele>
        <time>2022-05-12T09:17:19Z</time>
      </trkpt>
      <trkpt lat="47.78726" lon="5.06304">
        <ele>335.21</ele>
        <time>2022-05-12T09:17:22Z</time>
      </trkpt>
      <trkpt lat="47.78729" lon="5.06303">
        <ele>335.37</ele>
        <time>2022-05-12T09:17:24Z</time>
      </trkpt>
      <trkpt lat="47.78731" lon="5.063">
        <ele>335.37</ele>
        <time>2022-05-12T09:17:27Z</time>
      </trkpt>
      <trkpt lat="47.78733" lon="5.06296">
        <ele>335.3</ele>
        <time>2022-05-12T09:17:29Z</time>
      </trkpt>
      <trkpt lat="47.78735" lon="5.06293">
        <ele>335.26</ele>
        <time>2022-05-12T09:17:32Z</time>
      </trkpt>
      <trkpt lat="47.78738" lon="5.06291">
        <ele>335.31</ele>
        <time>2022-05-12T09:17:34Z</time>
      </trkpt>
      <trkpt lat="47.7874" lon="5.06288">
        <ele>335.24</ele>
        <time>2022-05-12T09:17:36Z</time>
      </trkpt>
      <trkpt lat="47.78742" lon="5.06284">
        <ele>335.1</ele>
        <time>2022-05-12T09:17:39Z</time>
      </trkpt>
      <trkpt lat="47.78743" lon="5.0628">
        <ele>334.89</ele>
        <time>2022-05-12T09:17:42Z</time>
      </trkpt>
      <trkpt lat="47.78745" lon="5.06276">
        <ele>334.72</ele>
        <time>2022-05-12T09:17:45Z</time>
      </trkpt>
      <trkpt lat="47.78747" lon="5.06273">
        <ele>334.59</ele>
        <time>2022-05-12T09:17:47Z</time>
      </trkpt>
      <trkpt lat="47.78749" lon="5.0627">
        <ele>334.42</ele>
        <time>2022-05-12T09:17:50Z</time>
      </trkpt>
      <trkpt lat="47.78751" lon="5.06267">
        <ele>334.28</ele>
        <time>2022-05-12T09:17:52Z</time>
      </trkpt>
      <trkpt lat="47.78752" lon="5.06262">
        <ele>333.97</ele>
        <time>2022-05-12T09:17:55Z</time>
      </trkpt>
      <trkpt lat="47.78754" lon="5.06258">
        <ele>333.76</ele>
        <time>2022-05-12T09:17:57Z</time>
      </trkpt>
      <trkpt lat="47.78756" lon="5.06254">
        <ele>333.54</ele>
        <time>2022-05-12T09:17:59Z</time>
      </trkpt>
      <trkpt lat="47.78759" lon="5.06251">
        <ele>333.41</ele>
        <time>2022-05-12T09:18:01Z</time>
      </trkpt>
      <trkpt lat="47.78761" lon="5.06248">
        <ele>333.31</ele>
        <time>2022-05-12T09:18:03Z</time>
      </trkpt>
      <trkpt lat="47.78763" lon="5.06245">
        <ele>333.22</ele>
        <time>2022-05-12T09:18:06Z</time>
      </trkpt>
      <trkpt lat="47.78766" lon="5.06243">
        <ele>333.14</ele>
        <time>2022-05-12T09:18:08Z</time>
      </trkpt>
      <trkpt lat="47.78769" lon="5.06242">
        <ele>333.09</ele>
        <time>2022-05-12T09:18:11Z</time>
      </trkpt>
      <trkpt lat="47.78771" lon="5.0624">
        <ele>332.94</ele>
        <time>2022-05-12T09:18:13Z</time>
      </trkpt>
      <trkpt lat="47.78775" lon="5.06235">
        <ele>332.44</ele>
        <time>2022-05-12T09:18:17Z</time>
      </trkpt>
      <trkpt lat="47.78778" lon="5.0623">
        <ele>331.86</ele>
        <time>2022-05-12T09:18:20Z</time>
      </trkpt>
      <trkpt lat="47.7878" lon="5.06227">
        <ele>331.7</ele>
        <time>2022-05-12T09:18:23Z</time>
      </trkpt>
      <trkpt lat="47.78783" lon="5.06224">
        <ele>331.59</ele>
        <time>2022-05-12T09:18:26Z</time>
      </trkpt>
      <trkpt lat="47.78785" lon="5.06221">
        <ele>331.43</ele>
        <time>2022-05-12T09:18:28Z</time>
      </trkpt>
      <trkpt lat="47.78787" lon="5.06218">
        <ele>331.36</ele>
        <time>2022-05-12T09:18:30Z</time>
      </trkpt>
      <trkpt lat="47.78789" lon="5.06215">
        <ele>331.29</ele>
        <time>2022-05-12T09:18:33Z</time>
      </trkpt>
      <trkpt lat="47.78792" lon="5.06213">
        <ele>331.36</ele>
        <time>2022-05-12T09:18:36Z</time>
      </trkpt>
      <trkpt lat="47.78795" lon="5.0621">
        <ele>331.36</ele>
        <time>2022-05-12T09:18:38Z</time>
      </trkpt>
      <trkpt lat="47.78797" lon="5.06206">
        <ele>331.22</ele>
        <time>2022-05-12T09:18:41Z</time>
      </trkpt>
      <trkpt lat="47.78799" lon="5.06203">
        <ele>331.14</ele>
        <time>2022-05-12T09:18:43Z</time>
      </trkpt>
      <trkpt lat="47.78801" lon="5.06199">
        <ele>331</ele>
        <time>2022-05-12T09:18:46Z</time>
      </trkpt>
      <trkpt lat="47.78803" lon="5.06196">
        <ele>330.93</ele>
        <time>2022-05-12T09:18:49Z</time>
      </trkpt>
      <trkpt lat="47.78805" lon="5.06194">
        <ele>330.91</ele>
        <time>2022-05-12T09:18:50Z</time>
      </trkpt>
      <trkpt lat="47.78808" lon="5.06191">
        <ele>330.54</ele>
        <time>2022-05-12T09:18:52Z</time>
      </trkpt>
      <trkpt lat="47.78811" lon="5.06185">
        <ele>329.78</ele>
        <time>2022-05-12T09:18:55Z</time>
      </trkpt>
      <trkpt lat="47.78817" lon="5.06179">
        <ele>328.92</ele>
        <time>2022-05-12T09:18:59Z</time>
      </trkpt>
      <trkpt lat="47.78821" lon="5.06174">
        <ele>328.24</ele>
        <time>2022-05-12T09:19:02Z</time>
      </trkpt>
      <trkpt lat="47.78823" lon="5.06172">
        <ele>327.95</ele>
        <time>2022-05-12T09:19:05Z</time>
      </trkpt>
      <trkpt lat="47.78825" lon="5.0617">
        <ele>327.66</ele>
        <time>2022-05-12T09:19:07Z</time>
      </trkpt>
      <trkpt lat="47.78828" lon="5.06166">
        <ele>327.15</ele>
        <time>2022-05-12T09:19:16Z</time>
      </trkpt>
      <trkpt lat="47.78831" lon="5.0616">
        <ele>326.62</ele>
        <time>2022-05-12T09:19:24Z</time>
      </trkpt>
      <trkpt lat="47.78831" lon="5.06156">
        <ele>326.35</ele>
        <time>2022-05-12T09:19:36Z</time>
      </trkpt>
    </trkseg>
  </trk>
</gpx>